[[{"header":{"parameterUnit":"m.s-1","parameterCategory":1,"la1":31.0,"la2":29.5877,"lo1":-88.7671,"lo2":-86.6584,"dy":0.0162,"dx":0.0185,"nx":115,"ny":88,"refTime":"2023-07-16T06:00:00:Z","depth":0,"parameterNumber":2,"parameterNumberName":"U-component_of_WINDS"},"data":[0.0,0.0,0.0,0.0,0.0,0.0,0.0,0.0,0.0,0.0,0.0,0.0,0.0,0.0,0.0,0.0,0.0,0.0,0.0,0.0,0.0,0.0,0.0,0.0,0.0,0.0,0.0,0.0,0.0,0.0,0.0,0.0,0.0,0.0,0.0,0.0,0.0,0.0,0.0,0.0,0.0,0.0,0.0,0.0,0.0,0.0,0.0,0.0,0.0,0.0,0.0,0.0,0.0,0.0,0.0,0.0,0.0,0.0,0.0,0.0,0.0,0.0,0.0,0.0,0.0,0.0,0.0,0.0,0.0,0.0,0.0,0.0,0.0,0.0,0.0,0.0,0.0,0.0,0.0,0.0,0.0,0.0,0.0,0.0,0.0,0.0,0.0,0.0,0.0,0.0,0.0,0.0,0.0,0.0,0.0,0.0,0.0,0.0,0.0,0.0,0.0,0.0,0.0,0.0,0.0,0.0,0.0,0.0,0.0,0.0,0.0,0.0,0.0,0.0,0.0,0.0,0.0,0.0,0.0,0.0,0.0,0.0,0.0,0.0,0.0,0.0,0.0,0.0,0.0,0.0,0.0,0.0,0.0,0.0,0.0,0.0,0.0,0.0,0.0,0.0,0.0,0.0,0.0,0.0,0.0,0.0,0.0,0.0,0.0,0.0,0.0,0.0,0.0,0.0,0.0,0.0,0.0,0.0,0.0,0.0,0.0,0.0,0.0,0.0,0.0,0.0,0.0,0.0,0.0,0.0,0.0,0.0,0.0,0.0,0.0,0.0,0.0,0.0,0.0,0.0,0.0,0.0,0.0,0.0,0.0,0.0,0.0,0.0,0.0,0.0,0.0,0.0,0.0,0.0,0.0,0.0,0.0,0.0,0.0,0.0,0.0,0.0,0.0,0.0,0.0,0.0,0.0,0.0,0.0,0.0,0.0,0.0,0.0,0.0,0.0,0.0,0.0,0.0,0.0,0.0,0.0,0.0,0.0,0.0,0.0,0.0,0.0,0.0,0.0,0.0,0.0,0.0,0.0,0.0,0.0,0.0,0.0,0.0,0.0,0.0,0.0,0.0,0.0,0.0,0.0,0.0,0.0,0.0,0.0,0.0,0.0,0.0,0.0,0.0,0.0,0.0,0.0,0.0,0.0,0.0,0.0,0.0,0.0,0.0,0.0,0.0,0.0,0.0,0.0,0.0,0.0,0.0,0.0,0.0,0.0,0.0,0.0,0.0,0.0,0.0,0.0,0.0,0.0,0.0,0.0,0.0,0.0,0.0,0.0,0.0,0.0,0.0,0.0,0.0,0.0,0.0,0.0,0.0,0.0,0.0,0.0,0.0,0.0,0.0,0.0,0.0,0.0,0.0,0.0,0.0,0.0,0.0,0.0,0.0,0.0,0.0,0.0,0.0,0.0,0.0,0.0,0.0,0.0,0.0,0.0,0.0,0.0,0.0,0.0,0.0,0.0,0.0,0.0,0.0,0.0,0.0,0.0,0.0,0.0,0.0,0.0,0.0,0.0,0.0,0.0,0.0,0.0,0.0,0.0,0.0,0.0,0.0,0.0,0.0,0.0,0.0,0.0,0.0,0.0,0.0,0.0,0.0,0.0,0.0,0.0,0.0,0.0,0.0,0.0,0.0,0.0,0.0,0.0,0.0,0.0,0.0,0.0,0.0,0.0,0.0,0.0,0.0,0.0,0.0,0.0,0.0,0.0,0.0,0.0,0.0,0.0,0.0,0.0,0.0,0.0,0.0,0.0,0.0,0.0,0.0,0.0,0.0,0.0,0.0,0.0,0.0,0.0,0.0,0.0,0.0,0.0,0.0,0.0,0.0,0.0,0.0,0.0,0.0,0.0,0.0,0.0,0.0,0.0,0.0,0.0,0.0,0.0,0.0,0.0,0.0,0.0,0.0,0.0,0.0,0.0,0.0,0.0,0.0,0.0,0.0,0.0,0.0,0.0,0.0,0.0,0.0,0.0,0.0,0.0,0.0,0.0,0.0,0.0,0.0,0.0,0.0,0.0,0.0,0.0,0.0,0.0,0.0,0.0,0.0,0.0,0.0,0.0,0.0,0.0,0.0,0.0,0.0,0.0,0.0,0.0,0.0,0.0,0.0,0.0,0.0,0.0,0.0,0.0,0.0,0.0,0.0,0.0,0.0,0.0,0.0,0.0,0.0,0.0,0.0,0.0,0.0,0.0,0.0,0.0,0.0,0.0,0.0,0.0,0.0,0.0,0.0,0.0,0.0,0.0,0.0,0.0,0.0,0.0,0.0,0.0,0.0,0.0,0.0,0.0,0.0,0.0,0.0,0.0,0.0,0.0,0.0,0.0,0.0,0.0,0.0,0.0,0.0,0.0,0.0,0.0,0.0,0.0,0.0,0.0,0.0,0.0,0.0,0.0,0.0,0.0,0.0,0.0,0.0,0.0,0.0,0.0,0.0,0.0,0.0,0.0,0.0,0.0,0.0,0.0,0.0,0.0,0.0,0.0,0.0,0.0,0.0,0.0,0.0,0.0,0.0,0.0,0.0,0.0,0.0,0.0,0.0,0.0,0.0,0.0,0.0,0.0,0.0,0.0,0.0,0.0,0.0,0.0,0.0,0.0,0.0,0.0,0.0,0.0,0.0,0.0,0.0,0.0,0.0,0.0,0.0,0.0,0.0,0.0,0.0,0.0,0.0,0.0,0.0,0.0,0.0,0.0,0.0,0.0,0.0,0.0,0.0,0.0,0.0,0.0,0.0,0.0,0.0,0.0,0.0,0.0,0.0,0.0,0.0,0.0,0.0,0.0,0.0,0.0,0.0,0.0,0.0,0.0,0.0,0.0,0.0,0.0,0.0,0.0,0.0,0.0,0.0,0.0,0.0,0.0,0.0,0.0,0.0,0.0,0.0,0.0,0.0,0.0,0.0,0.0,0.0,0.0,0.0,0.0,0.0,0.0,0.0,0.0,0.0,0.0,0.0,0.0,0.0,0.0,0.0,0.0,0.0,0.0,0.0,0.0,0.0,0.0,0.0,0.0,0.0,0.0,0.0,0.0,0.0,0.0,0.0,0.0,0.0,0.0,0.0,0.0,0.0,0.0,0.0,0.0,0.0,0.0,0.0,0.0,0.0,0.0,0.0,0.0,0.0,0.0,0.0,0.0,0.0,0.0,0.0,0.0,0.0,0.0,0.0,0.0,0.0,0.0,0.0,0.0,0.0,0.0,0.0,0.0,0.0,0.0,0.0,0.0,0.0,0.0,0.0,0.0,0.0,0.0,0.0,0.0,0.0,0.0,0.0,0.0,0.0,0.0,0.0,0.0,0.0,0.0,0.0,0.0,0.0,0.0,0.0,0.0,0.0,0.0,0.0,0.0,0.0,0.0,0.0,0.0,0.0,0.0,0.0,0.0,0.0,0.0,0.0,0.0,0.0,0.0,0.0,0.0,0.0,0.0,0.0,0.0,0.0,0.0,0.0,0.0,0.0,0.0,0.0,0.0,0.0,0.0,0.0,0.0,0.0,0.0,0.0,0.0,0.0,0.0,0.0,0.0,0.0,0.0,0.0,0.0,0.0,0.0,0.0,0.0,0.0,0.0,0.0,0.0,0.0,0.0,0.0,0.0,0.0,0.0,0.0,0.0,0.0,0.0,0.0,0.0,0.0,0.0,0.0,0.0,0.0,0.0,0.0,0.0,0.0,0.0,0.0,0.0,0.0,0.0,0.0,0.0,0.0,0.0,0.0,0.0,0.0,0.0,0.0,0.0,0.0,0.0,0.0,0.0,0.0,0.0,0.0,0.0,0.0,0.0,0.0,0.0,0.0,0.0,0.0,0.0,0.0,0.0,0.0,0.0,0.0,0.0,0.0,0.0,0.0,0.0,0.0,0.0,0.0,0.0,0.0,0.0,0.0,0.0,0.0,0.0,0.0,0.0,0.0,0.0,0.0,0.0,0.0,0.0,0.0,0.0,0.0,0.0,0.0,0.0,0.0,0.0,0.0,0.0,0.0,0.0,0.0,0.0,0.0,0.0,0.0,0.0,0.0,0.0,0.0,0.0,0.0,0.0,0.0,0.0,0.0,0.0,0.0,0.0,0.0,0.0,0.0,0.0,0.0,0.0,0.0,0.0,0.0,0.0,0.0,0.0,0.0,0.0,0.0,0.0,0.0,0.0,0.0,0.0,0.0,0.0,0.0,0.0,0.0,0.0,0.0,0.0,0.0,0.0,0.0,0.0,0.0,0.0,0.0,0.0,0.0,0.0,0.0,0.0,0.0,0.0,0.0,0.0,0.0,-1.0151,0.0,0.0,0.0,0.0,0.0,0.0,0.0,0.0,0.0,0.0,0.0,0.0,0.0,0.0,0.0,0.0,0.0,0.0,0.0,0.0,0.0,0.0,0.0,0.0,0.0,0.0,0.0,0.0,0.0,0.0,0.0,0.0,0.0,0.0,0.0,0.0,0.0,0.0,0.0,0.0,0.0,0.0,0.0,0.0,0.0,0.0,0.0,0.0,0.0,0.0,0.0,0.0,0.0,0.0,0.0,0.0,0.0,0.0,0.0,0.0,0.0,0.0,0.0,0.0,0.0,0.0,0.0,0.0,0.0,0.0,0.0,0.0,0.0,0.0,0.0,0.0,0.0,0.0,0.0,0.0,0.0,0.0,0.0,0.0,0.0,0.0,0.0,0.0,0.0,0.0,0.0,0.0,0.0,0.0,0.0,0.0,0.0,0.0,0.0,0.0,0.0,0.0,0.0,0.0,0.0,0.0,0.0,0.0,0.0,0.0,-0.9535,-1.0108,-0.8804,-0.8608,-0.98,0.0,0.0,0.0,0.0,0.0,0.0,0.0,0.0,0.0,0.0,0.0,0.0,0.0,0.0,0.0,0.0,0.0,0.0,0.0,0.0,0.0,0.0,0.0,0.0,0.0,0.0,0.0,0.0,0.0,0.0,0.0,0.0,0.0,0.0,0.0,0.0,0.0,0.0,0.0,0.0,0.0,0.0,0.0,0.0,0.0,0.0,0.0,0.0,0.0,0.0,0.0,0.0,0.0,0.0,0.0,0.0,0.0,0.0,0.0,0.0,0.0,0.0,0.0,0.0,0.0,0.0,0.0,0.0,0.0,0.0,0.0,0.0,0.0,0.0,0.0,0.0,0.0,0.0,0.0,0.0,0.0,0.0,0.0,0.0,0.0,0.0,0.0,0.0,0.0,0.0,0.0,0.0,0.0,0.0,0.0,0.0,0.0,0.0,0.0,0.0,0.0,0.0,0.0,0.0,0.0,0.0,0.0,0.0,0.0,0.0,0.0,0.0,-0.8432,-0.8325,-0.9542,0.0,0.0,0.0,0.0,0.0,0.0,0.0,0.0,0.0,0.0,0.0,0.0,0.0,0.0,0.0,0.0,0.0,0.0,0.0,0.0,0.0,0.0,0.0,0.0,0.0,0.0,0.0,0.0,0.0,0.0,0.0,0.0,0.0,0.0,0.0,0.0,0.0,0.0,0.0,0.0,0.0,0.0,0.0,0.0,0.0,0.0,0.0,0.0,0.0,0.0,0.0,0.0,0.0,0.0,0.0,0.0,0.0,0.0,0.0,0.0,0.0,0.0,0.0,0.0,0.0,0.0,0.0,0.0,0.0,0.0,0.0,0.0,0.0,0.0,0.0,0.0,0.0,0.0,0.0,0.0,0.0,0.0,0.0,0.0,0.0,0.0,0.0,0.0,0.0,0.0,0.0,0.0,0.0,0.0,0.0,0.0,0.0,0.0,0.0,0.0,0.0,0.0,0.0,0.0,0.0,0.0,0.0,0.0,0.0,0.0,-0.9185,-0.9512,-0.935,0.0,-0.9918,0.0,0.0,0.0,0.0,0.0,0.0,0.0,0.0,0.0,0.0,0.0,0.0,0.0,0.0,0.0,0.0,0.0,0.0,0.0,0.0,0.0,0.0,0.0,0.0,0.0,0.0,0.0,0.0,0.0,0.0,0.0,0.0,0.0,0.0,0.0,0.0,0.0,0.0,0.0,0.0,0.0,0.0,0.0,0.0,0.0,0.0,0.0,0.0,0.0,0.0,0.0,0.0,0.0,0.0,0.0,0.0,0.0,0.0,0.0,0.0,0.0,0.0,0.0,0.0,0.0,0.0,0.0,0.0,0.0,0.0,0.0,0.0,0.0,0.0,0.0,0.0,0.0,0.0,0.0,0.0,0.0,0.0,0.0,0.0,0.0,0.0,0.0,0.0,0.0,0.0,0.0,0.0,0.0,0.0,0.0,0.0,0.0,0.0,0.0,0.0,0.0,0.0,0.0,0.0,0.0,0.0,0.0,0.0,0.0,0.0,-0.93,-0.9315,-0.9201,-0.8988,0.0,0.0,0.0,0.0,0.0,0.0,0.0,0.0,0.0,0.0,0.0,0.0,0.0,0.0,0.0,0.0,0.0,0.0,0.0,0.0,0.0,0.0,0.0,0.0,0.0,0.0,0.0,0.0,0.0,0.0,0.0,0.0,0.0,0.0,0.0,0.0,0.0,0.0,0.0,0.0,0.0,0.0,0.0,0.0,0.0,0.0,0.0,0.0,0.0,0.0,0.0,0.0,0.0,0.0,0.0,0.0,0.0,0.0,0.0,0.0,0.0,0.0,0.0,0.0,0.0,0.0,0.0,0.0,0.0,0.0,0.0,0.0,0.0,0.0,0.0,0.0,0.0,0.0,0.0,0.0,0.0,0.0,0.0,0.0,0.0,0.0,0.0,0.0,0.0,0.0,0.0,0.0,0.0,0.0,0.0,0.0,0.0,0.0,0.0,0.0,0.0,0.0,0.0,0.0,0.0,0.0,0.0,0.0,0.0,0.0,-0.9291,-0.928,-0.9099,-0.8888,-0.8508,-0.8,0.0,0.0,0.0,0.0,0.0,0.0,0.0,0.0,0.0,0.0,0.0,0.0,0.0,0.0,0.0,0.0,0.0,0.0,0.0,0.0,0.0,0.0,0.0,0.0,0.0,0.0,0.0,0.0,0.0,0.0,0.0,0.0,0.0,0.0,0.0,0.0,0.0,0.0,0.0,0.0,0.0,0.0,0.0,0.0,0.0,0.0,0.0,0.0,0.0,0.0,0.0,0.0,0.0,0.0,0.0,0.0,0.0,0.0,0.0,0.0,0.0,0.0,0.0,0.0,0.0,0.0,0.0,0.0,0.0,0.0,0.0,0.0,0.0,0.0,0.0,0.0,0.0,0.0,0.0,0.0,0.0,0.0,0.0,0.0,0.0,0.0,0.0,0.0,0.0,0.0,0.0,0.0,0.0,0.0,0.0,0.0,0.0,0.0,0.0,0.0,0.0,0.0,0.0,0.0,0.0,0.0,0.0,0.0,-0.9612,-0.9189,-0.8949,-0.8905,-0.863,-0.8389,0.0,0.0,0.0,0.0,0.0,0.0,0.0,0.0,0.0,0.0,0.0,0.0,0.0,0.0,0.0,0.0,0.0,0.0,0.0,0.0,0.0,0.0,0.0,0.0,0.0,0.0,0.0,0.0,0.0,0.0,0.0,0.0,0.0,0.0,0.0,0.0,0.0,0.0,0.0,0.0,0.0,0.0,0.0,0.0,0.0,0.0,0.0,0.0,0.0,0.0,0.0,0.0,0.0,0.0,0.0,0.0,0.0,0.0,0.0,0.0,0.0,0.0,0.0,0.0,0.0,0.0,0.0,0.0,0.0,0.0,0.0,0.0,0.0,0.0,0.0,0.0,0.0,0.0,0.0,0.0,0.0,0.0,0.0,0.0,0.0,0.0,0.0,0.0,0.0,0.0,0.0,0.0,0.0,0.0,0.0,0.0,0.0,0.0,0.0,0.0,0.0,0.0,0.0,0.0,0.0,0.0,0.0,0.0,0.0,-0.8859,-0.8893,-0.9009,-0.9199,-0.8889,-0.8715,0.0,0.0,0.0,0.0,0.0,0.0,0.0,0.0,0.0,0.0,0.0,0.0,0.0,0.0,0.0,0.0,0.0,0.0,0.0,0.0,0.0,0.0,0.0,0.0,0.0,0.0,0.0,0.0,0.0,0.0,0.0,0.0,0.0,0.0,0.0,0.0,0.0,0.0,0.0,0.0,0.0,0.0,0.0,0.0,0.0,0.0,0.0,0.0,0.0,0.0,0.0,0.0,0.0,0.0,0.0,0.0,0.0,0.0,0.0,0.0,0.0,0.0,0.0,0.0,0.0,0.0,0.0,0.0,0.0,0.0,0.0,0.0,0.0,0.0,0.0,0.0,0.0,0.0,0.0,0.0,0.0,0.0,0.0,0.0,0.0,0.0,0.0,0.0,0.0,0.0,0.0,0.0,0.0,0.0,0.0,0.0,0.0,0.0,0.0,0.0,0.0,0.0,0.0,0.0,0.0,0.0,0.0,0.0,0.0,-0.8498,0.0,-0.8901,-0.9004,-0.885,-0.8675,0.0,0.0,0.0,0.0,0.0,0.0,0.0,0.0,0.0,0.0,0.0,0.0,0.0,0.0,0.0,0.0,0.0,0.0,0.0,0.0,0.0,0.0,0.0,0.0,0.0,0.0,0.0,0.0,0.0,0.0,0.0,0.0,0.0,0.0,0.0,0.0,0.0,0.0,0.0,0.0,0.0,0.0,0.0,0.0,0.0,0.0,0.0,0.0,0.0,0.0,0.0,0.0,0.0,0.0,0.0,0.0,0.0,0.0,0.0,0.0,0.0,0.0,0.0,0.0,0.0,0.0,0.0,0.0,0.0,0.0,0.0,0.0,0.0,0.0,0.0,0.0,0.0,0.0,0.0,0.0,0.0,0.0,0.0,0.0,0.0,0.0,0.0,0.0,0.0,0.0,0.0,0.0,0.0,0.0,0.0,0.0,0.0,0.0,0.0,0.0,0.0,0.0,0.0,0.0,0.0,0.0,0.0,0.0,-0.8482,-0.8668,-0.8676,-0.8516,-0.8255,-0.8364,-0.8222,0.0,0.0,0.0,0.0,0.0,0.0,0.0,0.0,0.0,0.0,0.0,0.0,0.0,0.0,0.0,0.0,0.0,0.0,0.0,0.0,0.0,0.0,0.0,0.0,0.0,0.0,0.0,0.0,0.0,0.0,0.0,0.0,0.0,0.0,0.0,0.0,0.0,0.0,0.0,0.0,0.0,0.0,0.0,0.0,0.0,0.0,0.0,0.0,0.0,0.0,0.0,0.0,0.0,0.0,0.0,0.0,0.0,0.0,0.0,0.0,0.0,0.0,0.0,0.0,0.0,0.0,0.0,0.0,0.0,0.0,0.0,0.0,0.0,0.0,0.0,0.0,0.0,0.0,0.0,0.0,0.0,0.0,0.0,0.0,0.0,0.0,0.0,0.0,0.0,0.0,0.0,0.0,0.0,0.0,0.0,0.0,0.0,0.0,0.0,0.0,0.0,0.0,0.0,0.0,0.0,0.0,0.0,0.0,0.0,-0.8315,-0.7921,-0.815,-0.9152,-0.8391,-0.8289,0.0,0.0,0.0,0.0,0.0,0.0,0.0,0.0,0.0,0.0,0.0,0.0,0.0,0.0,0.0,0.0,0.0,0.0,0.0,0.0,0.0,0.0,0.0,0.0,0.0,0.0,0.0,0.0,0.0,0.0,0.0,0.0,0.0,0.0,0.0,0.0,0.0,0.0,0.0,0.0,0.0,0.0,0.0,0.0,0.0,0.0,0.0,0.0,0.0,0.0,0.0,0.0,0.0,0.0,0.0,0.0,0.0,0.0,0.0,0.0,0.0,0.0,0.0,0.0,0.0,0.0,0.0,0.0,0.0,0.0,0.0,0.0,0.0,0.0,0.0,0.0,0.0,0.0,0.0,0.0,0.0,0.0,0.0,0.0,0.0,0.0,0.0,0.0,0.0,0.0,0.0,0.0,0.0,0.0,0.0,0.0,0.0,0.0,0.0,0.0,0.0,0.0,0.0,0.0,0.0,0.0,0.0,0.0,0.0,-0.775,-0.7649,-0.8018,-0.8982,-0.8437,-0.8458,-0.902,0.0,0.0,0.0,0.0,0.0,0.0,0.0,0.0,0.0,0.0,0.0,0.0,0.0,0.0,0.0,0.0,0.0,0.0,0.0,0.0,0.0,0.0,0.0,0.0,0.0,0.0,0.0,0.0,0.0,0.0,0.0,0.0,0.0,0.0,0.0,0.0,0.0,0.0,0.0,0.0,0.0,0.0,0.0,0.0,0.0,0.0,0.0,0.0,0.0,0.0,0.0,0.0,0.0,0.0,0.0,0.0,0.0,0.0,0.0,0.0,0.0,0.0,0.0,0.0,0.0,0.0,0.0,0.0,0.0,0.0,0.0,0.0,0.0,0.0,0.0,0.0,0.0,0.0,0.0,0.0,0.0,0.0,0.0,0.0,0.0,0.0,0.0,0.0,0.0,0.0,0.0,0.0,0.0,0.0,0.0,0.0,0.0,0.0,0.0,0.0,0.0,0.0,0.0,0.0,0.0,0.0,0.0,0.0,-0.7074,-0.7826,-0.8092,-0.7928,-0.8515,-0.8588,0.0,0.0,0.0,0.0,0.0,0.0,0.0,0.0,0.0,0.0,0.0,0.0,0.0,0.0,0.0,0.0,0.0,0.0,0.0,0.0,0.0,0.0,0.0,0.0,0.0,0.0,0.0,0.0,0.0,0.0,0.0,0.0,0.0,0.0,0.0,0.0,0.0,0.0,0.0,0.0,0.0,0.0,0.0,0.0,0.0,0.0,0.0,0.0,0.0,0.0,0.0,0.0,0.0,0.0,0.0,0.0,0.0,0.0,0.0,0.0,0.0,0.0,0.0,0.0,0.0,0.0,0.0,0.0,0.0,0.0,0.0,0.0,0.0,0.0,0.0,0.0,0.0,0.0,0.0,0.0,0.0,0.0,0.0,0.0,0.0,0.0,0.0,0.0,0.0,0.0,0.0,0.0,0.0,0.0,0.0,0.0,0.0,0.0,0.0,0.0,0.0,0.0,0.0,0.0,0.0,0.0,0.0,0.0,0.0,-0.699,-0.7609,-0.8269,-0.8858,-0.7788,-0.7616,0.0,0.0,0.0,0.0,0.0,0.0,0.0,0.0,0.0,0.0,0.0,0.0,0.0,0.0,0.0,0.0,0.0,0.0,0.0,0.0,0.0,0.0,0.0,0.0,0.0,0.0,0.0,0.0,0.0,0.0,0.0,0.0,0.0,0.0,0.0,0.0,0.0,0.0,0.0,0.0,0.0,0.0,0.0,0.0,0.0,0.0,0.0,0.0,0.0,0.0,0.0,0.0,0.0,0.0,0.0,0.0,0.0,0.0,0.0,0.0,0.0,0.0,0.0,0.0,0.0,0.0,0.0,0.0,0.0,0.0,0.0,0.0,0.0,0.0,0.0,0.0,0.0,0.0,0.0,0.0,0.0,0.0,0.0,0.0,0.0,0.0,0.0,0.0,0.0,0.0,0.0,0.0,0.0,0.0,0.0,0.0,0.0,0.0,0.0,0.0,0.0,0.0,0.0,0.0,0.0,0.0,0.0,0.0,-0.6206,-0.6751,-0.742,-0.8138,-0.883,-0.8015,-0.7764,0.0,0.0,0.0,0.0,0.0,0.0,0.0,0.0,0.0,0.0,0.0,0.0,0.0,0.0,0.0,0.0,0.0,0.0,0.0,0.0,0.0,0.0,0.0,0.0,0.0,0.0,0.0,0.0,0.0,0.0,0.0,0.0,0.0,0.0,0.0,0.0,0.0,0.0,0.0,0.0,0.0,0.0,0.0,0.0,0.0,0.0,0.0,0.0,0.0,0.0,0.0,0.0,0.0,0.0,0.0,0.0,0.0,0.0,0.0,0.0,0.0,0.0,0.0,0.0,0.0,0.0,0.0,0.0,0.0,0.0,0.0,0.0,0.0,0.0,0.0,0.0,0.0,0.0,0.0,0.0,0.0,0.0,0.0,0.0,0.0,0.0,0.0,0.0,0.0,0.0,0.0,0.0,0.0,0.0,0.0,0.0,0.0,0.0,0.0,0.0,0.0,0.0,0.0,0.0,0.0,0.0,0.0,0.0,-0.5964,-0.6542,-0.714,-0.77,-0.8234,-0.8487,-0.8336,0.0,0.0,0.0,0.0,0.0,0.0,0.0,0.0,0.0,0.0,0.0,0.0,0.0,0.0,0.0,0.0,0.0,0.0,0.0,0.0,0.0,0.0,0.0,0.0,0.0,0.0,0.0,0.0,0.0,0.0,0.0,0.0,0.0,0.0,0.0,0.0,0.0,0.0,0.0,0.0,0.0,0.0,0.0,0.0,0.0,0.0,0.0,0.0,0.0,0.0,0.0,0.0,0.0,0.0,0.0,0.0,0.0,0.0,0.0,0.0,0.0,0.0,0.0,0.0,0.0,0.0,0.0,0.0,0.0,0.0,0.0,0.0,0.0,0.0,0.0,0.0,0.0,0.0,0.0,0.0,0.0,0.0,0.0,0.0,0.0,0.0,0.0,0.0,0.0,0.0,0.0,0.0,0.0,0.0,0.0,0.0,0.0,0.0,0.0,0.0,0.0,0.0,0.0,0.0,0.0,0.0,0.0,0.0,-0.6285,-0.6371,-0.6954,-0.7441,-0.7873,-0.7293,-0.7006,0.0,0.0,0.0,0.0,0.0,0.0,0.0,0.0,0.0,0.0,0.0,0.0,0.0,0.0,0.0,0.0,0.0,0.0,0.0,0.0,0.0,0.0,0.0,0.0,0.0,0.0,0.0,0.0,0.0,0.0,0.0,0.0,0.0,0.0,0.0,0.0,0.0,0.0,0.0,0.0,0.0,0.0,0.0,0.0,0.0,0.0,0.0,0.0,-0.7398,0.0,0.0,0.0,0.0,0.0,0.0,0.0,0.0,0.0,0.0,0.0,0.0,0.0,0.0,0.0,0.0,0.0,0.0,0.0,0.0,0.0,0.0,0.0,0.0,0.0,0.0,0.0,0.0,0.0,0.0,0.0,0.0,0.0,0.0,0.0,0.0,0.0,0.0,0.0,0.0,0.0,0.0,0.0,0.0,0.0,0.0,0.0,0.0,0.0,0.0,0.0,0.0,0.0,0.0,0.0,0.0,0.0,0.0,0.0,-0.6249,-0.638,-0.6824,-0.7144,-0.7428,-0.6763,-0.6591,0.0,0.0,0.0,0.0,0.0,0.0,0.0,0.0,0.0,0.0,0.0,0.0,0.0,0.0,0.0,0.0,0.0,0.0,0.0,0.0,0.0,0.0,0.0,0.0,0.0,0.0,0.0,0.0,0.0,0.0,0.0,0.0,0.0,0.0,0.0,0.0,0.0,0.0,0.0,0.0,0.0,0.0,0.0,0.0,0.0,0.0,0.0,0.0,0.0,0.0,0.0,0.0,0.0,0.0,0.0,0.0,0.0,0.0,0.0,0.0,0.0,0.0,0.0,0.0,0.0,0.0,0.0,0.0,0.0,0.0,0.0,0.0,0.0,0.0,0.0,0.0,0.0,0.0,0.0,0.0,0.0,0.0,0.0,0.0,0.0,0.0,0.0,0.0,0.0,0.0,0.0,0.0,0.0,0.0,0.0,0.0,0.0,0.0,0.0,0.0,0.0,0.0,0.0,0.0,0.0,0.0,0.0,-0.5592,-0.6049,-0.645,-0.6746,-0.6911,-0.6946,-0.6577,-0.6473,-0.6722,0.0,0.0,0.0,0.0,0.0,0.0,0.0,0.0,0.0,0.0,0.0,0.0,0.0,0.0,0.0,0.0,0.0,0.0,0.0,0.0,0.0,0.0,0.0,0.0,0.0,0.0,0.0,0.0,0.0,0.0,0.0,0.0,0.0,0.0,0.0,0.0,0.0,0.0,-0.7176,-0.7183,0.0,0.0,0.0,0.0,0.0,0.0,0.0,0.0,-0.6672,0.0,0.0,0.0,0.0,0.0,0.0,0.0,0.0,0.0,0.0,0.0,0.0,0.0,0.0,0.0,0.0,0.0,0.0,0.0,0.0,0.0,0.0,0.0,0.0,0.0,0.0,0.0,0.0,0.0,0.0,0.0,0.0,0.0,0.0,0.0,0.0,0.0,0.0,0.0,0.0,0.0,0.0,0.0,0.0,0.0,0.0,0.0,0.0,0.0,0.0,0.0,0.0,0.0,0.0,0.0,0.0,-0.5087,-0.5618,-0.6003,-0.6266,-0.6597,-0.6764,-0.6741,-0.6378,-0.6123,-0.5982,0.0,0.0,0.0,0.0,0.0,0.0,0.0,0.0,0.0,0.0,0.0,0.0,0.0,0.0,0.0,0.0,0.0,0.0,0.0,0.0,0.0,0.0,0.0,0.0,0.0,0.0,0.0,0.0,0.0,0.0,0.0,0.0,0.0,0.0,0.0,0.0,0.0,0.0,0.0,-0.6219,-0.6119,0.0,0.0,0.0,0.0,0.0,0.0,0.0,0.0,-0.6773,0.0,0.0,0.0,0.0,0.0,0.0,0.0,0.0,0.0,0.0,0.0,0.0,0.0,0.0,0.0,0.0,0.0,0.0,0.0,0.0,0.0,0.0,0.0,0.0,0.0,0.0,0.0,0.0,0.0,0.0,0.0,0.0,0.0,0.0,0.0,0.0,0.0,0.0,0.0,0.0,0.0,0.0,0.0,0.0,0.0,0.0,0.0,0.0,0.0,0.0,0.0,0.0,0.0,0.0,0.0,-0.508,-0.5605,-0.5927,-0.6072,-0.633,-0.6379,-0.6266,-0.5909,-0.5693,0.0,0.0,0.0,0.0,0.0,0.0,0.0,0.0,0.0,0.0,0.0,0.0,0.0,0.0,0.0,0.0,0.0,0.0,0.0,0.0,0.0,0.0,0.0,0.0,0.0,0.0,0.0,0.0,0.0,0.0,0.0,0.0,0.0,0.0,0.0,0.0,0.0,0.0,0.0,0.0,-0.6198,-0.6055,-0.5656,0.0,0.0,0.0,0.0,0.0,0.0,-0.6544,-0.672,0.0,0.0,0.0,0.0,0.0,0.0,0.0,0.0,0.0,0.0,0.0,0.0,0.0,0.0,0.0,0.0,0.0,0.0,0.0,0.0,0.0,0.0,0.0,0.0,0.0,0.0,0.0,0.0,0.0,0.0,0.0,0.0,0.0,0.0,0.0,0.0,0.0,0.0,0.0,0.0,0.0,0.0,0.0,0.0,0.0,0.0,0.0,0.0,0.0,0.0,0.0,0.0,0.0,0.0,0.0,-0.5088,-0.5567,-0.5773,-0.5827,-0.6063,-0.601,-0.5835,-0.5523,-0.5352,0.0,0.0,0.0,0.0,0.0,0.0,0.0,0.0,0.0,0.0,0.0,0.0,0.0,0.0,0.0,0.0,0.0,0.0,0.0,0.0,0.0,0.0,0.0,0.0,0.0,0.0,0.0,0.0,0.0,0.0,0.0,0.0,0.0,0.0,0.0,0.0,0.0,0.0,0.0,0.0,0.0,-0.6123,-0.5679,-0.5618,0.0,0.0,0.0,0.0,-0.6124,-0.6455,0.0,0.0,0.0,0.0,0.0,0.0,0.0,0.0,0.0,0.0,0.0,0.0,0.0,0.0,0.0,0.0,0.0,0.0,0.0,0.0,0.0,0.0,0.0,0.0,0.0,0.0,0.0,0.0,0.0,0.0,0.0,0.0,0.0,0.0,0.0,0.0,0.0,0.0,0.0,0.0,0.0,0.0,0.0,0.0,0.0,0.0,0.0,0.0,0.0,0.0,0.0,0.0,0.0,0.0,0.0,0.0,-0.5088,-0.5279,-0.547,-0.564,-0.5819,-0.5827,-0.5649,-0.5398,-0.5301,0.0,0.0,0.0,0.0,0.0,0.0,0.0,0.0,0.0,0.0,0.0,0.0,0.0,0.0,0.0,0.0,0.0,0.0,0.0,0.0,0.0,0.0,0.0,0.0,0.0,0.0,0.0,0.0,0.0,0.0,0.0,0.0,0.0,0.0,0.0,0.0,0.0,0.0,0.0,0.0,0.0,-0.5912,-0.5545,-0.5754,-0.5603,0.0,0.0,0.0,-0.5392,-0.5897,0.0,0.0,0.0,0.0,0.0,0.0,0.0,0.0,0.0,0.0,0.0,0.0,0.0,0.0,0.0,0.0,0.0,0.0,0.0,0.0,0.0,0.0,0.0,0.0,0.0,0.0,0.0,0.0,0.0,0.0,0.0,0.0,0.0,0.0,0.0,0.0,0.0,0.0,0.0,0.0,0.0,0.0,0.0,0.0,0.0,0.0,0.0,0.0,0.0,0.0,0.0,0.0,0.0,0.0,0.0,-0.5292,-0.5185,-0.5294,-0.5417,-0.5608,-0.5689,-0.5596,-0.5316,-0.5133,-0.5043,0.0,0.0,0.0,0.0,0.0,0.0,0.0,0.0,0.0,0.0,0.0,0.0,0.0,0.0,0.0,0.0,0.0,0.0,0.0,0.0,0.0,0.0,0.0,0.0,0.0,0.0,0.0,0.0,0.0,0.0,0.0,0.0,0.0,0.0,0.0,0.0,0.0,0.0,0.0,0.0,0.0,0.0,-0.5251,-0.5037,0.0,0.0,0.0,-0.5144,-0.4879,0.0,0.0,0.0,0.0,0.0,0.0,0.0,0.0,0.0,0.0,0.0,0.0,0.0,0.0,0.0,0.0,0.0,0.0,0.0,0.0,0.0,0.0,0.0,0.0,0.0,0.0,0.0,0.0,0.0,0.0,0.0,0.0,0.0,0.0,0.0,0.0,0.0,0.0,0.0,0.0,0.0,0.0,0.0,0.0,0.0,0.0,0.0,0.0,0.0,0.0,0.0,0.0,0.0,0.0,0.0,0.0,0.0,-0.5301,-0.5309,-0.5372,-0.5547,-0.5543,-0.5421,-0.5157,-0.4926,0.0,0.0,0.0,0.0,0.0,0.0,0.0,0.0,0.0,0.0,0.0,0.0,0.0,0.0,0.0,0.0,0.0,0.0,0.0,0.0,0.0,0.0,0.0,0.0,0.0,0.0,0.0,-0.4994,0.0,0.0,0.0,0.0,0.0,0.0,0.0,0.0,0.0,0.0,0.0,0.0,0.0,0.0,-0.4883,-0.4916,-0.4509,-0.4124,0.0,0.0,-0.4478,-0.4489,-0.4884,-0.5162,0.0,0.0,0.0,0.0,0.0,0.0,0.0,0.0,0.0,0.0,0.0,0.0,0.0,0.0,0.0,0.0,0.0,0.0,0.0,0.0,0.0,0.0,0.0,0.0,0.0,0.0,0.0,0.0,0.0,0.0,0.0,0.0,0.0,0.0,0.0,0.0,0.0,0.0,0.0,0.0,0.0,0.0,0.0,0.0,0.0,0.0,0.0,0.0,0.0,0.0,0.0,0.0,0.0,0.0,0.0,-0.5301,-0.5313,-0.5262,-0.5317,-0.5313,-0.5305,-0.5273,-0.4991,-0.4962,0.0,0.0,0.0,0.0,0.0,0.0,0.0,0.0,0.0,0.0,0.0,0.0,0.0,0.0,0.0,0.0,0.0,0.0,0.0,0.0,0.0,0.0,0.0,0.0,0.0,0.0,0.0,0.0,0.0,0.0,0.0,0.0,0.0,0.0,0.0,0.0,0.0,0.0,0.0,0.0,0.0,-0.4873,-0.4424,-0.4518,-0.4264,0.0,0.0,-0.4596,-0.4284,-0.4734,-0.5263,-0.5733,0.0,0.0,0.0,0.0,0.0,0.0,0.0,0.0,0.0,0.0,0.0,0.0,0.0,0.0,0.0,0.0,0.0,0.0,0.0,0.0,0.0,0.0,0.0,0.0,0.0,0.0,0.0,0.0,0.0,0.0,0.0,0.0,0.0,0.0,0.0,0.0,0.0,0.0,0.0,0.0,0.0,0.0,0.0,0.0,0.0,0.0,0.0,0.0,0.0,0.0,0.0,0.0,0.0,-0.5309,-0.5301,-0.4629,-0.4574,-0.5242,-0.4963,-0.4703,-0.4451,-0.468,-0.4469,0.0,0.0,0.0,0.0,0.0,0.0,0.0,0.0,0.0,0.0,0.0,0.0,0.0,0.0,0.0,0.0,0.0,0.0,0.0,0.0,0.0,0.0,0.0,0.0,0.0,0.0,0.0,0.0,-0.398,-0.3795,-0.3906,0.0,0.0,0.0,0.0,0.0,0.0,0.0,0.0,0.0,0.0,-0.3969,-0.401,-0.3837,0.0,0.0,-0.3432,-0.3724,-0.3574,-0.3852,-0.412,-0.4442,-0.4628,0.0,0.0,0.0,0.0,0.0,0.0,0.0,0.0,0.0,0.0,0.0,0.0,0.0,0.0,0.0,0.0,0.0,0.0,0.0,0.0,0.0,0.0,0.0,0.0,0.0,0.0,0.0,0.0,0.0,0.0,0.0,0.0,0.0,0.0,0.0,0.0,0.0,0.0,0.0,0.0,0.0,0.0,0.0,0.0,0.0,0.0,0.0,0.0,0.0,0.0,0.0,0.0,-0.5227,-0.5091,-0.4092,-0.4018,-0.4798,-0.4405,-0.4069,-0.3786,-0.4131,-0.3926,0.0,0.0,0.0,0.0,0.0,0.0,0.0,0.0,0.0,0.0,0.0,0.0,0.0,0.0,0.0,0.0,0.0,0.0,0.0,0.0,0.0,0.0,0.0,0.0,0.0,0.0,0.0,0.0,-0.3681,-0.3477,-0.3643,0.0,0.0,0.0,0.0,0.0,0.0,0.0,0.0,0.0,0.0,-0.3438,-0.372,-0.3416,-0.3135,-0.3136,-0.324,-0.3368,-0.3503,-0.3631,-0.377,-0.3881,0.0,0.0,0.0,0.0,0.0,0.0,0.0,0.0,0.0,0.0,0.0,0.0,0.0,0.0,0.0,0.0,0.0,0.0,0.0,0.0,0.0,0.0,0.0,0.0,0.0,0.0,0.0,0.0,0.0,0.0,0.0,0.0,0.0,0.0,0.0,0.0,0.0,0.0,0.0,0.0,0.0,0.0,0.0,0.0,0.0,0.0,0.0,0.0,0.0,0.0,0.0,0.0,0.0,0.0,-0.4725,-0.3961,-0.3622,-0.368,-0.3624,-0.3561,-0.3489,-0.3387,-0.3387,-0.3484,0.0,0.0,0.0,0.0,0.0,0.0,0.0,0.0,0.0,0.0,0.0,0.0,0.0,0.0,0.0,0.0,0.0,0.0,0.0,0.0,0.0,0.0,0.0,0.0,0.0,0.0,-0.4088,-0.3427,-0.2957,0.0,0.0,0.0,0.0,0.0,0.0,0.0,0.0,0.0,0.0,-0.3684,-0.3553,-0.3439,-0.3391,-0.3407,-0.3418,-0.3574,-0.3826,-0.4082,-0.4305,-0.4501,0.0,0.0,0.0,0.0,0.0,0.0,0.0,0.0,0.0,0.0,0.0,0.0,0.0,0.0,0.0,0.0,0.0,0.0,0.0,0.0,0.0,0.0,0.0,0.0,0.0,0.0,0.0,0.0,-0.6574,0.0,0.0,0.0,0.0,0.0,0.0,0.0,0.0,0.0,0.0,0.0,-0.2025,-0.1986,0.0,0.0,0.0,0.0,0.0,0.0,0.0,0.0,0.0,0.0,0.0,0.0,-0.5354,-0.466,-0.3111,-0.2703,-0.35,-0.3114,-0.2852,-0.2817,-0.3074,-0.3265,-0.3342,0.0,0.0,0.0,0.0,0.0,0.0,0.0,0.0,0.0,0.0,0.0,0.0,0.0,0.0,0.0,0.0,0.0,0.0,0.0,0.0,0.0,0.0,0.0,0.0,0.0,-0.3682,0.0,0.0,0.0,0.0,0.0,0.0,0.0,0.0,0.0,0.0,0.0,-0.3968,-0.3691,-0.3533,-0.3456,-0.3562,-0.3451,-0.345,0.0,0.0,0.0,0.0,0.0,0.0,0.0,0.0,0.0,0.0,0.0,0.0,0.0,0.0,-0.5154,-0.5049,-0.4897,-0.4736,-0.4791,0.0,0.0,0.0,0.0,0.0,0.0,0.0,0.0,0.0,0.0,0.0,0.0,0.0,0.0,0.0,0.0,-0.5463,0.0,0.0,0.0,0.0,0.0,0.0,0.0,0.0,-0.2308,-0.2049,-0.2017,-0.2047,-0.2114,0.0,-0.2113,-0.2332,0.0,0.0,0.0,0.0,0.0,0.0,0.0,0.0,-0.5308,-0.4088,-0.2535,-0.2126,-0.2814,-0.2473,-0.2212,-0.213,-0.2451,-0.2664,-0.2762,-0.269,-0.279,0.0,0.0,0.0,0.0,0.0,0.0,0.0,0.0,0.0,0.0,0.0,0.0,0.0,0.0,0.0,0.0,0.0,0.0,0.0,0.0,0.0,0.0,0.0,-0.3365,0.0,0.0,0.0,0.0,0.0,0.0,0.0,0.0,0.0,-0.3585,-0.3585,-0.3585,-0.3585,-0.3566,-0.3568,-0.3678,0.0,0.0,0.0,0.0,0.0,0.0,0.0,-0.4426,-0.4634,-0.4588,-0.4618,-0.4776,-0.4793,-0.4793,-0.4857,0.0,0.0,-0.4657,-0.4579,-0.4558,-0.4609,-0.4635,-0.4615,-0.4613,-0.4508,-0.4454,0.0,0.0,0.0,0.0,0.0,0.0,0.0,0.0,-0.5467,-0.3733,0.0,-0.3764,0.0,0.0,0.0,0.0,0.0,0.0,0.0,0.0,-0.2237,-0.2165,-0.2032,-0.2235,-0.2299,-0.2299,-0.2227,-0.2223,-0.2213,-0.1856,0.0,0.0,0.0,0.0,0.0,0.0,-0.4903,-0.306,-0.2347,-0.1881,-0.1717,-0.1763,-0.1708,-0.1544,-0.159,-0.1647,-0.176,-0.2309,-0.2695,-0.2819,-0.3938,0.0,0.0,0.0,0.0,0.0,0.0,0.0,0.0,0.0,0.0,0.0,0.0,0.0,0.0,0.0,0.0,0.0,0.0,0.0,0.0,-0.3585,0.0,0.0,0.0,0.0,0.0,0.0,0.0,0.0,0.0,0.0,-0.3596,-0.3585,-0.3585,-0.3646,0.0,0.0,0.0,0.0,-0.4303,-0.4493,-0.4636,-0.4748,-0.4891,-0.4914,-0.4918,-0.4925,0.0,0.0,-0.4745,-0.4809,-0.4942,-0.4935,-0.4948,-0.4931,-0.4935,-0.4802,-0.4745,-0.4874,-0.4789,-0.4752,-0.4874,-0.4887,-0.4833,-0.6374,0.0,0.0,0.0,0.0,-0.6652,-0.6623,-0.6446,-0.5725,-0.4215,-0.2305,-0.2795,0.0,0.0,0.0,0.0,0.0,0.0,-0.3231,-0.3076,-0.2537,-0.2257,-0.2256,-0.2364,-0.2416,-0.2414,-0.2258,-0.2219,-0.2213,-0.1949,-0.2421,-0.3721,0.0,0.0,0.0,0.0,-0.3772,-0.2972,-0.2319,-0.1845,-0.1773,-0.1745,-0.1708,-0.1655,-0.167,-0.1708,-0.1768,-0.1953,-0.2286,-0.2699,-0.3164,0.0,0.0,0.0,0.0,0.0,0.0,0.0,0.0,0.0,0.0,0.0,0.0,0.0,0.0,0.0,0.0,0.0,0.0,0.0,-0.3585,-0.3585,-0.3531,0.0,0.0,0.0,0.0,0.0,0.0,0.0,0.0,0.0,-0.3751,-0.3741,-0.3778,0.0,0.0,-0.4035,-0.4398,-0.4403,-0.4503,-0.4773,0.0,0.0,0.0,-0.4918,-0.4952,-0.5053,-0.5095,-0.5168,-0.5168,-0.5233,-0.5233,-0.5298,-0.5237,-0.5237,-0.5223,-0.5023,-0.4884,-0.4908,-0.488,-0.4863,-0.4904,-0.4918,-0.4857,-0.6358,-0.6631,-0.6383,-0.6244,-0.6124,-0.6283,-0.6075,-0.5707,-0.5583,-0.4496,-0.2877,-0.2609,-0.3077,-0.412,-0.4324,0.0,0.0,0.0,-0.3341,-0.3113,-0.2608,-0.2387,-0.2464,-0.2508,-0.2557,-0.2529,-0.2358,-0.2315,-0.2312,-0.2078,-0.2255,-0.2835,0.0,0.0,-0.3724,-0.3605,-0.3179,-0.2649,-0.2204,-0.1974,-0.1832,-0.1749,-0.1718,-0.1741,-0.1719,-0.1736,-0.1794,-0.1797,-0.1964,-0.235,-0.2627,-0.2903,0.0,0.0,0.0,0.0,0.0,0.0,0.0,0.0,0.0,0.0,0.0,-0.3585,0.0,0.0,0.0,0.0,-0.3585,-0.3545,-0.3449,-0.3528,0.0,0.0,0.0,0.0,0.0,0.0,0.0,-0.3482,-0.3635,-0.3792,-0.3862,-0.4022,-0.4152,-0.4118,-0.4173,-0.4361,-0.4645,0.0,-0.4713,-0.4921,-0.5003,-0.5023,-0.5084,-0.5094,-0.5125,-0.5206,-0.5298,-0.5359,-0.5292,-0.5292,-0.5226,-0.516,-0.516,-0.5163,-0.5163,-0.4974,-0.4843,-0.5081,-0.4984,-0.4902,-0.4951,-0.4902,-0.4775,-0.6407,-0.6268,-0.5939,-0.5722,-0.551,-0.5515,-0.5537,-0.542,-0.5234,-0.4699,-0.388,-0.2918,-0.298,-0.375,-0.4234,0.0,0.0,-0.3557,-0.3207,-0.2628,-0.2542,-0.2625,-0.2712,-0.2697,-0.266,-0.2523,-0.2458,-0.2426,-0.2424,-0.2368,-0.2342,-0.2337,-0.2636,-0.2914,-0.3037,-0.3288,-0.2923,-0.2043,-0.2165,-0.2076,-0.1896,-0.1781,-0.1748,-0.1801,-0.1745,-0.174,-0.1793,-0.1797,-0.1797,-0.1797,-0.2352,-0.2516,-0.2235,0.0,0.0,0.0,0.0,0.0,0.0,0.0,0.0,0.0,0.0,0.0,0.0,0.0,0.0,0.0,-0.3585,0.0,-0.327,-0.3449,0.0,0.0,0.0,-0.3585,-0.3585,-0.3593,-0.3599,-0.3599,0.0,0.0,0.0,0.0,-0.4568,-0.4273,-0.4504,-0.4735,-0.4748,-0.486,-0.491,-0.5125,-0.5135,-0.5182,-0.5304,-0.5338,-0.5338,-0.5411,-0.5428,-0.5359,-0.5156,-0.5153,-0.5024,-0.4964,-0.4831,-0.4897,-0.4827,-0.4776,-0.4733,-0.5252,-0.5104,-0.4919,-0.5013,-0.4926,-0.4794,-0.683,-0.6529,-0.6445,-0.6233,-0.5969,-0.6059,-0.6029,-0.5918,-0.5982,-0.5397,-0.4153,-0.318,-0.2795,-0.2864,-0.2994,-0.304,-0.2972,-0.2972,-0.2947,-0.2867,-0.2828,-0.2832,-0.2865,-0.2648,-0.2496,-0.2477,-0.246,-0.2489,-0.2485,-0.2429,-0.2399,-0.2392,-0.2407,-0.2382,-0.2398,-0.2411,-0.2312,-0.2106,-0.2166,-0.2161,-0.202,-0.1902,-0.1846,-0.186,-0.1805,-0.1782,-0.1797,-0.1797,-0.1797,-0.1797,-0.1964,-0.1964,-0.1908,-0.2595,0.0,0.0,0.0,0.0,0.0,0.0,0.0,0.0,0.0,-0.3585,-0.3585,0.0,-0.3585,0.0,-0.3585,-0.3561,-0.3504,-0.355,0.0,0.0,-0.355,-0.3585,-0.3585,-0.3716,-0.3771,-0.3889,-0.394,-0.3992,-0.4275,-0.4499,-0.4617,-0.4646,-0.4747,-0.4894,-0.4991,-0.4924,-0.5016,-0.5233,-0.5199,-0.5186,-0.5328,-0.5428,-0.5428,-0.5428,-0.5428,-0.5359,-0.5292,-0.5359,-0.5292,-0.5296,-0.5229,-0.5226,-0.5024,-0.4915,-0.488,-0.492,-0.4786,-0.4696,-0.4733,-0.4754,-0.4704,-0.706,-0.6771,-0.6665,-0.6505,-0.6325,-0.6339,-0.6306,-0.6241,-0.6384,-0.5965,-0.5134,-0.3857,-0.3266,-0.3151,-0.2976,-0.2837,-0.2898,-0.2873,-0.2897,-0.2954,-0.299,-0.2966,-0.2877,-0.2779,-0.2633,-0.2604,-0.2595,-0.255,-0.2548,-0.2489,-0.2459,-0.2458,-0.2368,-0.2307,-0.227,-0.2161,-0.2116,-0.2144,-0.2217,-0.2204,-0.2168,-0.2011,-0.1962,-0.1959,-0.1879,-0.1834,-0.1834,-0.1811,-0.1808,-0.1832,-0.1835,-0.1835,-0.1834,-0.2284,-0.2495,0.0,0.0,0.0,0.0,0.0,0.0,0.0,0.0,0.0,0.0,0.0,-0.3585,0.0,-0.3585,0.0,-0.3585,-0.3585,-0.3604,-0.3653,-0.3615,-0.3658,-0.371,-0.367,-0.3735,-0.3795,-0.3952,-0.4148,-0.4406,-0.4638,-0.4844,-0.4931,-0.5047,-0.5114,-0.5118,-0.506,-0.5077,-0.5226,-0.5186,-0.5182,-0.5404,-0.5428,-0.5428,-0.5428,-0.5428,-0.5359,-0.5292,-0.5292,-0.5226,-0.516,-0.5096,-0.5093,-0.4885,-0.4847,-0.4724,-0.4502,-0.444,-0.4445,-0.4492,-0.4496,-0.4414,-0.7108,-0.6967,-0.6755,-0.6646,-0.6611,-0.6505,-0.645,-0.6431,-0.6432,-0.6385,-0.6276,-0.4803,-0.4003,-0.3917,-0.3442,-0.3155,-0.3057,-0.3091,-0.3061,-0.3059,-0.3093,-0.304,-0.2905,-0.2897,-0.2865,-0.2725,-0.2666,-0.2628,-0.2612,-0.2559,-0.2526,-0.2508,-0.245,-0.2424,-0.2422,-0.2262,-0.2196,-0.2232,-0.2188,-0.2234,-0.2164,-0.2106,-0.214,-0.2134,-0.1948,-0.188,-0.1879,-0.1827,-0.182,-0.1867,-0.1871,-0.1869,-0.1926,-0.2158,-0.2443,0.0,-0.2961,0.0,0.0,0.0,0.0,0.0,0.0,0.0,0.0,-0.3585,-0.3585,-0.3585,-0.3596,-0.3602,-0.3585,-0.361,-0.3656,-0.3779,-0.3729,-0.3721,-0.3798,-0.3691,-0.3653,-0.371,-0.4028,-0.4294,-0.4497,-0.4874,-0.5035,-0.508,-0.5274,-0.5281,-0.5165,-0.5125,-0.5131,-0.5148,-0.5159,-0.5226,-0.5397,-0.5428,-0.5428,-0.5428,-0.5428,-0.5359,-0.5223,-0.5153,-0.5093,-0.4964,-0.4964,-0.4831,-0.4691,-0.4652,-0.4504,-0.4315,-0.4222,-0.4229,-0.4313,-0.4218,-0.4056,-0.7067,-0.698,-0.6937,-0.6801,-0.6616,-0.6594,-0.6529,-0.6434,-0.6412,-0.6457,-0.6374,-0.5482,-0.4614,-0.3896,-0.3801,-0.3511,-0.312,-0.3059,-0.3127,-0.3123,-0.297,-0.2962,-0.3088,-0.304,-0.3011,-0.2995,-0.2939,-0.2771,-0.2676,-0.2664,-0.2608,-0.251,-0.245,-0.2444,0.0,0.0,0.0,0.0,-0.2279,-0.2228,-0.2226,-0.2169,-0.2203,-0.2199,-0.2032,0.0,-0.1879,-0.1827,-0.1801,-0.1812,-0.1813,0.0,0.0,0.0,0.0,0.0,0.0,0.0,0.0,0.0,0.0,0.0,-0.3727,-0.374,-0.3593,-0.3585,-0.3585,-0.3588,-0.3727,-0.374,-0.3593,-0.3757,-0.38,-0.3642,-0.3767,-0.3838,-0.3831,-0.3903,-0.408,-0.421,-0.4274,-0.4424,-0.4677,-0.4803,-0.4948,-0.5114,-0.5272,-0.5294,-0.5159,-0.5075,-0.5176,-0.5287,-0.5298,-0.5387,-0.5422,-0.5428,-0.5428,-0.5428,-0.5428,-0.5359,-0.5359,-0.5359,-0.5359,-0.5292,-0.5296,-0.5226,-0.502,-0.4912,-0.4756,-0.4559,-0.4332,-0.4131,-0.4027,-0.3969,-0.3933,-0.7173,0.0,-0.6942,-0.6823,0.0,-0.6581,-0.6491,-0.6437,-0.6437,-0.6407,-0.6355,-0.6005,-0.5321,-0.4369,-0.4074,-0.3679,-0.3183,-0.3121,-0.3094,-0.3091,-0.2935,-0.2925,-0.3144,-0.3112,-0.3096,-0.3095,-0.3035,-0.2884,-0.2824,-0.2796,-0.2736,-0.2646,-0.2585,-0.2555,-0.2552,-0.2436,-0.2317,-0.2199,-0.2199,-0.2199,-0.2199,-0.2169,-0.2221,-0.2217,0.0,0.0,0.0,0.0,0.0,0.0,0.0,0.0,0.0,0.0,0.0,-0.2874,-0.3355,-0.3694,-0.3751,-0.3757,-0.3757,-0.3757,-0.3811,-0.3819,-0.3759,-0.3757,-0.3757,-0.3759,-0.3811,-0.3819,-0.377,-0.3865,-0.3851,-0.3857,-0.3901,-0.3928,-0.3941,-0.3985,-0.4028,-0.4102,-0.4199,-0.4341,-0.4665,-0.4794,-0.496,-0.5223,-0.5359,-0.5397,-0.5254,-0.5179,-0.5165,-0.5237,-0.5321,-0.5428,-0.5428,-0.5428,-0.5428,-0.5428,-0.5428,-0.5428,-0.5428,-0.5428,-0.5428,-0.5428,-0.5428,-0.5359,-0.5147,-0.5042,-0.4877,-0.4668,-0.4464,-0.43,-0.4154,-0.4008,-0.3811,-0.7244,-0.7138,-0.6948,-0.6842,-0.6785,-0.6586,-0.6475,-0.6437,0.0,0.0,0.0,-0.6442,-0.5844,-0.4935,-0.4332,-0.3825,-0.331,-0.3162,-0.3134,-0.3121,-0.2987,-0.2968,-0.3065,-0.3172,-0.3171,-0.3158,-0.3119,-0.2989,-0.2958,-0.2922,-0.2868,-0.2801,-0.2748,-0.2694,-0.2628,-0.2501,-0.2394,-0.2308,-0.2228,-0.218,-0.2172,-0.217,-0.2169,-0.217,-0.2166,-0.2102,-0.1989,-0.1929,-0.1896,-0.1896,-0.1898,-0.1921,-0.2029,-0.2523,-0.2875,-0.3003,-0.3543,-0.3827,-0.3925,-0.3933,-0.3883,-0.3966,-0.3966,-0.3958,-0.3878,-0.3933,-0.3933,-0.3933,-0.3894,-0.3896,-0.3878,-0.3977,-0.402,-0.408,-0.4034,-0.4037,-0.4099,-0.4053,-0.4018,-0.4009,-0.4099,-0.4277,-0.4613,-0.4763,-0.4964,-0.5296,-0.5428,-0.5428,-0.5348,-0.5257,-0.5189,-0.5209,-0.5301,-0.5428,-0.5428,-0.5428,-0.5428,-0.5428,-0.5428,-0.5428,-0.5428,-0.5428,-0.5428,-0.5428,-0.5428,-0.5359,-0.5216,-0.513,-0.5028,-0.4725,-0.4601,-0.4507,-0.4377,-0.4027,-0.3762,-0.7171,-0.7152,-0.7119,-0.6989,-0.6798,-0.6766,-0.663,-0.6439,-0.6437,-0.6437,-0.6437,-0.6437,-0.6037,-0.5434,-0.4935,-0.4395,-0.3741,-0.3339,-0.3112,0.0,-0.3106,-0.3127,-0.3129,-0.318,-0.3177,-0.3132,-0.3169,-0.311,-0.2978,-0.3003,-0.3063,-0.2872,-0.2853,-0.2816,-0.2748,-0.2585,-0.2515,-0.2546,-0.2316,-0.2214,-0.2163,-0.2232,-0.2163,-0.2228,-0.2121,-0.2124,-0.2113,-0.2054,-0.1959,-0.1961,-0.1958,-0.1963,-0.2032,-0.2635,-0.3001,-0.3013,-0.3554,-0.3856,-0.3933,-0.3933,-0.3918,-0.4077,-0.4094,-0.405,-0.3944,-0.3933,-0.3933,-0.3878,-0.4031,-0.4047,-0.3904,-0.4121,-0.4164,-0.3955,-0.4134,-0.4219,-0.4137,-0.4191,-0.4232,-0.423,-0.4389,-0.4593,-0.4725,-0.4942,-0.509,-0.5359,-0.5428,-0.5428,-0.5425,-0.5345,-0.5394,-0.5397,-0.5411,-0.5428,-0.5428,-0.5428,-0.5428,-0.5428,-0.5428,-0.5428,-0.5428,-0.5428,-0.5428,-0.5428,-0.5428,-0.5362,-0.5359,-0.5348,-0.5223,-0.4918,-0.4793,-0.4568,-0.4352,-0.4047,-0.3866,-0.7214,-0.7149,-0.7089,-0.6961,-0.6793,-0.666,-0.654,-0.6439,-0.6426,-0.6429,-0.6534,-0.7344,-0.6942,-0.5636,-0.5834,-0.5309,-0.4377,-0.4178,-0.3862,-0.3541,-0.3272,-0.3185,-0.3191,-0.3218,-0.3199,-0.3146,-0.3202,-0.3154,-0.3023,-0.3068,-0.3037,-0.2922,-0.2857,-0.2811,-0.2775,-0.2717,-0.2559,-0.2549,-0.2303,-0.2217,-0.2293,-0.2229,-0.2195,-0.2194,-0.2139,-0.2162,-0.2128,-0.21,-0.2068,-0.2034,-0.2033,-0.211,-0.2336,-0.2735,-0.3121,-0.3409,-0.3816,-0.4064,-0.4132,-0.4132,-0.4156,-0.4213,-0.4219,-0.4194,-0.414,-0.4134,-0.4132,-0.4134,-0.4189,-0.4194,-0.414,-0.4235,-0.4254,-0.4145,-0.4238,-0.4276,-0.4235,-0.4259,-0.4364,-0.4428,-0.4561,-0.4691,-0.4891,-0.5024,-0.5156,-0.5359,-0.5428,-0.5428,-0.5428,-0.5428,-0.5428,-0.5428,-0.5428,-0.5428,-0.5428,-0.5428,-0.5428,-0.5428,-0.5428,-0.5428,-0.5428,-0.5428,-0.5428,-0.5428,-0.5428,-0.5428,-0.5425,-0.5291,-0.5213,-0.5192,-0.4931,-0.4654,-0.4529,-0.4307,-0.3983,-0.7239,-0.7146,-0.7059,-0.694,-0.6785,-0.6468,-0.6361,-0.6434,-0.6423,-0.6828,-0.755,-0.8453,-0.7846,-0.6434,-0.6731,-0.6232,-0.5334,-0.4933,-0.4634,-0.4332,-0.3524,-0.3224,-0.3226,-0.3228,-0.3196,-0.3153,-0.3202,-0.3174,-0.3086,-0.3131,-0.3113,-0.3016,-0.2916,-0.2862,-0.2861,-0.2814,-0.2728,-0.2601,-0.2409,-0.2315,-0.2257,-0.223,-0.2174,-0.2174,-0.2228,-0.2197,-0.2152,-0.2148,-0.2127,-0.2016,-0.2076,-0.2226,-0.2598,-0.2866,-0.3268,-0.373,-0.4012,-0.42,-0.4289,-0.4303,-0.4303,-0.4303,-0.4303,-0.4303,-0.4303,-0.4325,-0.4325,-0.4306,-0.4295,-0.4298,-0.4289,-0.4298,-0.4303,-0.4303,-0.4303,-0.43,-0.43,-0.4303,-0.4364,-0.4558,-0.4625,-0.4758,-0.502,-0.5153,-0.5223,-0.5359,-0.5428,-0.5428,-0.5428,-0.5428,-0.5428,-0.5428,-0.5428,-0.5428,-0.5428,-0.5428,-0.5428,-0.5428,-0.5428,-0.5428,-0.5428,-0.5428,-0.5428,-0.5428,-0.5428,-0.5404,-0.5311,-0.5257,-0.5209,-0.5196,-0.4965,-0.4789,-0.4687,-0.4531,-0.418,-0.7165,-0.7154,-0.7135,-0.7008,-0.679,-0.6548,-0.6433,-0.6442,-0.6434,-0.8062,-1.0319,-0.9355,-0.8726,-0.8326,-0.7329,-0.6828,-0.6531,-0.5334,-0.5135,-0.5231,-0.3915,-0.3213,-0.3317,-0.3218,-0.3191,-0.3251,-0.33,-0.3292,-0.3223,-0.3184,-0.3213,-0.3199,-0.3139,-0.3097,-0.3082,-0.2931,-0.2868,-0.2909,-0.2631,-0.2436,-0.2265,-0.22,-0.2166,-0.2166,-0.2184,-0.2218,-0.2216,-0.2211,-0.221,-0.2204,-0.2202,-0.2338,-0.2673,-0.3002,-0.334,-0.3756,-0.4084,-0.4292,-0.43,-0.4303,-0.4303,-0.4303,-0.4306,-0.4308,-0.4311,-0.4398,-0.4409,-0.4338,-0.4308,-0.4311,-0.4303,-0.4303,-0.4303,-0.4303,-0.4303,-0.4303,-0.4303,-0.4303,-0.4364,-0.4561,-0.4694,-0.4894,-0.509,-0.5236,-0.5369,-0.5362,-0.5449,-0.5446,-0.5428,-0.5428,-0.5428,-0.5428,-0.5428,-0.5428,-0.5428,-0.5428,-0.5428,-0.5428,-0.5428,-0.5428,-0.5428,-0.5428,-0.5428,-0.5428,-0.5428,-0.5321,-0.524,-0.5226,-0.523,-0.506,-0.4928,-0.4787,-0.4601,-0.4518,-0.442,-0.7332,-0.7374,-0.7194,-0.6915,-0.67,-0.6535,-0.6447,-0.6439,-0.6412,-0.772,-0.9665,-1.0027,-0.971,-0.8825,-0.8722,-0.8425,-0.7925,-0.7428,-0.7126,-0.7027,-0.6321,-0.5717,-0.5114,-0.5118,-0.5075,-0.5007,-0.4493,-0.4069,-0.3973,-0.3401,-0.3142,-0.3168,-0.3116,-0.3104,-0.3125,-0.3091,-0.3012,-0.2903,-0.2839,-0.2614,-0.2493,-0.2365,-0.2298,-0.2296,-0.2273,-0.226,-0.226,-0.2262,-0.2245,-0.2211,-0.2414,-0.2734,-0.296,-0.336,-0.3692,-0.4097,-0.4233,-0.4303,-0.4303,-0.4303,-0.4303,-0.4303,-0.4363,-0.4401,-0.4406,-0.458,-0.4626,-0.4512,-0.4444,-0.4376,-0.4319,-0.4303,-0.4303,-0.4303,-0.4303,-0.4303,-0.4303,-0.4303,-0.4431,-0.4694,-0.4761,-0.496,-0.5173,-0.544,-0.545,-0.5473,-0.5497,-0.546,-0.5452,-0.5428,-0.5428,-0.5428,-0.5428,-0.5428,-0.5428,-0.5428,-0.5428,-0.5428,-0.5428,-0.5428,-0.5428,-0.5428,-0.5428,-0.5428,-0.5428,-0.5304,-0.5162,-0.5159,-0.5152,-0.4969,-0.4826,-0.4758,-0.4639,-0.4553,-0.4476,-0.7466,-0.7487,-0.7174,-0.6891,-0.6673,-0.6564,-0.6476,-0.6442,-0.6407,-0.7307,-0.8931,-1.0529,-1.0323,-0.9023,-0.962,-0.962,-0.9122,-0.8924,-0.8722,-0.8418,-0.8326,-0.7922,-0.7313,-0.6921,-0.6685,-0.6235,-0.5103,-0.447,-0.4263,-0.358,-0.3123,-0.3151,-0.312,-0.3121,-0.3149,-0.3154,-0.3073,-0.2922,-0.2938,-0.2835,-0.2624,-0.2484,-0.2392,-0.2361,-0.2343,-0.2261,-0.2261,-0.2261,-0.2315,-0.22,-0.2621,-0.3006,-0.3203,-0.3601,-0.4006,-0.4349,-0.4382,-0.4398,-0.4398,-0.4398,-0.4398,-0.4404,-0.4477,-0.4591,-0.4539,-0.4632,-0.4681,-0.4715,-0.4599,-0.4529,-0.4417,-0.4368,-0.436,-0.4387,-0.4352,-0.4308,-0.4344,-0.4327,-0.4434,-0.4697,-0.4761,-0.4982,-0.5363,-0.5515,-0.5549,-0.5525,-0.5549,-0.5562,-0.5447,-0.5396,-0.5428,-0.5428,-0.5428,-0.5428,-0.5428,-0.5428,-0.5428,-0.5428,-0.5428,-0.5428,-0.5428,-0.5428,-0.5428,-0.5428,-0.5428,-0.5284,-0.5121,-0.5081,-0.5138,-0.4999,-0.4863,-0.4703,-0.4654,-0.4581,-0.4504,-0.7838,-0.7607,-0.7263,-0.7005,-0.6793,-0.6793,-0.6657,-0.645,-0.6439,-0.7344,-0.8759,-1.0281,-1.0272,-0.8928,-0.962,-0.992,-0.9817,-0.9225,-0.9118,-0.941,-0.9,-0.9004,-0.9426,-0.8435,-0.7437,-0.6321,-0.5027,-0.4022,-0.3413,-0.3217,-0.3224,-0.3224,-0.3214,-0.3218,-0.3213,-0.3157,-0.3196,-0.3119,-0.2928,-0.2812,-0.2699,-0.2623,-0.2531,-0.2429,-0.2367,-0.227,-0.2268,-0.2264,-0.2262,-0.2332,-0.2761,-0.3086,-0.3297,-0.3702,-0.4117,-0.4402,-0.4637,-0.4701,-0.4695,-0.469,-0.4693,-0.4698,-0.4632,-0.4718,-0.4723,-0.4757,-0.4781,-0.4748,-0.476,-0.4754,-0.472,-0.4531,-0.4507,-0.4657,-0.4431,-0.4379,-0.4452,-0.4387,-0.4442,-0.4715,-0.4867,-0.5122,-0.5566,-0.5583,-0.5657,-0.5691,-0.5661,-0.5579,-0.5525,-0.5433,-0.5439,-0.5428,-0.5428,-0.5428,-0.5428,-0.5428,-0.5428,-0.5428,-0.5428,-0.5428,-0.5428,-0.5428,-0.5428,-0.5428,-0.5428,-0.5274,-0.5084,-0.5053,-0.5152,-0.5031,-0.49,-0.4766,-0.4606,-0.4637,-0.4538,-0.8196,-0.7494,-0.7235,-0.7018,-0.682,-0.6776,-0.6671,-0.6455,-0.6438,-0.6693,-0.7229,-0.7915,-0.8414,-0.8829,-0.9122,-0.9521,-0.992,-0.9719,-0.9719,-0.9916,-1.0224,-1.0452,-1.0587,-1.0173,-0.8641,-0.6523,-0.5819,-0.4926,-0.3732,-0.3331,-0.323,-0.323,-0.323,-0.323,-0.3226,-0.3209,-0.315,-0.3055,-0.3003,-0.2819,-0.2763,-0.2729,-0.2659,-0.2542,-0.2478,-0.2447,-0.2447,-0.2448,-0.2506,-0.2767,-0.3086,-0.3407,-0.381,-0.4232,-0.4446,-0.4591,-0.4701,-0.4726,-0.4726,-0.4726,-0.4726,-0.4731,-0.4727,-0.477,-0.479,-0.4876,-0.4931,-0.4904,-0.4917,-0.4923,-0.4863,-0.4708,-0.4676,-0.4698,-0.4651,-0.4531,-0.4569,-0.4621,-0.4666,-0.5014,-0.5224,-0.553,-0.5647,-0.5806,-0.5813,-0.5698,-0.5694,-0.564,-0.5484,-0.5456,-0.5428,-0.5428,-0.5428,-0.5428,-0.5428,-0.5428,-0.5428,-0.5428,-0.5428,-0.5428,-0.5428,-0.5428,-0.5428,-0.5428,-0.5428,-0.5308,-0.5135,-0.4941,-0.4981,-0.4898,-0.4781,-0.4684,-0.4543,-0.4484,-0.442,-0.8121,-0.7391,-0.7232,-0.7043,-0.688,-0.6948,-0.676,-0.6578,-0.6453,-0.6384,-0.6388,-0.6456,-0.7045,-0.7939,-0.8382,-0.887,-0.9525,-0.9624,-0.962,-0.9624,-1.013,-1.0452,-1.0281,-0.985,-0.8832,-0.7223,-0.6517,-0.5625,-0.483,-0.4531,-0.4232,-0.3732,-0.3831,-0.3732,-0.3533,-0.3331,-0.3172,-0.3072,-0.2954,-0.287,-0.2807,-0.2783,-0.2725,-0.2616,-0.256,-0.2529,-0.2511,-0.251,-0.2649,-0.2988,-0.3385,-0.3786,-0.4276,-0.4564,-0.4713,-0.4713,-0.4751,-0.477,-0.477,-0.4768,-0.4773,-0.4773,-0.4841,-0.4896,-0.4901,-0.4972,-0.501,-0.5018,-0.5018,-0.5018,-0.4988,-0.4866,-0.4773,-0.4754,-0.4773,-0.4673,-0.4703,-0.4748,-0.4939,-0.5287,-0.5565,-0.5738,-0.5874,-0.5966,-0.5952,-0.581,-0.5827,-0.5701,-0.5555,-0.548,-0.5428,-0.5428,-0.5428,-0.5428,-0.5428,-0.5428,-0.5428,-0.5428,-0.5428,-0.5428,-0.5428,-0.5428,-0.5428,-0.5428,-0.5338,-0.5298,-0.5132,-0.4915,-0.4817,-0.4712,-0.4664,-0.4565,-0.4485,-0.4376,-0.4304,-0.7595,-0.7265,-0.7154,-0.7092,-0.6994,-0.7105,-0.7031,-0.6815,-0.6577,-0.65,-0.6492,-0.6376,-0.651,-0.6684,-0.7468,-0.8167,-0.8667,-0.8755,-0.8943,-0.9023,-0.9,-0.9004,-0.8928,-0.7592,-0.7707,-0.8457,-0.6939,-0.6129,-0.6027,-0.6429,-0.6126,-0.5033,-0.5031,-0.473,-0.4034,-0.3521,-0.3165,-0.317,-0.3045,-0.2958,-0.2808,-0.2877,-0.2908,-0.2712,-0.2692,-0.2664,-0.2602,-0.2592,-0.2744,-0.3132,-0.3589,-0.4099,-0.4608,-0.4753,-0.4833,-0.4849,-0.4939,-0.4999,-0.5002,-0.4988,-0.4977,-0.498,-0.5004,-0.4999,-0.4996,-0.501,-0.5018,-0.5018,-0.5029,-0.5029,-0.5021,-0.5004,-0.4991,-0.4991,-0.4817,-0.4746,-0.479,-0.4958,-0.5174,-0.5479,-0.5712,-0.5881,-0.5986,-0.6051,-0.6071,-0.6091,-0.5973,-0.5796,-0.5701,-0.5525,-0.5463,-0.5442,-0.5442,-0.5369,-0.5435,-0.5432,-0.5428,-0.5428,-0.5428,-0.5428,-0.5428,-0.5428,-0.5428,-0.5428,-0.5292,-0.5256,-0.5304,-0.5041,-0.49,-0.483,-0.4678,-0.4516,-0.4405,-0.435,-0.4274,-0.775,-0.7493,-0.7268,-0.7135,-0.7103,-0.7213,-0.7147,-0.7031,-0.6951,-0.6838,-0.6722,-0.6524,-0.6409,-0.6559,-0.691,-0.7109,-0.7376,-0.7877,-0.8636,-0.9442,-0.9099,-0.8803,-0.8513,-0.7177,-0.7276,-0.8411,-0.7822,-0.7425,-0.7322,-0.7322,-0.6625,-0.5829,-0.5729,-0.5331,-0.4531,-0.368,-0.3316,-0.3626,-0.376,-0.3673,-0.3387,-0.3639,-0.3762,-0.3672,-0.3657,-0.3701,-0.3619,-0.3193,-0.3142,-0.3532,-0.3859,-0.4268,-0.4707,-0.4915,-0.4955,-0.4963,-0.4991,-0.5018,-0.5018,-0.5018,-0.5018,-0.5018,-0.5018,-0.5018,-0.5018,-0.5018,-0.5021,-0.5031,-0.5083,-0.511,-0.5048,-0.5091,-0.5102,-0.5029,-0.495,-0.4904,-0.4934,-0.5222,-0.5515,-0.5733,-0.5964,-0.6142,-0.6169,-0.6183,-0.6162,-0.6118,-0.6013,-0.5905,-0.5694,-0.5599,-0.5521,-0.5515,-0.546,-0.5396,-0.5413,-0.5396,-0.5428,-0.5428,-0.5428,-0.5428,-0.5428,-0.5428,-0.5428,-0.5359,-0.5292,-0.5216,-0.5269,-0.5117,-0.4957,-0.4763,-0.4587,-0.4463,-0.4366,-0.4301,-0.4281,-0.7688,-0.7496,-0.7268,-0.7154,-0.7154,-0.7154,-0.7227,-0.7256,-0.7248,-0.704,-0.6849,-0.663,-0.6584,-0.6738,-0.7018,-0.7315,-0.7657,-0.846,-0.9571,-1.0305,-0.9537,-0.9034,-0.8881,-0.8524,-0.859,-0.9402,-0.9019,-0.8619,-0.8322,-0.8517,-0.8014,-0.6828,-0.6728,-0.6329,-0.5529,-0.4377,-0.3913,-0.4199,-0.4237,-0.4154,-0.3967,-0.4119,-0.4257,-0.4177,-0.4249,-0.4201,-0.4112,-0.3836,-0.3848,-0.4121,-0.4349,-0.4602,-0.4836,-0.4977,-0.5018,-0.5018,-0.5018,-0.5018,-0.5018,-0.5018,-0.5018,-0.5018,-0.5018,-0.5042,-0.5059,-0.5053,-0.504,-0.5146,-0.5167,-0.5178,-0.5167,-0.5205,-0.5216,-0.5156,-0.5061,-0.5026,-0.5174,-0.5407,-0.5631,-0.5848,-0.6163,-0.6257,-0.6261,-0.6257,-0.6227,-0.6132,-0.6064,-0.5959,-0.5742,-0.5677,-0.5633,-0.5579,-0.5501,-0.5467,-0.5474,-0.5433,-0.5435,-0.5428,-0.5428,-0.5428,-0.5428,-0.5428,-0.5428,-0.5359,-0.5289,-0.5156,-0.5143,-0.4948,-0.4737,-0.4628,-0.4564,-0.4486,-0.4406,-0.435,-0.427,-0.7372,-0.7173,-0.7157,-0.7154,-0.7154,-0.7154,-0.7149,-0.7241,-0.7231,-0.7061,-0.6827,-0.6777,-0.6706,-0.69,-0.7672,-0.8276,-0.9069,-1.0007,-1.0809,-1.1017,-1.0361,-0.9654,-0.9341,-1.0196,-1.0744,-1.0789,-1.0362,-0.9739,-0.9217,-1.0207,-1.0006,-0.8024,-0.7826,-0.7624,-0.6623,-0.5527,-0.4833,-0.4706,-0.4565,-0.4463,-0.441,-0.4389,-0.4442,-0.4359,-0.4439,-0.4405,-0.442,-0.4545,-0.4649,-0.4627,-0.4841,-0.494,-0.5015,-0.5018,-0.5018,-0.5018,-0.5018,-0.5018,-0.5018,-0.5018,-0.5018,-0.5018,-0.504,-0.5069,-0.5154,-0.5127,-0.5148,-0.5301,-0.5279,-0.5262,-0.533,-0.5371,-0.5366,-0.5339,-0.5165,-0.5132,-0.5249,-0.5482,-0.5637,-0.5864,-0.6099,-0.6261,-0.6261,-0.6261,-0.6254,-0.6227,-0.6135,-0.6003,-0.5878,-0.5783,-0.5667,-0.5603,-0.5562,-0.5518,-0.5518,-0.5423,-0.5432,-0.5428,-0.5428,-0.5362,-0.5428,-0.5428,-0.5428,-0.5359,-0.5223,-0.5153,-0.502,-0.4824,-0.4691,-0.4625,-0.4561,-0.4495,-0.4431,-0.43,-0.4303,-0.7573,-0.7282,-0.7192,-0.7154,-0.7154,-0.7154,-0.7154,-0.7238,-0.7161,-0.7022,-0.68,-0.6769,-0.6738,-0.6857,-0.7753,-0.8269,-0.8779,-1.0091,-1.0826,-1.1168,-1.1263,-1.095,-1.0771,-1.1276,-1.1489,-1.1258,-1.112,-1.0952,-1.0609,-1.1002,-1.0502,-0.9422,-0.8722,-0.8226,-0.7325,-0.6366,-0.5806,-0.5429,-0.538,-0.5203,-0.5041,-0.5143,-0.5272,-0.5338,-0.5237,-0.5222,-0.5275,-0.5289,-0.5231,-0.5044,-0.5082,-0.5099,-0.5026,-0.5018,-0.5018,-0.5018,-0.5018,-0.5018,-0.5018,-0.5018,-0.5018,-0.5026,-0.5091,-0.517,-0.5233,-0.5262,-0.5303,-0.5379,-0.5404,-0.5423,-0.5404,-0.5455,-0.5461,-0.5368,-0.5243,-0.5201,-0.5283,-0.5482,-0.5712,-0.5864,-0.6106,-0.6257,-0.6261,-0.6261,-0.6261,-0.6254,-0.621,-0.6129,-0.5989,-0.5882,-0.5798,-0.5735,-0.5664,-0.5593,-0.5525,-0.5426,-0.5435,-0.5428,-0.5362,-0.5359,-0.5359,-0.5359,-0.5362,-0.5359,-0.5156,-0.502,-0.4957,-0.4824,-0.4758,-0.4558,-0.4495,-0.4364,-0.4367,-0.4303,-0.4303,-0.7575,-0.7402,-0.7282,-0.723,-0.7222,-0.7176,-0.7154,-0.7232,-0.7186,-0.6915,-0.6695,-0.6818,-0.6744,-0.6829,-0.8027,-0.8364,-0.8384,-1.0335,-1.1206,-1.1168,-1.1704,-1.1768,-1.1643,-1.1817,-1.1966,-1.1754,-1.1557,-1.1148,-1.0929,-1.1049,-1.0605,-0.9521,-0.9023,-0.8425,-0.7528,-0.6778,-0.6219,-0.5966,-0.5931,-0.5834,-0.5537,-0.566,-0.5689,-0.5749,-0.5733,-0.5733,-0.5719,-0.5665,-0.5515,-0.5311,-0.5214,-0.5135,-0.5034,-0.5018,-0.5018,-0.5018,-0.5018,-0.5018,-0.5018,-0.5018,-0.5042,-0.5086,-0.5159,-0.5252,-0.5341,-0.5385,-0.5385,-0.5523,-0.5548,-0.5537,-0.5545,-0.5589,-0.5564,-0.5469,-0.5382,-0.5372,-0.5333,-0.5442,-0.5647,-0.5861,-0.598,-0.618,-0.6257,-0.6257,-0.6261,-0.6257,-0.6177,-0.6083,-0.5982,-0.6006,-0.5874,-0.5765,-0.5654,-0.5587,-0.5463,-0.5349,-0.5239,-0.5299,-0.5326,-0.5319,-0.5246,-0.5243,-0.5226,-0.516,-0.5024,-0.4888,-0.4824,-0.4691,-0.4561,-0.4431,-0.4364,-0.4303,-0.4308,-0.4327,-0.4322,-0.7635,-0.7529,-0.7404,-0.7347,-0.7315,-0.722,-0.7173,-0.7246,-0.7245,-0.6986,-0.664,-0.6754,-0.6749,-0.6769,-0.8167,-0.8713,-0.8302,-1.0498,-1.1186,-1.1389,-1.1819,-1.2121,-1.1978,-1.2187,-1.2253,-1.2176,-1.1773,-1.1258,-1.0965,-1.1109,-1.043,-0.9426,-0.8928,-0.8329,-0.763,-0.6825,-0.638,-0.6312,-0.6257,-0.613,-0.5879,-0.5901,-0.5833,-0.5746,-0.5733,-0.5733,-0.5733,-0.5711,-0.5619,-0.5396,-0.5271,-0.5175,-0.5078,-0.5059,-0.5056,-0.5078,-0.5091,-0.5086,-0.5067,-0.5091,-0.5099,-0.5178,-0.5214,-0.5317,-0.5491,-0.5496,-0.5515,-0.5673,-0.5627,-0.5542,-0.5676,-0.5714,-0.5571,-0.5486,-0.5553,-0.5494,-0.5499,-0.5457,-0.5609,-0.5743,-0.5874,-0.6054,-0.618,-0.6257,-0.6257,-0.6257,-0.6177,-0.605,-0.5921,-0.5857,-0.5725,-0.5587,-0.5522,-0.557,-0.5421,-0.5202,-0.5183,-0.5106,-0.5151,-0.5164,-0.5081,-0.5001,-0.4973,-0.4891,-0.4891,-0.4758,-0.4691,-0.4561,-0.4364,-0.43,-0.43,-0.4311,-0.4325,-0.4357,-0.4368,-0.7687,-0.7652,-0.7529,-0.7426,-0.7339,-0.7193,-0.7241,-0.7146,-0.7149,-0.7147,-0.7051,-0.6893,-0.6844,-0.7003,-0.7968,-0.8434,-0.8334,-0.9652,-1.0437,-1.1223,-1.2001,-1.2299,-1.2295,-1.2388,-1.2428,-1.2317,-1.2145,-1.1733,-1.1383,-1.1171,-1.0857,-0.9739,-0.8832,-0.8428,-0.7531,-0.6833,-0.6431,-0.6388,-0.6418,-0.6302,-0.6064,-0.5953,-0.5855,-0.5746,-0.5733,-0.5733,-0.5733,-0.5733,-0.5659,-0.5523,-0.5401,-0.5311,-0.5262,-0.5195,-0.5192,-0.5246,-0.5276,-0.5284,-0.5287,-0.5271,-0.5273,-0.5262,-0.5379,-0.5532,-0.5665,-0.5665,-0.5667,-0.573,-0.5708,-0.5697,-0.5722,-0.5558,-0.5553,-0.5651,-0.5523,-0.5499,-0.5602,-0.5633,-0.5641,-0.563,-0.5731,-0.5829,-0.5964,-0.6025,-0.6103,-0.618,-0.6093,-0.5922,-0.5844,-0.5767,-0.562,-0.5498,-0.5485,-0.5466,-0.524,-0.5121,-0.503,-0.5015,-0.5036,-0.4983,-0.4903,-0.4866,-0.4851,-0.4809,-0.4827,-0.4697,-0.4573,-0.4558,-0.4428,-0.4364,-0.4308,-0.4341,-0.4368,-0.4395,-0.4442,-0.7782,-0.7769,-0.7652,-0.7535,-0.7421,-0.7241,-0.7153,-0.716,-0.7207,-0.7177,-0.716,-0.7042,-0.7006,-0.7006,-0.7751,-0.7987,-0.7973,-0.8742,-0.9691,-1.0578,-1.1686,-1.2365,-1.2356,-1.2337,-1.2375,-1.2388,-1.2172,-1.1777,-1.1295,-1.0893,-1.0239,-0.9037,-0.8471,-0.7733,-0.7132,-0.6634,-0.6437,-0.6426,-0.638,-0.629,-0.6173,-0.6051,-0.5893,-0.5768,-0.5733,-0.5733,-0.5733,-0.5733,-0.5697,-0.5624,-0.5521,-0.5426,-0.5374,-0.5309,-0.5314,-0.5352,-0.5371,-0.5371,-0.5368,-0.5371,-0.5374,-0.5396,-0.5499,-0.5602,-0.5697,-0.5733,-0.5765,-0.5784,-0.5768,-0.5733,-0.5733,-0.5692,-0.5684,-0.5697,-0.5678,-0.5667,-0.5687,-0.5653,-0.5692,-0.5681,-0.5752,-0.5824,-0.5902,-0.5911,-0.5944,-0.6022,-0.587,-0.5777,-0.5777,-0.5687,-0.5545,-0.5429,-0.5414,-0.535,-0.506,-0.498,-0.4965,-0.4959,-0.4971,-0.4909,-0.4765,-0.4789,-0.474,-0.4685,-0.4695,-0.4596,-0.4465,-0.4515,-0.4495,-0.4367,-0.4322,-0.4374,-0.442,-0.4452,-0.4585,-0.7872,-0.7864,-0.7766,-0.7657,-0.7538,-0.73,-0.7201,-0.7225,-0.7165,-0.7227,-0.7158,-0.7245,-0.7078,-0.7105,-0.7523,-0.7463,-0.7448,-0.8084,-0.9034,-0.9695,-1.1034,-1.1941,-1.2165,-1.2023,-1.1773,-1.1978,-1.1855,-1.1416,-1.0742,-1.0231,-0.9461,-0.8146,-0.7733,-0.7366,-0.6648,-0.6437,-0.6437,-0.6431,-0.6423,-0.6363,-0.6268,-0.6154,-0.6005,-0.5817,-0.5741,-0.5735,-0.5733,-0.5733,-0.573,-0.5727,-0.5632,-0.5532,-0.5455,-0.5401,-0.5415,-0.5428,-0.5455,-0.5466,-0.5472,-0.5458,-0.5488,-0.5489,-0.5497,-0.564,-0.5733,-0.5782,-0.5833,-0.5855,-0.585,-0.5776,-0.576,-0.5727,-0.5725,-0.5733,-0.5733,-0.5733,-0.5716,-0.5638,-0.5751,-0.5846,-0.5693,-0.5647,-0.5793,-0.5795,-0.5827,-0.5786,-0.5712,-0.5556,-0.5631,-0.5541,-0.5413,-0.5316,-0.522,-0.5153,-0.4947,-0.4896,-0.4884,-0.4862,-0.4873,-0.4823,-0.4753,-0.4726,-0.4742,-0.4557,-0.4502,-0.4464,-0.4414,-0.4378,-0.4367,-0.4303,-0.4352,-0.442,-0.4469,-0.4507,-0.4602,-0.7872,-0.7869,-0.7853,-0.7777,-0.766,-0.7538,-0.7346,-0.7188,-0.7228,-0.7203,-0.7247,-0.7171,-0.7216,-0.7194,-0.7202,-0.7218,-0.7337,-0.8029,-0.8484,-0.8813,-0.9812,-1.0708,-1.1511,-1.0692,-1.0233,-1.0457,-1.0736,-1.0558,-0.9919,-0.9598,-0.8898,-0.7997,-0.7712,-0.725,-0.667,-0.6437,-0.6437,-0.6437,-0.6437,-0.638,-0.6304,-0.6233,-0.6113,-0.5893,-0.5801,-0.5763,-0.5749,-0.5741,-0.5733,-0.5733,-0.5714,-0.5689,-0.5643,-0.5567,-0.5578,-0.5621,-0.5638,-0.5627,-0.5648,-0.5662,-0.5676,-0.57,-0.5716,-0.5763,-0.5844,-0.588,-0.5931,-0.5977,-0.5953,-0.588,-0.5874,-0.5806,-0.5744,-0.5738,-0.5735,-0.5735,-0.5727,-0.5703,-0.5651,-0.5751,-0.5602,-0.5465,-0.5621,-0.5677,-0.5587,-0.5634,-0.5556,-0.5401,-0.5476,-0.5323,-0.5154,-0.5071,-0.5074,-0.4996,-0.4825,-0.4806,-0.4861,-0.4814,-0.4822,-0.4875,-0.4806,-0.4803,-0.4741,-0.4621,-0.4507,-0.4508,-0.4387,-0.4327,-0.4319,-0.4333,-0.4401,-0.4544,-0.4567,-0.4651,-0.477,-0.7872,-0.7872,-0.7872,-0.7807,-0.7693,-0.757,-0.7364,-0.7284,-0.7348,-0.7299,-0.7211,-0.7182,-0.7154,-0.7154,-0.7154,-0.7154,-0.7376,-0.7598,-0.782,-0.7928,-0.8361,-0.8799,-0.982,-0.8786,-0.8562,-0.8679,-0.9237,-0.9552,-0.9033,-0.8942,-0.8301,-0.7551,-0.7214,-0.689,-0.6625,-0.6467,-0.6445,-0.6439,-0.6434,-0.6415,-0.635,-0.6306,-0.6162,-0.6024,-0.5896,-0.586,-0.5888,-0.5771,-0.5768,-0.5798,-0.5765,-0.5741,-0.5727,-0.5735,-0.5727,-0.5738,-0.5741,-0.5768,-0.5809,-0.5822,-0.5844,-0.5909,-0.5912,-0.5939,-0.598,-0.6005,-0.6034,-0.6064,-0.613,-0.6064,-0.6005,-0.5882,-0.5833,-0.5812,-0.5773,-0.5738,-0.5733,-0.5733,-0.5692,-0.5624,-0.5472,-0.5521,-0.5533,-0.558,-0.5445,-0.5323,-0.5323,-0.5323,-0.5323,-0.5171,-0.5018,-0.5018,-0.5015,-0.4982,-0.4915,-0.4904,-0.489,-0.4852,-0.4836,-0.4887,-0.4915,-0.4904,-0.4838,-0.4735,-0.4629,-0.4526,-0.4425,-0.4371,-0.4368,-0.4374,-0.4447,-0.4539,-0.4686,-0.4811,-0.4904,-0.7872,-0.7872,-0.7872,-0.7818,-0.7722,-0.7578,-0.7364,-0.7271,-0.7343,-0.7287,-0.7187,-0.7165,-0.7154,-0.7154,-0.7154,-0.7154,-0.7154,-0.7268,-0.7265,-0.7263,-0.7365,-0.7357,-0.7238,-0.7227,-0.7337,-0.7581,-0.7922,-0.8263,-0.8232,-0.816,-0.7663,-0.7246,-0.6763,-0.6651,-0.6605,-0.6526,-0.6478,-0.6439,-0.6437,-0.6437,-0.641,-0.6325,-0.6227,-0.6124,-0.6005,-0.5986,-0.6026,-0.5923,-0.5855,-0.586,-0.5822,-0.5763,-0.5752,-0.5817,-0.5833,-0.5784,-0.579,-0.5855,-0.5907,-0.5939,-0.5975,-0.6034,-0.6072,-0.6094,-0.6135,-0.6149,-0.617,-0.617,-0.6154,-0.617,-0.6062,-0.5945,-0.5874,-0.5841,-0.5779,-0.5733,-0.5733,-0.5733,-0.5733,-0.564,-0.5499,-0.5493,-0.5507,-0.5465,-0.5328,-0.5171,-0.5168,-0.5168,-0.5168,-0.5093,-0.5018,-0.5018,-0.5018,-0.5018,-0.4993,-0.4985,-0.4972,-0.4953,-0.4942,-0.4966,-0.4988,-0.4996,-0.4917,-0.4838,-0.4757,-0.4651,-0.4531,-0.4439,-0.4444,-0.4466,-0.451,-0.4602,-0.4746,-0.4852,-0.4939,-0.7872,-0.7872,-0.7869,-0.7864,-0.7815,-0.7611,-0.7455,-0.7474,-0.729,-0.722,-0.7164,-0.7201,-0.7268,-0.7268,-0.7265,-0.7265,-0.7154,-0.7154,-0.7154,-0.7152,-0.7152,-0.7149,-0.7152,-0.7152,-0.7252,-0.726,-0.7376,-0.7379,-0.7482,-0.7459,-0.7295,-0.6994,-0.694,-0.6844,-0.6676,-0.66,-0.654,-0.6461,-0.6439,-0.6437,-0.642,-0.6333,-0.6276,-0.6222,-0.6138,-0.6086,-0.6113,-0.6043,-0.5994,-0.5909,-0.5893,-0.5831,-0.576,-0.5741,-0.5812,-0.5885,-0.5972,-0.6048,-0.6051,-0.6026,-0.6037,-0.6072,-0.6086,-0.6143,-0.6192,-0.6287,-0.6333,-0.6388,-0.6252,-0.613,-0.6067,-0.5899,-0.5798,-0.5768,-0.5763,-0.5738,-0.5733,-0.5733,-0.5733,-0.5711,-0.5589,-0.5483,-0.5479,-0.5344,-0.5214,-0.5067,-0.5015,-0.5021,-0.5015,-0.5018,-0.5018,-0.5018,-0.5018,-0.5018,-0.5018,-0.5018,-0.5018,-0.5018,-0.5018,-0.5018,-0.5018,-0.5018,-0.5018,-0.4939,-0.4852,-0.4781,-0.4694,-0.4616,-0.4561,-0.4569,-0.4626,-0.4708,-0.4809,-0.4898,-0.4977,-0.7872,-0.7867,-0.7801,-0.7815,-0.7837,-0.7619,-0.7548,-0.741,-0.7288,-0.7182,-0.7332,-0.7524,-0.7607,-0.7493,-0.7382,-0.7379,-0.7268,-0.7265,-0.7154,-0.7154,-0.7154,-0.7154,-0.7154,-0.7154,-0.7154,-0.7154,-0.7154,-0.7265,-0.7154,-0.7152,-0.7122,-0.7081,-0.7018,-0.6945,-0.6787,-0.6681,-0.6605,-0.6535,-0.6483,-0.6439,-0.6426,-0.6393,-0.6361,-0.6355,-0.6246,-0.623,-0.6238,-0.6135,-0.6072,-0.5994,-0.5953,-0.5847,-0.5782,-0.5798,-0.5885,-0.6002,-0.6121,-0.6149,-0.6092,-0.6032,-0.6048,-0.6078,-0.6092,-0.6108,-0.6181,-0.6268,-0.6306,-0.6233,-0.6279,-0.6222,-0.6113,-0.5999,-0.5912,-0.5847,-0.5776,-0.5744,-0.5738,-0.5735,-0.573,-0.5708,-0.5681,-0.5581,-0.5485,-0.5388,-0.5254,-0.5135,-0.5086,-0.5072,-0.5048,-0.5018,-0.5018,-0.5018,-0.5018,-0.5018,-0.5018,-0.5018,-0.5018,-0.5018,-0.5018,-0.5018,-0.5018,-0.5018,-0.5018,-0.4985,-0.489,-0.4841,-0.4819,-0.4738,-0.4632,-0.4678,-0.4749,-0.4822,-0.4893,-0.4939,-0.5007,-0.7755,-0.7777,-0.7725,-0.7733,-0.7763,-0.7559,-0.7472,-0.7448,-0.7249,-0.7154,-0.7379,-0.7721,-0.7946,-0.7718,-0.7718,-0.7604,-0.7268,-0.7268,-0.7268,-0.7265,-0.7154,-0.7154,-0.7154,-0.7154,-0.7154,-0.7154,-0.7154,-0.7154,-0.7154,-0.7154,-0.7154,-0.7152,-0.7078,-0.701,-0.694,-0.6823,-0.6709,-0.6597,-0.6494,-0.6442,-0.6434,-0.6437,-0.6431,-0.6407,-0.6369,-0.635,-0.6391,-0.6293,-0.6187,-0.6116,-0.6067,-0.5977,-0.5885,-0.5918,-0.601,-0.61,-0.6187,-0.6181,-0.6149,-0.6121,-0.6097,-0.613,-0.6135,-0.6154,-0.6154,-0.6208,-0.6233,-0.6173,-0.6222,-0.6222,-0.6168,-0.6105,-0.5999,-0.5907,-0.5831,-0.5782,-0.5741,-0.5738,-0.5733,-0.5725,-0.5706,-0.5687,-0.56,-0.5523,-0.5393,-0.523,-0.5162,-0.5129,-0.5083,-0.5034,-0.5037,-0.5045,-0.508,-0.5064,-0.5023,-0.5021,-0.5021,-0.5018,-0.5018,-0.5018,-0.5018,-0.5018,-0.5018,-0.4969,-0.492,-0.4885,-0.4855,-0.4776,-0.4713,-0.4803,-0.4885,-0.492,-0.4972,-0.5004,-0.5026,-0.7442,-0.7551,-0.7655,-0.7644,-0.7551,-0.7407,-0.7353,-0.7486,-0.7332,-0.7268,-0.7379,-0.7946,-0.8171,-0.8051,-0.7937,-0.7826,-0.7607,-0.7607,-0.7382,-0.7268,-0.7154,-0.7154,-0.7154,-0.7154,-0.7154,-0.7154,-0.7154,-0.7154,-0.7154,-0.7154,-0.7154,-0.7149,-0.7124,-0.7067,-0.701,-0.6934,-0.6782,-0.6651,-0.6516,-0.6453,-0.6442,-0.6437,-0.6437,-0.6437,-0.6429,-0.6429,-0.6434,-0.6388,-0.632,-0.6241,-0.6203,-0.6135,-0.6029,-0.6029,-0.6102,-0.6189,-0.6176,-0.6195,-0.6225,-0.6263,-0.6355,-0.6363,-0.6298,-0.62,-0.6192,-0.6132,-0.6151,-0.6214,-0.6233,-0.6211,-0.6187,-0.6157,-0.6064,-0.5939,-0.5858,-0.5812,-0.5768,-0.5735,-0.5733,-0.5733,-0.5725,-0.5706,-0.57,-0.5624,-0.5504,-0.5344,-0.5184,-0.5146,-0.5105,-0.5064,-0.5072,-0.5094,-0.5148,-0.5129,-0.5042,-0.5034,-0.505,-0.5034,-0.5018,-0.5018,-0.5018,-0.5018,-0.5018,-0.5007,-0.4969,-0.4931,-0.4896,-0.4855,-0.4857,-0.4953,-0.5007,-0.4996,-0.4993,-0.501,-0.5029,-0.7271,-0.7315,-0.7508,-0.7606,-0.7614,-0.7418,-0.738,-0.7407,-0.7244,-0.7379,-0.7712,-0.8054,-0.8273,-0.8266,-0.8263,-0.8156,-0.7826,-0.7604,-0.7604,-0.7382,-0.7268,-0.7265,-0.7154,-0.7154,-0.7154,-0.7154,-0.7154,-0.7154,-0.7154,-0.7154,-0.7154,-0.7154,-0.7154,-0.7138,-0.7086,-0.7005,-0.6847,-0.6684,-0.6468,-0.6417,-0.6442,-0.6437,-0.6437,-0.6437,-0.6437,-0.6437,-0.6437,-0.6437,-0.6369,-0.6304,-0.6276,-0.6208,-0.6135,-0.6113,-0.6168,-0.626,-0.6217,-0.6263,-0.6301,-0.6295,-0.6219,-0.6217,-0.6176,-0.6165,-0.6189,-0.6168,-0.6159,-0.6195,-0.6246,-0.6265,-0.6143,-0.617,-0.614,-0.598,-0.589,-0.586,-0.5801,-0.5771,-0.5738,-0.5738,-0.5735,-0.5727,-0.5727,-0.5722,-0.5591,-0.5455,-0.5295,-0.5165,-0.514,-0.5135,-0.5162,-0.5186,-0.5241,-0.5227,-0.5146,-0.5116,-0.5094,-0.5059,-0.5026,-0.5018,-0.5018,-0.5018,-0.5018,-0.5018,-0.5018,-0.4982,-0.4958,-0.4953,-0.4961,-0.4966,-0.4991,-0.5015,-0.5015,-0.5018,-0.4797,-0.7196,-0.7182,-0.7339,-0.7456,-0.7513,-0.7394,-0.7364,-0.7372,-0.723,-0.7376,-0.7823,-0.8273,-0.8494,-0.8488,-0.8598,-0.8488,-0.8156,-0.7937,-0.7715,-0.7493,-0.7379,-0.7265,-0.7154,-0.7154,-0.7154,-0.7154,-0.7154,-0.7154,-0.7154,-0.7154,-0.7154,-0.7154,-0.7154,-0.7152,-0.7124,-0.7035,-0.6786,-0.6766,-0.6529,-0.6487,-0.6499,-0.6453,-0.6437,-0.6437,-0.6437,-0.6437,-0.6437,-0.6434,-0.6407,-0.6355,-0.632,-0.6279,-0.6227,-0.6203,-0.6241,-0.6285,-0.6325,-0.6361,-0.6363,-0.6312,-0.6192,-0.6249,-0.6187,-0.6168,-0.6162,-0.6195,-0.6157,-0.6189,-0.6293,-0.6328,-0.617,-0.6265,-0.6246,-0.6111,-0.6075,-0.6032,-0.5885,-0.5814,-0.5771,-0.5744,-0.5741,-0.5735,-0.5738,-0.5733,-0.5651,-0.5521,-0.5379,-0.5273,-0.5246,-0.5257,-0.5295,-0.532,-0.5352,-0.5317,-0.5265,-0.5208,-0.5151,-0.5105,-0.5069,-0.5026,-0.5018,-0.5021,-0.5021,-0.5018,-0.5018,-0.5018,-0.5007,-0.4988,-0.4953,-0.492,-0.4963,-0.5018,-0.5018,-0.4943,-0.4411,-0.7165,-0.7154,-0.7173,-0.7184,-0.7217,-0.729,-0.7279,-0.7332,-0.7271,-0.7249,-0.7357,-0.826,-0.8702,-0.8582,-0.8692,-0.8712,-0.8488,-0.8156,-0.7826,-0.7604,-0.7379,-0.7265,-0.7154,-0.7154,-0.7154,-0.7154,-0.7154,-0.7154,-0.7154,-0.7154,-0.7154,-0.7154,-0.7154,-0.7154,-0.7143,-0.7043,-0.6983,-0.694,-0.6628,-0.6559,-0.6578,-0.6502,-0.6472,-0.6437,-0.6437,-0.6437,-0.6437,-0.6437,-0.642,-0.6407,-0.6401,-0.6388,-0.6377,-0.6377,-0.6393,-0.6407,-0.6418,-0.6429,-0.6431,-0.642,-0.6396,-0.6369,-0.6293,-0.6265,-0.6241,-0.6206,-0.6187,-0.626,-0.6306,-0.6355,-0.6372,-0.6407,-0.6325,-0.6255,-0.6208,-0.6113,-0.5961,-0.5858,-0.5817,-0.5768,-0.5749,-0.5738,-0.5741,-0.5727,-0.5676,-0.5575,-0.5447,-0.5377,-0.5344,-0.5368,-0.5407,-0.5439,-0.5464,-0.5442,-0.5388,-0.5276,-0.5208,-0.5162,-0.5121,-0.5083,-0.5042,-0.5031,-0.5029,-0.5021,-0.5018,-0.5018,-0.5018,-0.5015,-0.4982,-0.4961,-0.4982,-0.5018,-0.5018,-0.4792,-0.4182,-0.7154,-0.7163,-0.7241,-0.7228,-0.7168,-0.7198,-0.7345,-0.7354,-0.7232,-0.7149,-0.7144,-0.7913,-0.8356,-0.8484,-0.8676,-0.8826,-0.8712,-0.8156,-0.7937,-0.7826,-0.7376,-0.7265,-0.7154,-0.7154,-0.7154,-0.7154,-0.7154,-0.7154,-0.7154,-0.7154,-0.7154,-0.7154,-0.7154,-0.7154,-0.7149,-0.71,-0.707,-0.6991,-0.6885,-0.6904,-0.6641,-0.6575,-0.6516,-0.645,-0.6445,-0.6437,-0.6437,-0.6437,-0.6437,-0.6437,-0.6437,-0.6437,-0.6437,-0.6437,-0.6437,-0.6437,-0.6437,-0.6437,-0.6437,-0.6431,-0.6434,-0.642,-0.6401,-0.6369,-0.6366,-0.6347,-0.6352,-0.6358,-0.6363,-0.6399,-0.6423,-0.6429,-0.6369,-0.6285,-0.6214,-0.6105,-0.5986,-0.592,-0.5866,-0.5809,-0.5773,-0.5814,-0.5831,-0.5801,-0.5746,-0.567,-0.5553,-0.5455,-0.5409,-0.5461,-0.5507,-0.5545,-0.5567,-0.5559,-0.5515,-0.5409,-0.5336,-0.5298,-0.5227,-0.5156,-0.5116,-0.5061,-0.5029,-0.5018,-0.5018,-0.5018,-0.5018,-0.5018,-0.5018,-0.5015,-0.5018,-0.5021,-0.5021,-0.4484,-0.364,-0.7154,-0.7165,-0.7239,-0.7228,-0.7168,-0.7198,-0.7359,-0.7354,-0.7295,-0.7089,-0.7086,-0.7627,-0.8065,-0.833,-0.8639,-0.8937,-0.883,-0.8269,-0.8048,-0.7934,-0.7487,-0.7265,-0.7154,-0.7154,-0.7154,-0.7154,-0.7154,-0.7154,-0.7154,-0.7154,-0.7154,-0.7154,-0.7154,-0.7154,-0.7152,-0.7138,-0.7119,-0.7158,-0.7091,-0.7014,-0.6771,-0.6671,-0.6578,-0.6516,-0.6472,-0.6437,-0.6437,-0.6437,-0.6437,-0.6437,-0.6437,-0.6437,-0.6437,-0.6437,-0.6437,-0.6437,-0.6437,-0.6437,-0.6437,-0.6437,-0.6437,-0.6434,-0.6437,-0.6437,-0.6437,-0.6415,-0.6418,-0.6426,-0.6437,-0.6437,-0.6434,-0.6437,-0.6404,-0.632,-0.6285,-0.6179,-0.6043,-0.5977,-0.5931,-0.5871,-0.585,-0.589,-0.5909,-0.5877,-0.5833,-0.5749,-0.5662,-0.5572,-0.5494,-0.5548,-0.551,-0.5624,-0.5651,-0.5643,-0.5613,-0.5459,-0.548,-0.5436,-0.533,-0.5214,-0.5146,-0.5086,-0.505,-0.5018,-0.5018,-0.5018,-0.5018,-0.5018,-0.5021,-0.5021,-0.5021,-0.5021,-0.4943,-0.4427,-0.375,-0.7154,-0.7154,-0.7154,-0.7154,-0.7165,-0.7228,-0.7228,-0.7249,-0.7239,-0.7175,-0.7274,-0.7579,-0.7905,-0.8288,-0.8746,-0.8923,-0.8826,-0.8269,-0.8048,-0.7823,-0.7487,-0.7265,-0.7154,-0.7154,-0.7154,-0.7154,-0.7154,-0.7154,-0.7154,-0.7154,-0.7154,-0.7154,-0.7154,-0.7154,-0.7154,-0.7152,-0.7143,-0.7216,-0.7169,-0.7097,-0.6893,-0.6766,-0.6668,-0.6592,-0.6521,-0.6467,-0.6448,-0.6437,-0.6437,-0.6437,-0.6437,-0.6437,-0.6437,-0.6437,-0.6437,-0.6437,-0.6437,-0.6437,-0.6437,-0.6437,-0.6437,-0.6437,-0.6437,-0.6437,-0.6437,-0.6437,-0.6437,-0.6437,-0.6437,-0.6437,-0.6437,-0.6437,-0.6434,-0.6412,-0.6415,-0.6287,-0.6124,-0.6048,-0.6005,-0.5969,-0.5953,-0.5961,-0.595,-0.5926,-0.5904,-0.5776,-0.5703,-0.5692,-0.5632,-0.5646,-0.5684,-0.5689,-0.5711,-0.5719,-0.5684,-0.5542,-0.5608,-0.5556,-0.536,-0.5235,-0.517,-0.511,-0.505,-0.5018,-0.5018,-0.5018,-0.5018,-0.5023,-0.5029,-0.5034,-0.4993,-0.4999,-0.5018,-0.4901,-0.0,-0.7154,-0.7154,-0.7154,-0.7108,-0.7032,-0.72,-0.7203,-0.7222,-0.7255,-0.7151,-0.7252,-0.7669,-0.7954,-0.8136,-0.8602,-0.8835,-0.8682,-0.838,-0.8048,-0.7823,-0.749,-0.7265,-0.7154,-0.7154,-0.7154,-0.7154,-0.7154,-0.7154,-0.7154,-0.7154,-0.7154,-0.7154,-0.7154,-0.7154,-0.7154,-0.7154,-0.7154,-0.7257,-0.7218,-0.7172,-0.7008,-0.6896,-0.6777,-0.6654,-0.6586,-0.6518,-0.6456,-0.6439,-0.6437,-0.6437,-0.6437,-0.6437,-0.6437,-0.6437,-0.6437,-0.6437,-0.6437,-0.6437,-0.6437,-0.6437,-0.6437,-0.6437,-0.6437,-0.6437,-0.6437,-0.6437,-0.6437,-0.6437,-0.6437,-0.6437,-0.6437,-0.6437,-0.6437,-0.6437,-0.6426,-0.6333,-0.6192,-0.6143,-0.6097,-0.6043,-0.6029,-0.6062,-0.6045,-0.601,-0.5969,-0.582,-0.5733,-0.5733,-0.5733,-0.5733,-0.5733,-0.5733,-0.5733,-0.5733,-0.5733,-0.5692,-0.5689,-0.5651,-0.5445,-0.529,-0.5254,-0.5186,-0.5072,-0.5026,-0.5037,-0.5029,-0.5018,-0.5042,-0.5028,-0.4978,-0.5012,-0.5009,-0.4937,-0.4503,-0.0,-0.7382,-0.7371,-0.7433,-0.7345,-0.7223,-0.7098,-0.7092,-0.7015,-0.6892,-0.6933,-0.7244,-0.7763,-0.804,-0.8292,-0.8548,-0.8794,-0.8819,-0.8269,-0.8048,-0.7823,-0.749,-0.7265,-0.7154,-0.7154,-0.7154,-0.7154,-0.7154,-0.7154,-0.7154,-0.7154,-0.7154,-0.7154,-0.7154,-0.7154,-0.7154,-0.7154,-0.7154,-0.7154,-0.7141,-0.7111,-0.7065,-0.7005,-0.6858,-0.673,-0.6665,-0.6556,-0.6461,-0.6442,-0.6437,-0.6437,-0.6437,-0.6437,-0.6437,-0.6437,-0.6437,-0.6437,-0.6437,-0.6437,-0.6437,-0.6437,-0.6437,-0.6437,-0.6437,-0.6437,-0.6437,-0.6437,-0.6437,-0.6437,-0.6437,-0.6437,-0.6437,-0.6437,-0.6437,-0.6437,-0.6396,-0.6352,-0.6295,-0.6246,-0.6184,-0.6121,-0.613,-0.6176,-0.6168,-0.6124,-0.6015,-0.5828,-0.5733,-0.5733,-0.5733,-0.5733,-0.5733,-0.5733,-0.5733,-0.5733,-0.5733,-0.5733,-0.5725,-0.5662,-0.5488,-0.5366,-0.5336,-0.5222,-0.5072,-0.5048,-0.5064,-0.5075,-0.5023,-0.5004,-0.4981,-0.5012,-0.4886,-0.4743,-0.4095,-0.3033,-0.0,-0.7695,-0.7555,-0.7759,-0.763,-0.7515,-0.7067,-0.6907,-0.6802,-0.6697,-0.6805,-0.7316,-0.7728,-0.8104,-0.8337,-0.8594,-0.8639,-0.8643,-0.8247,-0.7937,-0.7934,-0.749,-0.7154,-0.7154,-0.7154,-0.7154,-0.7154,-0.7154,-0.7154,-0.7154,-0.7154,-0.7154,-0.7154,-0.7154,-0.7154,-0.7154,-0.7154,-0.7154,-0.7154,-0.7154,-0.7138,-0.7119,-0.7046,-0.694,-0.6823,-0.6709,-0.6589,-0.6491,-0.6448,-0.6437,-0.6437,-0.6437,-0.6437,-0.6437,-0.6437,-0.6437,-0.6437,-0.6437,-0.6437,-0.6437,-0.6437,-0.6437,-0.6437,-0.6437,-0.6437,-0.6437,-0.6437,-0.6437,-0.6437,-0.6437,-0.6437,-0.6437,-0.6437,-0.6437,-0.6437,-0.6415,-0.6355,-0.629,-0.6265,-0.6257,-0.6222,-0.6274,-0.6301,-0.6203,-0.6149,-0.6067,-0.5855,-0.5798,-0.5806,-0.5754,-0.5754,-0.5752,-0.5749,-0.5733,-0.5733,-0.5733,-0.5733,-0.5733,-0.5651,-0.551,-0.5445,-0.542,-0.526,-0.5064,-0.5094,-0.5143,-0.5106,-0.5062,-0.503,-0.4999,-0.4804,-0.4674,-0.4372,-0.0,-0.0,-0.0,-0.7726,-0.7627,-0.7491,-0.7519,-0.7373,-0.7241,-0.7083,-0.7187,-0.7497,-0.7607,-0.7701,-0.7607,-0.7785,-0.826,-0.8272,-0.8304,-0.8333,-0.8188,-0.7925,-0.77,-0.7365,-0.7254,-0.7154,-0.7154,-0.7154,-0.7154,-0.7154,-0.7154,-0.7154,-0.7154,-0.7154,-0.7154,-0.7154,-0.7154,-0.7154,-0.7152,-0.7252,-0.7152,-0.7246,-0.7254,-0.7143,-0.7124,-0.7056,-0.6937,-0.6815,-0.6684,-0.6578,-0.6475,-0.6453,-0.6437,-0.6437,-0.6437,-0.6437,-0.6437,-0.6437,-0.6437,-0.6437,-0.6437,-0.6437,-0.6437,-0.6437,-0.6437,-0.6437,-0.6437,-0.6437,-0.6437,-0.6437,-0.6437,-0.6437,-0.6437,-0.6437,-0.6437,-0.6437,-0.6437,-0.6434,-0.6358,-0.6285,-0.6298,-0.6314,-0.6358,-0.6412,-0.6352,-0.6252,-0.6165,-0.6075,-0.6029,-0.6013,-0.5977,-0.5855,-0.5812,-0.5803,-0.5793,-0.5741,-0.5733,-0.5733,-0.5733,-0.5733,-0.5695,-0.5578,-0.5532,-0.5494,-0.5349,-0.5195,-0.5203,-0.5233,-0.5213,-0.5175,-0.5111,-0.4999,-0.4214,-0.0,-0.0,-0.0,-0.0,-0.0,-0.7924,-0.7842,-0.7811,-0.7715,-0.7648,-0.7569,-0.754,-0.764,-0.7846,-0.7949,-0.7945,-0.7556,-0.7544,-0.8104,-0.8076,-0.7989,-0.8021,-0.7846,-0.7677,-0.7494,-0.7309,-0.723,-0.7241,-0.7249,-0.7154,-0.7154,-0.7154,-0.7154,-0.7154,-0.7154,-0.7154,-0.7154,-0.7154,-0.7154,-0.7149,-0.7232,-0.7227,-0.7149,-0.7227,-0.7227,-0.7257,-0.7143,-0.7095,-0.6986,-0.6866,-0.6747,-0.6622,-0.6507,-0.6453,-0.6437,-0.6437,-0.6437,-0.6437,-0.6437,-0.6437,-0.6437,-0.6437,-0.6437,-0.6437,-0.6437,-0.6437,-0.6437,-0.6437,-0.6437,-0.6437,-0.6437,-0.6437,-0.6437,-0.6437,-0.6437,-0.6437,-0.6437,-0.6437,-0.6437,-0.6437,-0.6396,-0.6369,-0.6372,-0.6382,-0.6401,-0.6418,-0.6374,-0.629,-0.6238,-0.6151,-0.6067,-0.6078,-0.6083,-0.5972,-0.5899,-0.5882,-0.5836,-0.5787,-0.5744,-0.5733,-0.5733,-0.5733,-0.5684,-0.5635,-0.5537,-0.5461,-0.5409,-0.5347,-0.5336,-0.5277,-0.5268,-0.5219,-0.4894,-0.3552,-0.2289,-0.0,-0.0,-0.0,-0.0,-0.0,-0.8144,-0.8125,-0.8196,-0.8167,-0.8052,-0.7939,-0.7939,-0.7939,-0.8038,-0.7942,-0.7842,-0.7338,-0.7496,-0.7785,-0.7827,-0.7849,-0.7715,-0.7618,-0.7434,-0.726,-0.7177,-0.7211,-0.7149,-0.7196,-0.7196,-0.7227,-0.7252,-0.7149,-0.7154,-0.7154,-0.7154,-0.7154,-0.7154,-0.7154,-0.7235,-0.7196,-0.7183,-0.7227,-0.7221,-0.7202,-0.723,-0.7154,-0.7097,-0.6999,-0.6874,-0.676,-0.6654,-0.6532,-0.6464,-0.645,-0.6453,-0.6437,-0.6437,-0.6437,-0.6437,-0.6437,-0.6437,-0.6437,-0.6437,-0.6437,-0.6437,-0.6437,-0.6437,-0.6437,-0.6437,-0.6437,-0.6437,-0.6437,-0.6437,-0.6437,-0.6437,-0.6437,-0.6437,-0.6437,-0.6434,-0.6434,-0.6429,-0.6426,-0.6431,-0.6437,-0.6412,-0.6377,-0.6347,-0.6298,-0.6233,-0.6146,-0.6113,-0.61,-0.6083,-0.6045,-0.6018,-0.5926,-0.5833,-0.5795,-0.5749,-0.5733,-0.5733,-0.5716,-0.5659,-0.5534,-0.5453,-0.5485,-0.5485,-0.536,-0.5398,-0.5308,-0.4828,-0.432,-0.2674,-0.0,-0.0,-0.0,-0.0,-0.0,-0.0,-0.8313,-0.8196,-0.815,-0.8062,-0.8041,-0.8038,-0.8038,-0.8038,-0.7939,-0.7739,-0.7437,-0.7338,-0.739,-0.7636,-0.7325,-0.7205,-0.7246,-0.7264,-0.7106,-0.6942,-0.6945,-0.7071,-0.7116,-0.7078,-0.7175,-0.7239,-0.7218,-0.7152,-0.7154,-0.7154,-0.7154,-0.7154,-0.7154,-0.7154,-0.7152,-0.7227,-0.7213,-0.7238,-0.7238,-0.7224,-0.7243,-0.7154,-0.7149,-0.7046,-0.6915,-0.6891,-0.6809,-0.6589,-0.6545,-0.6524,-0.6491,-0.645,-0.6437,-0.6437,-0.6437,-0.6437,-0.6437,-0.6437,-0.6437,-0.6437,-0.6437,-0.6437,-0.6437,-0.6437,-0.6437,-0.6437,-0.6437,-0.6437,-0.6437,-0.6437,-0.6437,-0.6437,-0.6437,-0.6437,-0.6437,-0.6437,-0.6434,-0.6434,-0.6437,-0.6437,-0.6429,-0.6415,-0.641,-0.6372,-0.6342,-0.6287,-0.6298,-0.6271,-0.6138,-0.6135,-0.6138,-0.6007,-0.5877,-0.5812,-0.5754,-0.5738,-0.5733,-0.5722,-0.5703,-0.5613,-0.5589,-0.5558,-0.5547,-0.4957,-0.5262,-0.5435,-0.4757,-0.0,-0.0,-0.0,-0.0,-0.0,-0.0,-0.0,-0.0]},{"header":{"parameterUnit":"m.s-1","parameterCategory":1,"la1":31.0,"la2":29.5877,"lo1":-88.7671,"lo2":-86.6584,"dy":0.0162,"dx":0.0185,"nx":115,"ny":88,"refTime":"2023-07-16T06:00:00:Z","depth":0,"parameterNumber":3,"parameterNumberName":"V-component_of_WINDS"},"data":[0.0,0.0,0.0,0.0,0.0,0.0,0.0,0.0,0.0,0.0,0.0,0.0,0.0,0.0,0.0,0.0,0.0,0.0,0.0,0.0,0.0,0.0,0.0,0.0,0.0,0.0,0.0,0.0,0.0,0.0,0.0,0.0,0.0,0.0,0.0,0.0,0.0,0.0,0.0,0.0,0.0,0.0,0.0,0.0,0.0,0.0,0.0,0.0,0.0,0.0,0.0,0.0,0.0,0.0,0.0,0.0,0.0,0.0,0.0,0.0,0.0,0.0,0.0,0.0,0.0,0.0,0.0,0.0,0.0,0.0,0.0,0.0,0.0,0.0,0.0,0.0,0.0,0.0,0.0,0.0,0.0,0.0,0.0,0.0,0.0,0.0,0.0,0.0,0.0,0.0,0.0,0.0,0.0,0.0,0.0,0.0,0.0,0.0,0.0,0.0,0.0,0.0,0.0,0.0,0.0,0.0,0.0,0.0,0.0,0.0,0.0,0.0,0.0,0.0,0.0,0.0,0.0,0.0,0.0,0.0,0.0,0.0,0.0,0.0,0.0,0.0,0.0,0.0,0.0,0.0,0.0,0.0,0.0,0.0,0.0,0.0,0.0,0.0,0.0,0.0,0.0,0.0,0.0,0.0,0.0,0.0,0.0,0.0,0.0,0.0,0.0,0.0,0.0,0.0,0.0,0.0,0.0,0.0,0.0,0.0,0.0,0.0,0.0,0.0,0.0,0.0,0.0,0.0,0.0,0.0,0.0,0.0,0.0,0.0,0.0,0.0,0.0,0.0,0.0,0.0,0.0,0.0,0.0,0.0,0.0,0.0,0.0,0.0,0.0,0.0,0.0,0.0,0.0,0.0,0.0,0.0,0.0,0.0,0.0,0.0,0.0,0.0,0.0,0.0,0.0,0.0,0.0,0.0,0.0,0.0,0.0,0.0,0.0,0.0,0.0,0.0,0.0,0.0,0.0,0.0,0.0,0.0,0.0,0.0,0.0,0.0,0.0,0.0,0.0,0.0,0.0,0.0,0.0,0.0,0.0,0.0,0.0,0.0,0.0,0.0,0.0,0.0,0.0,0.0,0.0,0.0,0.0,0.0,0.0,0.0,0.0,0.0,0.0,0.0,0.0,0.0,0.0,0.0,0.0,0.0,0.0,0.0,0.0,0.0,0.0,0.0,0.0,0.0,0.0,0.0,0.0,0.0,0.0,0.0,0.0,0.0,0.0,0.0,0.0,0.0,0.0,0.0,0.0,0.0,0.0,0.0,0.0,0.0,0.0,0.0,0.0,0.0,0.0,0.0,0.0,0.0,0.0,0.0,0.0,0.0,0.0,0.0,0.0,0.0,0.0,0.0,0.0,0.0,0.0,0.0,0.0,0.0,0.0,0.0,0.0,0.0,0.0,0.0,0.0,0.0,0.0,0.0,0.0,0.0,0.0,0.0,0.0,0.0,0.0,0.0,0.0,0.0,0.0,0.0,0.0,0.0,0.0,0.0,0.0,0.0,0.0,0.0,0.0,0.0,0.0,0.0,0.0,0.0,0.0,0.0,0.0,0.0,0.0,0.0,0.0,0.0,0.0,0.0,0.0,0.0,0.0,0.0,0.0,0.0,0.0,0.0,0.0,0.0,0.0,0.0,0.0,0.0,0.0,0.0,0.0,0.0,0.0,0.0,0.0,0.0,0.0,0.0,0.0,0.0,0.0,0.0,0.0,0.0,0.0,0.0,0.0,0.0,0.0,0.0,0.0,0.0,0.0,0.0,0.0,0.0,0.0,0.0,0.0,0.0,0.0,0.0,0.0,0.0,0.0,0.0,0.0,0.0,0.0,0.0,0.0,0.0,0.0,0.0,0.0,0.0,0.0,0.0,0.0,0.0,0.0,0.0,0.0,0.0,0.0,0.0,0.0,0.0,0.0,0.0,0.0,0.0,0.0,0.0,0.0,0.0,0.0,0.0,0.0,0.0,0.0,0.0,0.0,0.0,0.0,0.0,0.0,0.0,0.0,0.0,0.0,0.0,0.0,0.0,0.0,0.0,0.0,0.0,0.0,0.0,0.0,0.0,0.0,0.0,0.0,0.0,0.0,0.0,0.0,0.0,0.0,0.0,0.0,0.0,0.0,0.0,0.0,0.0,0.0,0.0,0.0,0.0,0.0,0.0,0.0,0.0,0.0,0.0,0.0,0.0,0.0,0.0,0.0,0.0,0.0,0.0,0.0,0.0,0.0,0.0,0.0,0.0,0.0,0.0,0.0,0.0,0.0,0.0,0.0,0.0,0.0,0.0,0.0,0.0,0.0,0.0,0.0,0.0,0.0,0.0,0.0,0.0,0.0,0.0,0.0,0.0,0.0,0.0,0.0,0.0,0.0,0.0,0.0,0.0,0.0,0.0,0.0,0.0,0.0,0.0,0.0,0.0,0.0,0.0,0.0,0.0,0.0,0.0,0.0,0.0,0.0,0.0,0.0,0.0,0.0,0.0,0.0,0.0,0.0,0.0,0.0,0.0,0.0,0.0,0.0,0.0,0.0,0.0,0.0,0.0,0.0,0.0,0.0,0.0,0.0,0.0,0.0,0.0,0.0,0.0,0.0,0.0,0.0,0.0,0.0,0.0,0.0,0.0,0.0,0.0,0.0,0.0,0.0,0.0,0.0,0.0,0.0,0.0,0.0,0.0,0.0,0.0,0.0,0.0,0.0,0.0,0.0,0.0,0.0,0.0,0.0,0.0,0.0,0.0,0.0,0.0,0.0,0.0,0.0,0.0,0.0,0.0,0.0,0.0,0.0,0.0,0.0,0.0,0.0,0.0,0.0,0.0,0.0,0.0,0.0,0.0,0.0,0.0,0.0,0.0,0.0,0.0,0.0,0.0,0.0,0.0,0.0,0.0,0.0,0.0,0.0,0.0,0.0,0.0,0.0,0.0,0.0,0.0,0.0,0.0,0.0,0.0,0.0,0.0,0.0,0.0,0.0,0.0,0.0,0.0,0.0,0.0,0.0,0.0,0.0,0.0,0.0,0.0,0.0,0.0,0.0,0.0,0.0,0.0,0.0,0.0,0.0,0.0,0.0,0.0,0.0,0.0,0.0,0.0,0.0,0.0,0.0,0.0,0.0,0.0,0.0,0.0,0.0,0.0,0.0,0.0,0.0,0.0,0.0,0.0,0.0,0.0,0.0,0.0,0.0,0.0,0.0,0.0,0.0,0.0,0.0,0.0,0.0,0.0,0.0,0.0,0.0,0.0,0.0,0.0,0.0,0.0,0.0,0.0,0.0,0.0,0.0,0.0,0.0,0.0,0.0,0.0,0.0,0.0,0.0,0.0,0.0,0.0,0.0,0.0,0.0,0.0,0.0,0.0,0.0,0.0,0.0,0.0,0.0,0.0,0.0,0.0,0.0,0.0,0.0,0.0,0.0,0.0,0.0,0.0,0.0,0.0,0.0,0.0,0.0,0.0,0.0,0.0,0.0,0.0,0.0,0.0,0.0,0.0,0.0,0.0,0.0,0.0,0.0,0.0,0.0,0.0,0.0,0.0,0.0,0.0,0.0,0.0,0.0,0.0,0.0,0.0,0.0,0.0,0.0,0.0,0.0,0.0,0.0,0.0,0.0,0.0,0.0,0.0,0.0,0.0,0.0,0.0,0.0,0.0,0.0,0.0,0.0,0.0,0.0,0.0,0.0,0.0,0.0,0.0,0.0,0.0,0.0,0.0,0.0,0.0,0.0,0.0,0.0,0.0,0.0,0.0,0.0,0.0,0.0,0.0,0.0,0.0,0.0,0.0,0.0,0.0,0.0,0.0,0.0,0.0,0.0,0.0,0.0,0.0,0.0,0.0,0.0,0.0,0.0,0.0,0.0,0.0,0.0,0.0,0.0,0.0,0.0,0.0,0.0,0.0,0.0,0.0,0.0,0.0,0.0,0.0,0.0,0.0,0.0,0.0,0.0,0.0,0.0,0.0,0.0,0.0,0.0,0.0,0.0,0.0,0.0,0.0,0.0,0.0,0.0,0.0,0.0,0.0,0.0,0.0,0.0,0.0,0.0,0.0,0.0,0.0,0.0,0.0,0.0,0.0,0.0,0.0,0.0,0.0,0.0,0.0,0.0,0.0,0.0,0.0,0.0,0.0,0.0,0.0,0.0,0.0,0.0,0.0,0.0,0.0,0.0,0.0,0.0,0.0,0.0,0.0,0.0,0.0,0.0,0.0,0.0,0.0,0.0,0.0,0.0,0.0,0.0,0.0,0.0,0.0,0.0,0.0,0.0,0.0,0.0,0.0,-1.6089,0.0,0.0,0.0,0.0,0.0,0.0,0.0,0.0,0.0,0.0,0.0,0.0,0.0,0.0,0.0,0.0,0.0,0.0,0.0,0.0,0.0,0.0,0.0,0.0,0.0,0.0,0.0,0.0,0.0,0.0,0.0,0.0,0.0,0.0,0.0,0.0,0.0,0.0,0.0,0.0,0.0,0.0,0.0,0.0,0.0,0.0,0.0,0.0,0.0,0.0,0.0,0.0,0.0,0.0,0.0,0.0,0.0,0.0,0.0,0.0,0.0,0.0,0.0,0.0,0.0,0.0,0.0,0.0,0.0,0.0,0.0,0.0,0.0,0.0,0.0,0.0,0.0,0.0,0.0,0.0,0.0,0.0,0.0,0.0,0.0,0.0,0.0,0.0,0.0,0.0,0.0,0.0,0.0,0.0,0.0,0.0,0.0,0.0,0.0,0.0,0.0,0.0,0.0,0.0,0.0,0.0,0.0,0.0,0.0,0.0,-1.7202,-1.7776,-1.5641,-1.5371,-1.7233,0.0,0.0,0.0,0.0,0.0,0.0,0.0,0.0,0.0,0.0,0.0,0.0,0.0,0.0,0.0,0.0,0.0,0.0,0.0,0.0,0.0,0.0,0.0,0.0,0.0,0.0,0.0,0.0,0.0,0.0,0.0,0.0,0.0,0.0,0.0,0.0,0.0,0.0,0.0,0.0,0.0,0.0,0.0,0.0,0.0,0.0,0.0,0.0,0.0,0.0,0.0,0.0,0.0,0.0,0.0,0.0,0.0,0.0,0.0,0.0,0.0,0.0,0.0,0.0,0.0,0.0,0.0,0.0,0.0,0.0,0.0,0.0,0.0,0.0,0.0,0.0,0.0,0.0,0.0,0.0,0.0,0.0,0.0,0.0,0.0,0.0,0.0,0.0,0.0,0.0,0.0,0.0,0.0,0.0,0.0,0.0,0.0,0.0,0.0,0.0,0.0,0.0,0.0,0.0,0.0,0.0,0.0,0.0,0.0,0.0,0.0,0.0,-1.6198,-1.6078,-1.8329,0.0,0.0,0.0,0.0,0.0,0.0,0.0,0.0,0.0,0.0,0.0,0.0,0.0,0.0,0.0,0.0,0.0,0.0,0.0,0.0,0.0,0.0,0.0,0.0,0.0,0.0,0.0,0.0,0.0,0.0,0.0,0.0,0.0,0.0,0.0,0.0,0.0,0.0,0.0,0.0,0.0,0.0,0.0,0.0,0.0,0.0,0.0,0.0,0.0,0.0,0.0,0.0,0.0,0.0,0.0,0.0,0.0,0.0,0.0,0.0,0.0,0.0,0.0,0.0,0.0,0.0,0.0,0.0,0.0,0.0,0.0,0.0,0.0,0.0,0.0,0.0,0.0,0.0,0.0,0.0,0.0,0.0,0.0,0.0,0.0,0.0,0.0,0.0,0.0,0.0,0.0,0.0,0.0,0.0,0.0,0.0,0.0,0.0,0.0,0.0,0.0,0.0,0.0,0.0,0.0,0.0,0.0,0.0,0.0,0.0,-1.8728,-1.9503,-1.9278,0.0,-1.9256,0.0,0.0,0.0,0.0,0.0,0.0,0.0,0.0,0.0,0.0,0.0,0.0,0.0,0.0,0.0,0.0,0.0,0.0,0.0,0.0,0.0,0.0,0.0,0.0,0.0,0.0,0.0,0.0,0.0,0.0,0.0,0.0,0.0,0.0,0.0,0.0,0.0,0.0,0.0,0.0,0.0,0.0,0.0,0.0,0.0,0.0,0.0,0.0,0.0,0.0,0.0,0.0,0.0,0.0,0.0,0.0,0.0,0.0,0.0,0.0,0.0,0.0,0.0,0.0,0.0,0.0,0.0,0.0,0.0,0.0,0.0,0.0,0.0,0.0,0.0,0.0,0.0,0.0,0.0,0.0,0.0,0.0,0.0,0.0,0.0,0.0,0.0,0.0,0.0,0.0,0.0,0.0,0.0,0.0,0.0,0.0,0.0,0.0,0.0,0.0,0.0,0.0,0.0,0.0,0.0,0.0,0.0,0.0,0.0,0.0,-1.9389,-1.975,-1.9846,-1.9385,0.0,0.0,0.0,0.0,0.0,0.0,0.0,0.0,0.0,0.0,0.0,0.0,0.0,0.0,0.0,0.0,0.0,0.0,0.0,0.0,0.0,0.0,0.0,0.0,0.0,0.0,0.0,0.0,0.0,0.0,0.0,0.0,0.0,0.0,0.0,0.0,0.0,0.0,0.0,0.0,0.0,0.0,0.0,0.0,0.0,0.0,0.0,0.0,0.0,0.0,0.0,0.0,0.0,0.0,0.0,0.0,0.0,0.0,0.0,0.0,0.0,0.0,0.0,0.0,0.0,0.0,0.0,0.0,0.0,0.0,0.0,0.0,0.0,0.0,0.0,0.0,0.0,0.0,0.0,0.0,0.0,0.0,0.0,0.0,0.0,0.0,0.0,0.0,0.0,0.0,0.0,0.0,0.0,0.0,0.0,0.0,0.0,0.0,0.0,0.0,0.0,0.0,0.0,0.0,0.0,0.0,0.0,0.0,0.0,0.0,-1.9588,-1.9788,-1.985,-1.9731,-1.9109,-1.7968,0.0,0.0,0.0,0.0,0.0,0.0,0.0,0.0,0.0,0.0,0.0,0.0,0.0,0.0,0.0,0.0,0.0,0.0,0.0,0.0,0.0,0.0,0.0,0.0,0.0,0.0,0.0,0.0,0.0,0.0,0.0,0.0,0.0,0.0,0.0,0.0,0.0,0.0,0.0,0.0,0.0,0.0,0.0,0.0,0.0,0.0,0.0,0.0,0.0,0.0,0.0,0.0,0.0,0.0,0.0,0.0,0.0,0.0,0.0,0.0,0.0,0.0,0.0,0.0,0.0,0.0,0.0,0.0,0.0,0.0,0.0,0.0,0.0,0.0,0.0,0.0,0.0,0.0,0.0,0.0,0.0,0.0,0.0,0.0,0.0,0.0,0.0,0.0,0.0,0.0,0.0,0.0,0.0,0.0,0.0,0.0,0.0,0.0,0.0,0.0,0.0,0.0,0.0,0.0,0.0,0.0,0.0,0.0,-2.0732,-2.0281,-1.9982,-2.0002,-1.9269,-1.8842,0.0,0.0,0.0,0.0,0.0,0.0,0.0,0.0,0.0,0.0,0.0,0.0,0.0,0.0,0.0,0.0,0.0,0.0,0.0,0.0,0.0,0.0,0.0,0.0,0.0,0.0,0.0,0.0,0.0,0.0,0.0,0.0,0.0,0.0,0.0,0.0,0.0,0.0,0.0,0.0,0.0,0.0,0.0,0.0,0.0,0.0,0.0,0.0,0.0,0.0,0.0,0.0,0.0,0.0,0.0,0.0,0.0,0.0,0.0,0.0,0.0,0.0,0.0,0.0,0.0,0.0,0.0,0.0,0.0,0.0,0.0,0.0,0.0,0.0,0.0,0.0,0.0,0.0,0.0,0.0,0.0,0.0,0.0,0.0,0.0,0.0,0.0,0.0,0.0,0.0,0.0,0.0,0.0,0.0,0.0,0.0,0.0,0.0,0.0,0.0,0.0,0.0,0.0,0.0,0.0,0.0,0.0,0.0,0.0,-1.9552,-1.9857,-2.0234,-2.0662,-1.9966,-1.9573,0.0,0.0,0.0,0.0,0.0,0.0,0.0,0.0,0.0,0.0,0.0,0.0,0.0,0.0,0.0,0.0,0.0,0.0,0.0,0.0,0.0,0.0,0.0,0.0,0.0,0.0,0.0,0.0,0.0,0.0,0.0,0.0,0.0,0.0,0.0,0.0,0.0,0.0,0.0,0.0,0.0,0.0,0.0,0.0,0.0,0.0,0.0,0.0,0.0,0.0,0.0,0.0,0.0,0.0,0.0,0.0,0.0,0.0,0.0,0.0,0.0,0.0,0.0,0.0,0.0,0.0,0.0,0.0,0.0,0.0,0.0,0.0,0.0,0.0,0.0,0.0,0.0,0.0,0.0,0.0,0.0,0.0,0.0,0.0,0.0,0.0,0.0,0.0,0.0,0.0,0.0,0.0,0.0,0.0,0.0,0.0,0.0,0.0,0.0,0.0,0.0,0.0,0.0,0.0,0.0,0.0,0.0,0.0,0.0,-1.9199,0.0,-2.011,-2.0342,-1.9877,-1.9484,0.0,0.0,0.0,0.0,0.0,0.0,0.0,0.0,0.0,0.0,0.0,0.0,0.0,0.0,0.0,0.0,0.0,0.0,0.0,0.0,0.0,0.0,0.0,0.0,0.0,0.0,0.0,0.0,0.0,0.0,0.0,0.0,0.0,0.0,0.0,0.0,0.0,0.0,0.0,0.0,0.0,0.0,0.0,0.0,0.0,0.0,0.0,0.0,0.0,0.0,0.0,0.0,0.0,0.0,0.0,0.0,0.0,0.0,0.0,0.0,0.0,0.0,0.0,0.0,0.0,0.0,0.0,0.0,0.0,0.0,0.0,0.0,0.0,0.0,0.0,0.0,0.0,0.0,0.0,0.0,0.0,0.0,0.0,0.0,0.0,0.0,0.0,0.0,0.0,0.0,0.0,0.0,0.0,0.0,0.0,0.0,0.0,0.0,0.0,0.0,0.0,0.0,0.0,0.0,0.0,0.0,0.0,0.0,-1.9164,-1.9935,-1.9953,-1.9703,-1.8986,-1.8896,-1.8467,0.0,0.0,0.0,0.0,0.0,0.0,0.0,0.0,0.0,0.0,0.0,0.0,0.0,0.0,0.0,0.0,0.0,0.0,0.0,0.0,0.0,0.0,0.0,0.0,0.0,0.0,0.0,0.0,0.0,0.0,0.0,0.0,0.0,0.0,0.0,0.0,0.0,0.0,0.0,0.0,0.0,0.0,0.0,0.0,0.0,0.0,0.0,0.0,0.0,0.0,0.0,0.0,0.0,0.0,0.0,0.0,0.0,0.0,0.0,0.0,0.0,0.0,0.0,0.0,0.0,0.0,0.0,0.0,0.0,0.0,0.0,0.0,0.0,0.0,0.0,0.0,0.0,0.0,0.0,0.0,0.0,0.0,0.0,0.0,0.0,0.0,0.0,0.0,0.0,0.0,0.0,0.0,0.0,0.0,0.0,0.0,0.0,0.0,0.0,0.0,0.0,0.0,0.0,0.0,0.0,0.0,0.0,0.0,0.0,-1.9237,-1.936,-2.0047,-2.1173,-1.9183,-1.895,0.0,0.0,0.0,0.0,0.0,0.0,0.0,0.0,0.0,0.0,0.0,0.0,0.0,0.0,0.0,0.0,0.0,0.0,0.0,0.0,0.0,0.0,0.0,0.0,0.0,0.0,0.0,0.0,0.0,0.0,0.0,0.0,0.0,0.0,0.0,0.0,0.0,0.0,0.0,0.0,0.0,0.0,0.0,0.0,0.0,0.0,0.0,0.0,0.0,0.0,0.0,0.0,0.0,0.0,0.0,0.0,0.0,0.0,0.0,0.0,0.0,0.0,0.0,0.0,0.0,0.0,0.0,0.0,0.0,0.0,0.0,0.0,0.0,0.0,0.0,0.0,0.0,0.0,0.0,0.0,0.0,0.0,0.0,0.0,0.0,0.0,0.0,0.0,0.0,0.0,0.0,0.0,0.0,0.0,0.0,0.0,0.0,0.0,0.0,0.0,0.0,0.0,0.0,0.0,0.0,0.0,0.0,0.0,0.0,-2.0059,-2.0056,-2.0751,-2.2092,-2.0119,-1.9686,-2.0996,0.0,0.0,0.0,0.0,0.0,0.0,0.0,0.0,0.0,0.0,0.0,0.0,0.0,0.0,0.0,0.0,0.0,0.0,0.0,0.0,0.0,0.0,0.0,0.0,0.0,0.0,0.0,0.0,0.0,0.0,0.0,0.0,0.0,0.0,0.0,0.0,0.0,0.0,0.0,0.0,0.0,0.0,0.0,0.0,0.0,0.0,0.0,0.0,0.0,0.0,0.0,0.0,0.0,0.0,0.0,0.0,0.0,0.0,0.0,0.0,0.0,0.0,0.0,0.0,0.0,0.0,0.0,0.0,0.0,0.0,0.0,0.0,0.0,0.0,0.0,0.0,0.0,0.0,0.0,0.0,0.0,0.0,0.0,0.0,0.0,0.0,0.0,0.0,0.0,0.0,0.0,0.0,0.0,0.0,0.0,0.0,0.0,0.0,0.0,0.0,0.0,0.0,0.0,0.0,0.0,0.0,0.0,0.0,-2.2099,-2.1947,-2.1934,-2.1931,-2.1479,-2.0606,0.0,0.0,0.0,0.0,0.0,0.0,0.0,0.0,0.0,0.0,0.0,0.0,0.0,0.0,0.0,0.0,0.0,0.0,0.0,0.0,0.0,0.0,0.0,0.0,0.0,0.0,0.0,0.0,0.0,0.0,0.0,0.0,0.0,0.0,0.0,0.0,0.0,0.0,0.0,0.0,0.0,0.0,0.0,0.0,0.0,0.0,0.0,0.0,0.0,0.0,0.0,0.0,0.0,0.0,0.0,0.0,0.0,0.0,0.0,0.0,0.0,0.0,0.0,0.0,0.0,0.0,0.0,0.0,0.0,0.0,0.0,0.0,0.0,0.0,0.0,0.0,0.0,0.0,0.0,0.0,0.0,0.0,0.0,0.0,0.0,0.0,0.0,0.0,0.0,0.0,0.0,0.0,0.0,0.0,0.0,0.0,0.0,0.0,0.0,0.0,0.0,0.0,0.0,0.0,0.0,0.0,0.0,0.0,0.0,-2.3982,-2.5082,-2.5263,-2.4337,-2.2147,-2.1213,0.0,0.0,0.0,0.0,0.0,0.0,0.0,0.0,0.0,0.0,0.0,0.0,0.0,0.0,0.0,0.0,0.0,0.0,0.0,0.0,0.0,0.0,0.0,0.0,0.0,0.0,0.0,0.0,0.0,0.0,0.0,0.0,0.0,0.0,0.0,0.0,0.0,0.0,0.0,0.0,0.0,0.0,0.0,0.0,0.0,0.0,0.0,0.0,0.0,0.0,0.0,0.0,0.0,0.0,0.0,0.0,0.0,0.0,0.0,0.0,0.0,0.0,0.0,0.0,0.0,0.0,0.0,0.0,0.0,0.0,0.0,0.0,0.0,0.0,0.0,0.0,0.0,0.0,0.0,0.0,0.0,0.0,0.0,0.0,0.0,0.0,0.0,0.0,0.0,0.0,0.0,0.0,0.0,0.0,0.0,0.0,0.0,0.0,0.0,0.0,0.0,0.0,0.0,0.0,0.0,0.0,0.0,0.0,-2.4661,-2.5872,-2.7452,-2.792,-2.7176,-2.5038,-2.3373,0.0,0.0,0.0,0.0,0.0,0.0,0.0,0.0,0.0,0.0,0.0,0.0,0.0,0.0,0.0,0.0,0.0,0.0,0.0,0.0,0.0,0.0,0.0,0.0,0.0,0.0,0.0,0.0,0.0,0.0,0.0,0.0,0.0,0.0,0.0,0.0,0.0,0.0,0.0,0.0,0.0,0.0,0.0,0.0,0.0,0.0,0.0,0.0,0.0,0.0,0.0,0.0,0.0,0.0,0.0,0.0,0.0,0.0,0.0,0.0,0.0,0.0,0.0,0.0,0.0,0.0,0.0,0.0,0.0,0.0,0.0,0.0,0.0,0.0,0.0,0.0,0.0,0.0,0.0,0.0,0.0,0.0,0.0,0.0,0.0,0.0,0.0,0.0,0.0,0.0,0.0,0.0,0.0,0.0,0.0,0.0,0.0,0.0,0.0,0.0,0.0,0.0,0.0,0.0,0.0,0.0,0.0,0.0,-2.6625,-2.7514,-2.9178,-3.0045,-2.9943,-2.8652,-2.6042,0.0,0.0,0.0,0.0,0.0,0.0,0.0,0.0,0.0,0.0,0.0,0.0,0.0,0.0,0.0,0.0,0.0,0.0,0.0,0.0,0.0,0.0,0.0,0.0,0.0,0.0,0.0,0.0,0.0,0.0,0.0,0.0,0.0,0.0,0.0,0.0,0.0,0.0,0.0,0.0,0.0,0.0,0.0,0.0,0.0,0.0,0.0,0.0,0.0,0.0,0.0,0.0,0.0,0.0,0.0,0.0,0.0,0.0,0.0,0.0,0.0,0.0,0.0,0.0,0.0,0.0,0.0,0.0,0.0,0.0,0.0,0.0,0.0,0.0,0.0,0.0,0.0,0.0,0.0,0.0,0.0,0.0,0.0,0.0,0.0,0.0,0.0,0.0,0.0,0.0,0.0,0.0,0.0,0.0,0.0,0.0,0.0,0.0,0.0,0.0,0.0,0.0,0.0,0.0,0.0,0.0,0.0,0.0,-2.6692,-2.7594,-2.9825,-3.1295,-3.1874,-2.8455,-2.548,0.0,0.0,0.0,0.0,0.0,0.0,0.0,0.0,0.0,0.0,0.0,0.0,0.0,0.0,0.0,0.0,0.0,0.0,0.0,0.0,0.0,0.0,0.0,0.0,0.0,0.0,0.0,0.0,0.0,0.0,0.0,0.0,0.0,0.0,0.0,0.0,0.0,0.0,0.0,0.0,0.0,0.0,0.0,0.0,0.0,0.0,0.0,0.0,-1.9148,0.0,0.0,0.0,0.0,0.0,0.0,0.0,0.0,0.0,0.0,0.0,0.0,0.0,0.0,0.0,0.0,0.0,0.0,0.0,0.0,0.0,0.0,0.0,0.0,0.0,0.0,0.0,0.0,0.0,0.0,0.0,0.0,0.0,0.0,0.0,0.0,0.0,0.0,0.0,0.0,0.0,0.0,0.0,0.0,0.0,0.0,0.0,0.0,0.0,0.0,0.0,0.0,0.0,0.0,0.0,0.0,0.0,0.0,0.0,-2.654,-2.8193,-2.9855,-3.0944,-3.1238,-2.8445,-2.5953,0.0,0.0,0.0,0.0,0.0,0.0,0.0,0.0,0.0,0.0,0.0,0.0,0.0,0.0,0.0,0.0,0.0,0.0,0.0,0.0,0.0,0.0,0.0,0.0,0.0,0.0,0.0,0.0,0.0,0.0,0.0,0.0,0.0,0.0,0.0,0.0,0.0,0.0,0.0,0.0,0.0,0.0,0.0,0.0,0.0,0.0,0.0,0.0,0.0,0.0,0.0,0.0,0.0,0.0,0.0,0.0,0.0,0.0,0.0,0.0,0.0,0.0,0.0,0.0,0.0,0.0,0.0,0.0,0.0,0.0,0.0,0.0,0.0,0.0,0.0,0.0,0.0,0.0,0.0,0.0,0.0,0.0,0.0,0.0,0.0,0.0,0.0,0.0,0.0,0.0,0.0,0.0,0.0,0.0,0.0,0.0,0.0,0.0,0.0,0.0,0.0,0.0,0.0,0.0,0.0,0.0,0.0,-2.4467,-2.6466,-2.8798,-2.9813,-3.0236,-3.0087,-2.8489,-2.6707,-2.4869,0.0,0.0,0.0,0.0,0.0,0.0,0.0,0.0,0.0,0.0,0.0,0.0,0.0,0.0,0.0,0.0,0.0,0.0,0.0,0.0,0.0,0.0,0.0,0.0,0.0,0.0,0.0,0.0,0.0,0.0,0.0,0.0,0.0,0.0,0.0,0.0,0.0,0.0,-1.9065,-1.9084,0.0,0.0,0.0,0.0,0.0,0.0,0.0,0.0,-1.9516,0.0,0.0,0.0,0.0,0.0,0.0,0.0,0.0,0.0,0.0,0.0,0.0,0.0,0.0,0.0,0.0,0.0,0.0,0.0,0.0,0.0,0.0,0.0,0.0,0.0,0.0,0.0,0.0,0.0,0.0,0.0,0.0,0.0,0.0,0.0,0.0,0.0,0.0,0.0,0.0,0.0,0.0,0.0,0.0,0.0,0.0,0.0,0.0,0.0,0.0,0.0,0.0,0.0,0.0,0.0,0.0,-2.3678,-2.5342,-2.7077,-2.8859,-3.0386,-3.0829,-3.0094,-2.8474,-2.679,-2.5158,0.0,0.0,0.0,0.0,0.0,0.0,0.0,0.0,0.0,0.0,0.0,0.0,0.0,0.0,0.0,0.0,0.0,0.0,0.0,0.0,0.0,0.0,0.0,0.0,0.0,0.0,0.0,0.0,0.0,0.0,0.0,0.0,0.0,0.0,0.0,0.0,0.0,0.0,0.0,-1.8453,-1.8157,0.0,0.0,0.0,0.0,0.0,0.0,0.0,0.0,-2.0389,0.0,0.0,0.0,0.0,0.0,0.0,0.0,0.0,0.0,0.0,0.0,0.0,0.0,0.0,0.0,0.0,0.0,0.0,0.0,0.0,0.0,0.0,0.0,0.0,0.0,0.0,0.0,0.0,0.0,0.0,0.0,0.0,0.0,0.0,0.0,0.0,0.0,0.0,0.0,0.0,0.0,0.0,0.0,0.0,0.0,0.0,0.0,0.0,0.0,0.0,0.0,0.0,0.0,0.0,0.0,-2.39,-2.5545,-2.7014,-2.8261,-2.9464,-2.9693,-2.8859,-2.7217,-2.5945,0.0,0.0,0.0,0.0,0.0,0.0,0.0,0.0,0.0,0.0,0.0,0.0,0.0,0.0,0.0,0.0,0.0,0.0,0.0,0.0,0.0,0.0,0.0,0.0,0.0,0.0,0.0,0.0,0.0,0.0,0.0,0.0,0.0,0.0,0.0,0.0,0.0,0.0,0.0,0.0,-1.9364,-1.9205,-1.7938,0.0,0.0,0.0,0.0,0.0,0.0,-1.9991,-2.053,0.0,0.0,0.0,0.0,0.0,0.0,0.0,0.0,0.0,0.0,0.0,0.0,0.0,0.0,0.0,0.0,0.0,0.0,0.0,0.0,0.0,0.0,0.0,0.0,0.0,0.0,0.0,0.0,0.0,0.0,0.0,0.0,0.0,0.0,0.0,0.0,0.0,0.0,0.0,0.0,0.0,0.0,0.0,0.0,0.0,0.0,0.0,0.0,0.0,0.0,0.0,0.0,0.0,0.0,0.0,-2.3938,-2.5373,-2.6587,-2.7415,-2.8223,-2.8275,-2.7453,-2.5982,-2.518,0.0,0.0,0.0,0.0,0.0,0.0,0.0,0.0,0.0,0.0,0.0,0.0,0.0,0.0,0.0,0.0,0.0,0.0,0.0,0.0,0.0,0.0,0.0,0.0,0.0,0.0,0.0,0.0,0.0,0.0,0.0,0.0,0.0,0.0,0.0,0.0,0.0,0.0,0.0,0.0,0.0,-2.0185,-1.8871,-1.8665,0.0,0.0,0.0,0.0,-1.9572,-2.0471,0.0,0.0,0.0,0.0,0.0,0.0,0.0,0.0,0.0,0.0,0.0,0.0,0.0,0.0,0.0,0.0,0.0,0.0,0.0,0.0,0.0,0.0,0.0,0.0,0.0,0.0,0.0,0.0,0.0,0.0,0.0,0.0,0.0,0.0,0.0,0.0,0.0,0.0,0.0,0.0,0.0,0.0,0.0,0.0,0.0,0.0,0.0,0.0,0.0,0.0,0.0,0.0,0.0,0.0,0.0,0.0,-2.3938,-2.4836,-2.5734,-2.6536,-2.7377,-2.7415,-2.6574,-2.5669,-2.521,0.0,0.0,0.0,0.0,0.0,0.0,0.0,0.0,0.0,0.0,0.0,0.0,0.0,0.0,0.0,0.0,0.0,0.0,0.0,0.0,0.0,0.0,0.0,0.0,0.0,0.0,0.0,0.0,0.0,0.0,0.0,0.0,0.0,0.0,0.0,0.0,0.0,0.0,0.0,0.0,0.0,-1.98,-1.9663,-1.9582,-1.9382,0.0,0.0,0.0,-1.9948,-2.1085,0.0,0.0,0.0,0.0,0.0,0.0,0.0,0.0,0.0,0.0,0.0,0.0,0.0,0.0,0.0,0.0,0.0,0.0,0.0,0.0,0.0,0.0,0.0,0.0,0.0,0.0,0.0,0.0,0.0,0.0,0.0,0.0,0.0,0.0,0.0,0.0,0.0,0.0,0.0,0.0,0.0,0.0,0.0,0.0,0.0,0.0,0.0,0.0,0.0,0.0,0.0,0.0,0.0,0.0,0.0,-2.4633,-2.4656,-2.5451,-2.6044,-2.6383,-2.6765,-2.6326,-2.5008,-2.4148,-2.3728,0.0,0.0,0.0,0.0,0.0,0.0,0.0,0.0,0.0,0.0,0.0,0.0,0.0,0.0,0.0,0.0,0.0,0.0,0.0,0.0,0.0,0.0,0.0,0.0,0.0,0.0,0.0,0.0,0.0,0.0,0.0,0.0,0.0,0.0,0.0,0.0,0.0,0.0,0.0,0.0,0.0,0.0,-1.9945,-1.9476,0.0,0.0,0.0,-1.9711,-1.9939,0.0,0.0,0.0,0.0,0.0,0.0,0.0,0.0,0.0,0.0,0.0,0.0,0.0,0.0,0.0,0.0,0.0,0.0,0.0,0.0,0.0,0.0,0.0,0.0,0.0,0.0,0.0,0.0,0.0,0.0,0.0,0.0,0.0,0.0,0.0,0.0,0.0,0.0,0.0,0.0,0.0,0.0,0.0,0.0,0.0,0.0,0.0,0.0,0.0,0.0,0.0,0.0,0.0,0.0,0.0,0.0,0.0,-2.521,-2.5807,-2.6113,-2.6097,-2.6078,-2.5504,-2.4263,-2.3174,0.0,0.0,0.0,0.0,0.0,0.0,0.0,0.0,0.0,0.0,0.0,0.0,0.0,0.0,0.0,0.0,0.0,0.0,0.0,0.0,0.0,0.0,0.0,0.0,0.0,0.0,0.0,-2.0031,0.0,0.0,0.0,0.0,0.0,0.0,0.0,0.0,0.0,0.0,0.0,0.0,0.0,0.0,-2.1363,-2.0674,-1.9926,-1.961,0.0,0.0,-1.9592,-2.025,-2.1583,-2.2361,0.0,0.0,0.0,0.0,0.0,0.0,0.0,0.0,0.0,0.0,0.0,0.0,0.0,0.0,0.0,0.0,0.0,0.0,0.0,0.0,0.0,0.0,0.0,0.0,0.0,0.0,0.0,0.0,0.0,0.0,0.0,0.0,0.0,0.0,0.0,0.0,0.0,0.0,0.0,0.0,0.0,0.0,0.0,0.0,0.0,0.0,0.0,0.0,0.0,0.0,0.0,0.0,0.0,0.0,0.0,-2.521,-2.5268,-2.5298,-2.5287,-2.5268,-2.5229,-2.5077,-2.3479,-2.3346,0.0,0.0,0.0,0.0,0.0,0.0,0.0,0.0,0.0,0.0,0.0,0.0,0.0,0.0,0.0,0.0,0.0,0.0,0.0,0.0,0.0,0.0,0.0,0.0,0.0,0.0,0.0,0.0,0.0,0.0,0.0,0.0,0.0,0.0,0.0,0.0,0.0,0.0,0.0,0.0,0.0,-2.2446,-2.2499,-2.1723,-2.0957,0.0,0.0,-2.1167,-2.1292,-2.2036,-2.2799,-2.343,0.0,0.0,0.0,0.0,0.0,0.0,0.0,0.0,0.0,0.0,0.0,0.0,0.0,0.0,0.0,0.0,0.0,0.0,0.0,0.0,0.0,0.0,0.0,0.0,0.0,0.0,0.0,0.0,0.0,0.0,0.0,0.0,0.0,0.0,0.0,0.0,0.0,0.0,0.0,0.0,0.0,0.0,0.0,0.0,0.0,0.0,0.0,0.0,0.0,0.0,0.0,0.0,0.0,-2.5249,-2.521,-2.5283,-2.5293,-2.5203,-2.5239,-2.4772,-2.3727,-2.3005,-2.2729,0.0,0.0,0.0,0.0,0.0,0.0,0.0,0.0,0.0,0.0,0.0,0.0,0.0,0.0,0.0,0.0,0.0,0.0,0.0,0.0,0.0,0.0,0.0,0.0,0.0,0.0,0.0,0.0,-1.956,-1.9298,-2.0331,0.0,0.0,0.0,0.0,0.0,0.0,0.0,0.0,0.0,0.0,-2.1949,-2.1902,-2.1218,0.0,0.0,-2.1367,-2.1674,-2.2254,-2.302,-2.3667,-2.3967,-2.4667,0.0,0.0,0.0,0.0,0.0,0.0,0.0,0.0,0.0,0.0,0.0,0.0,0.0,0.0,0.0,0.0,0.0,0.0,0.0,0.0,0.0,0.0,0.0,0.0,0.0,0.0,0.0,0.0,0.0,0.0,0.0,0.0,0.0,0.0,0.0,0.0,0.0,0.0,0.0,0.0,0.0,0.0,0.0,0.0,0.0,0.0,0.0,0.0,0.0,0.0,0.0,0.0,-2.5405,-2.5592,-2.5474,-2.5367,-2.5271,-2.5303,-2.4647,-2.3248,-2.313,-2.2849,0.0,0.0,0.0,0.0,0.0,0.0,0.0,0.0,0.0,0.0,0.0,0.0,0.0,0.0,0.0,0.0,0.0,0.0,0.0,0.0,0.0,0.0,0.0,0.0,0.0,0.0,0.0,0.0,-2.0353,-1.9973,-2.0658,0.0,0.0,0.0,0.0,0.0,0.0,0.0,0.0,0.0,0.0,-2.2335,-2.223,-2.1567,-2.1294,-2.1965,-2.2009,-2.2207,-2.2759,-2.3589,-2.4141,-2.4163,0.0,0.0,0.0,0.0,0.0,0.0,0.0,0.0,0.0,0.0,0.0,0.0,0.0,0.0,0.0,0.0,0.0,0.0,0.0,0.0,0.0,0.0,0.0,0.0,0.0,0.0,0.0,0.0,0.0,0.0,0.0,0.0,0.0,0.0,0.0,0.0,0.0,0.0,0.0,0.0,0.0,0.0,0.0,0.0,0.0,0.0,0.0,0.0,0.0,0.0,0.0,0.0,0.0,0.0,-2.6456,-2.5732,-2.5368,-2.5379,-2.5387,-2.4942,-2.4065,-2.4099,-2.4099,-2.4026,0.0,0.0,0.0,0.0,0.0,0.0,0.0,0.0,0.0,0.0,0.0,0.0,0.0,0.0,0.0,0.0,0.0,0.0,0.0,0.0,0.0,0.0,0.0,0.0,0.0,0.0,-2.3792,-2.2593,-2.1043,0.0,0.0,0.0,0.0,0.0,0.0,0.0,0.0,0.0,0.0,-2.4648,-2.4134,-2.4092,-2.3388,-2.2794,-2.2871,-2.2887,-2.2866,-2.2861,-2.3515,-2.3995,0.0,0.0,0.0,0.0,0.0,0.0,0.0,0.0,0.0,0.0,0.0,0.0,0.0,0.0,0.0,0.0,0.0,0.0,0.0,0.0,0.0,0.0,0.0,0.0,0.0,0.0,0.0,0.0,-2.9351,0.0,0.0,0.0,0.0,0.0,0.0,0.0,0.0,0.0,0.0,0.0,-2.9892,-2.9327,0.0,0.0,0.0,0.0,0.0,0.0,0.0,0.0,0.0,0.0,0.0,0.0,-2.6316,-2.6428,-2.5337,-2.4677,-2.4517,-2.4057,-2.3657,-2.3366,-2.3353,-2.3603,-2.4164,0.0,0.0,0.0,0.0,0.0,0.0,0.0,0.0,0.0,0.0,0.0,0.0,0.0,0.0,0.0,0.0,0.0,0.0,0.0,0.0,0.0,0.0,0.0,0.0,0.0,-2.3581,0.0,0.0,0.0,0.0,0.0,0.0,0.0,0.0,0.0,0.0,0.0,-2.5415,-2.5456,-2.4749,-2.4208,-2.4192,-2.3439,-2.3083,0.0,0.0,0.0,0.0,0.0,0.0,0.0,0.0,0.0,0.0,0.0,0.0,0.0,0.0,-2.6515,-2.5382,-2.5192,-2.5243,-2.5233,0.0,0.0,0.0,0.0,0.0,0.0,0.0,0.0,0.0,0.0,0.0,0.0,0.0,0.0,0.0,0.0,-3.059,0.0,0.0,0.0,0.0,0.0,0.0,0.0,0.0,-3.0166,-3.0243,-3.0774,-3.0224,-3.0239,0.0,-3.0219,-2.9635,0.0,0.0,0.0,0.0,0.0,0.0,0.0,0.0,-2.6684,-2.6562,-2.5735,-2.4929,-2.4232,-2.4033,-2.3509,-2.2634,-2.2838,-2.3384,-2.4238,-2.456,-2.4018,0.0,0.0,0.0,0.0,0.0,0.0,0.0,0.0,0.0,0.0,0.0,0.0,0.0,0.0,0.0,0.0,0.0,0.0,0.0,0.0,0.0,0.0,0.0,-2.3944,0.0,0.0,0.0,0.0,0.0,0.0,0.0,0.0,0.0,-2.5511,-2.5511,-2.5511,-2.5511,-2.4981,-2.4606,-2.4609,0.0,0.0,0.0,0.0,0.0,0.0,0.0,-2.6449,-2.6968,-2.7055,-2.7228,-2.7796,-2.7892,-2.7892,-2.7901,0.0,0.0,-2.6409,-2.5967,-2.5851,-2.614,-2.5956,-2.5841,-2.6159,-2.6237,-2.6266,0.0,0.0,0.0,0.0,0.0,0.0,0.0,0.0,-3.1006,-3.1538,0.0,-3.1219,0.0,0.0,0.0,0.0,0.0,0.0,0.0,0.0,-3.1013,-3.0959,-3.1008,-3.0994,-3.093,-3.093,-3.0877,-3.0818,-3.0682,-2.8318,0.0,0.0,0.0,0.0,0.0,0.0,-2.6781,-2.6857,-2.6831,-2.6085,-2.4549,-2.5212,-2.4432,-2.2075,-2.2737,-2.3556,-2.4409,-2.5128,-2.511,-2.427,-2.4866,0.0,0.0,0.0,0.0,0.0,0.0,0.0,0.0,0.0,0.0,0.0,0.0,0.0,0.0,0.0,0.0,0.0,0.0,0.0,0.0,-2.5511,0.0,0.0,0.0,0.0,0.0,0.0,0.0,0.0,0.0,0.0,-2.5588,-2.5511,-2.5511,-2.5542,0.0,0.0,0.0,0.0,-2.5717,-2.6497,-2.6631,-2.6928,-2.7736,-2.7871,-2.789,-2.7928,0.0,0.0,-2.7979,-2.7988,-2.8025,-2.7986,-2.8063,-2.7967,-2.7986,-2.7236,-2.6909,-2.764,-2.7159,-2.6948,-2.764,-2.7717,-2.7766,-3.7588,0.0,0.0,0.0,0.0,-3.5038,-3.4885,-3.4361,-3.4212,-3.3722,-3.2966,-3.1948,0.0,0.0,0.0,0.0,0.0,0.0,-3.281,-3.3472,-3.4144,-3.4438,-3.4418,-3.3804,-3.3507,-3.3468,-3.2284,-3.1739,-3.1641,-2.9741,-2.9138,-2.9768,0.0,0.0,0.0,0.0,-2.7713,-2.7693,-2.7186,-2.6381,-2.5348,-2.4959,-2.4432,-2.3673,-2.3887,-2.4432,-2.529,-2.5531,-2.5484,-2.5149,-2.5311,0.0,0.0,0.0,0.0,0.0,0.0,0.0,0.0,0.0,0.0,0.0,0.0,0.0,0.0,0.0,0.0,0.0,0.0,0.0,-2.5511,-2.5511,-2.5124,0.0,0.0,0.0,0.0,0.0,0.0,0.0,0.0,0.0,-2.6276,-2.5804,-2.5661,0.0,0.0,-2.5839,-2.7007,-2.667,-2.6554,-2.742,0.0,0.0,0.0,-2.789,-2.8082,-2.8659,-2.9267,-2.969,-2.969,-2.9679,-2.9679,-2.9667,-2.9698,-2.9698,-2.9621,-2.8486,-2.7698,-2.7832,-2.7678,-2.7582,-2.7813,-2.789,-2.7901,-4.131,-3.9625,-3.8141,-3.7313,-3.7095,-3.7544,-3.7301,-3.6549,-3.6272,-3.597,-3.5567,-3.4099,-3.3492,-3.3557,-3.2842,0.0,0.0,0.0,-3.4703,-3.5587,-3.6156,-3.6426,-3.6381,-3.5869,-3.5455,-3.5065,-3.3726,-3.3103,-3.3064,-3.1709,-3.1266,-3.1611,0.0,0.0,-2.9276,-2.8838,-2.8456,-2.8157,-2.7999,-2.737,-2.6205,-2.5017,-2.4569,-2.49,-2.4588,-2.4822,-2.566,-2.5699,-2.5667,-2.5576,-2.5529,-2.548,0.0,0.0,0.0,0.0,0.0,0.0,0.0,0.0,0.0,0.0,0.0,-2.5511,0.0,0.0,0.0,0.0,-2.5511,-2.5221,-2.4544,-2.5105,0.0,0.0,0.0,0.0,0.0,0.0,0.0,-2.4776,-2.5464,-2.6152,-2.6635,-2.6513,-2.6592,-2.715,-2.6727,-2.6776,-2.7758,0.0,-2.743,-2.8266,-2.8371,-2.8486,-2.8832,-2.889,-2.9063,-2.9525,-3.0044,-3.039,-3.0402,-3.0402,-3.0414,-3.0425,-3.0425,-3.0444,-3.0444,-2.9327,-2.8557,-2.8813,-2.8632,-2.8527,-2.8816,-2.8904,-2.8925,-4.4877,-4.4601,-4.226,-4.0713,-3.9835,-3.9874,-3.9398,-3.8566,-3.7843,-3.8267,-3.9399,-3.7073,-3.6833,-3.8077,-3.6454,0.0,0.0,-3.6114,-3.6657,-3.7584,-3.7531,-3.7545,-3.7598,-3.7403,-3.6877,-3.6084,-3.5148,-3.47,-3.4661,-3.3863,-3.3492,-3.3414,-3.0903,-2.9583,-2.9512,-2.9426,-2.9033,-2.8325,-2.9138,-2.8792,-2.7121,-2.5465,-2.4997,-2.5757,-2.4959,-2.4881,-2.564,-2.5699,-2.5699,-2.5699,-2.5595,-2.554,-2.5547,0.0,0.0,0.0,0.0,0.0,0.0,0.0,0.0,0.0,0.0,0.0,0.0,0.0,0.0,0.0,-2.5511,0.0,-2.3267,-2.4544,0.0,0.0,0.0,-2.5511,-2.5511,-2.5569,-2.5608,-2.5608,0.0,0.0,0.0,0.0,-2.8048,-2.8174,-2.8039,-2.7922,-2.7999,-2.792,-2.8209,-2.9063,-2.9121,-2.939,-3.0083,-3.0275,-3.0275,-3.0302,-3.0398,-3.039,-3.0406,-3.0386,-3.0428,-3.0477,-3.0499,-3.0488,-3.0479,-2.9736,-2.9466,-3.0171,-2.9701,-2.9396,-2.9955,-3.0246,-3.0267,-4.7105,-4.6457,-4.5858,-4.4349,-4.2473,-4.3111,-4.2899,-4.2106,-4.1899,-4.0994,-3.9509,-3.8266,-3.7611,-3.743,-3.7008,-3.7572,-3.8851,-3.8851,-3.9656,-4.0994,-4.0448,-4.0506,-4.0974,-3.909,-3.8082,-3.779,-3.6323,-3.5597,-3.5538,-3.4739,-3.4311,-3.4213,-3.2391,-3.1139,-3.0472,-2.9805,-2.9382,-2.9201,-3.0039,-2.9961,-2.8894,-2.7199,-2.64,-2.6595,-2.5816,-2.5485,-2.5699,-2.5699,-2.5699,-2.5699,-2.5667,-2.5667,-2.5671,-2.5218,0.0,0.0,0.0,0.0,0.0,0.0,0.0,0.0,0.0,-2.5511,-2.5511,0.0,-2.5511,0.0,-2.5511,-2.5337,-2.4931,-2.526,0.0,0.0,-2.526,-2.5511,-2.5511,-2.6025,-2.6412,-2.6414,-2.7177,-2.7959,-2.8608,-2.8811,-2.9148,-2.9757,-2.8751,-2.8112,-2.867,-2.8285,-2.8448,-2.9679,-2.9486,-2.941,-3.0217,-3.0398,-3.0398,-3.0398,-3.0398,-3.039,-3.0402,-3.039,-3.0402,-3.0421,-3.0433,-3.0414,-3.0428,-2.9773,-2.9561,-3.0207,-2.9794,-2.9235,-2.9466,-3.0016,-3.0123,-4.869,-4.8179,-4.7424,-4.6283,-4.5007,-4.5104,-4.4871,-4.4407,-4.4032,-4.3124,-4.1815,-4.0991,-4.0376,-4.0032,-4.0046,-4.0565,-4.1442,-4.1091,-4.1422,-4.2241,-4.1455,-4.1124,-4.1149,-3.9747,-3.8876,-3.8447,-3.7116,-3.6473,-3.6434,-3.5597,-3.5168,-3.5148,-3.3863,-3.2986,-3.246,-3.0901,-3.0258,-3.0667,-3.074,-3.0565,-3.0059,-2.8758,-2.8056,-2.8017,-2.6868,-2.6225,-2.6225,-2.5894,-2.5855,-2.6205,-2.6244,-2.6244,-2.6225,-2.5464,-2.4777,0.0,0.0,0.0,0.0,0.0,0.0,0.0,0.0,0.0,0.0,0.0,-2.5511,0.0,-2.5511,0.0,-2.5511,-2.5511,-2.5646,-2.5994,-2.5724,-2.5619,-2.5986,-2.6111,-2.616,-2.6172,-2.7254,-2.8173,-2.8628,-2.9283,-2.9745,-2.9869,-2.9374,-2.9006,-2.9025,-2.8698,-2.8794,-2.964,-2.941,-2.939,-3.0263,-3.0398,-3.0398,-3.0398,-3.0398,-3.039,-3.0402,-3.0402,-3.0414,-3.0425,-3.0455,-3.0436,-3.0411,-2.9764,-2.9408,-2.968,-2.9274,-2.8879,-2.9187,-2.9641,-2.9535,-4.9788,-4.9571,-4.8063,-4.7289,-4.7038,-4.6283,-4.5896,-4.5761,-4.5051,-4.4722,-4.4659,-4.3859,-4.3566,-4.3672,-4.3732,-4.3753,-4.3721,-4.2857,-4.2448,-4.2409,-4.1623,-4.0903,-4.0286,-4.0169,-3.9721,-3.8967,-3.8129,-3.7584,-3.735,-3.659,-3.6123,-3.5869,-3.5032,-3.4661,-3.4642,-3.2343,-3.1408,-3.1914,-3.1291,-3.0974,-3.094,-3.0122,-2.9669,-2.9591,-2.7862,-2.6887,-2.6868,-2.6128,-2.603,-2.6693,-2.6751,-2.6732,-2.6708,-2.5299,-2.4802,0.0,-2.4116,0.0,0.0,0.0,0.0,0.0,0.0,0.0,0.0,-2.5511,-2.5511,-2.5511,-2.5588,-2.5627,-2.5511,-2.5685,-2.6014,-2.647,-2.6122,-2.6064,-2.6605,-2.6265,-2.5994,-2.5986,-2.7361,-2.8309,-2.8396,-2.9522,-3.0089,-2.9567,-2.991,-2.9948,-2.9294,-2.9063,-2.9102,-2.9198,-2.9256,-2.964,-3.0225,-3.0398,-3.0398,-3.0398,-3.0398,-3.039,-3.0394,-3.0386,-3.0436,-3.0477,-3.0477,-3.0499,-3.0481,-2.9795,-2.9265,-2.9313,-2.8675,-2.8299,-2.8859,-2.909,-2.8857,-5.0287,-4.9668,-4.9359,-4.8392,-4.7076,-4.6922,-4.6457,-4.578,-4.5626,-4.5225,-4.4645,-4.3858,-4.3899,-4.4537,-4.4565,-4.4608,-4.4618,-4.3741,-4.3364,-4.3305,-4.2474,-4.2357,-4.2818,-4.2156,-4.1747,-4.1533,-4.0753,-3.963,-3.8266,-3.809,-3.7292,-3.5889,-3.5032,-3.4954,0.0,0.0,0.0,0.0,-3.1598,-3.1856,-3.1836,-3.1018,-3.0546,-3.0487,-2.8169,0.0,-2.6868,-2.6128,-2.5757,-2.5913,-2.5933,0.0,0.0,0.0,0.0,0.0,0.0,0.0,0.0,0.0,0.0,0.0,-2.6102,-2.6199,-2.5569,-2.5511,-2.5511,-2.553,-2.6102,-2.6199,-2.5569,-2.6729,-2.7039,-2.5917,-2.6807,-2.731,-2.6837,-2.7774,-2.8577,-2.8598,-2.9477,-3.0047,-2.995,-3.0325,-3.0381,-3.0155,-3.0287,-3.0025,-2.9256,-2.9151,-2.9352,-2.9987,-3.0044,-3.0167,-3.0359,-3.0398,-3.0398,-3.0398,-3.0398,-3.039,-3.039,-3.039,-3.039,-3.0402,-3.0421,-3.0414,-3.0409,-2.9753,-2.9205,-2.9197,-2.856,-2.8057,-2.821,-2.8238,-2.7987,-5.1041,0.0,-4.9397,-4.8546,0.0,-4.6825,-4.6187,-4.58,-4.58,-4.5587,-4.522,-4.4854,-4.496,-4.5376,-4.5423,-4.5476,-4.5514,-4.4637,-4.4247,-4.4208,-4.3338,-4.3182,-4.3598,-4.315,-4.2935,-4.2916,-4.2078,-4.1247,-4.039,-3.998,-3.9123,-3.7837,-3.696,-3.6532,-3.6493,-3.4837,-3.3142,-3.1447,-3.1447,-3.1447,-3.1447,-3.1018,-3.0799,-3.074,0.0,0.0,0.0,0.0,0.0,0.0,0.0,0.0,0.0,0.0,0.0,-2.678,-2.6369,-2.6285,-2.6691,-2.6729,-2.6729,-2.6729,-2.7116,-2.7174,-2.6749,-2.6729,-2.6729,-2.6749,-2.7116,-2.7174,-2.6826,-2.7503,-2.784,-2.7445,-2.7755,-2.7948,-2.8045,-2.8354,-2.8664,-2.8732,-2.9409,-2.9941,-2.9872,-3.0267,-3.0458,-3.0394,-3.039,-3.0225,-2.9794,-2.9371,-2.9294,-2.9698,-3.0179,-3.0398,-3.0398,-3.0398,-3.0398,-3.0398,-3.0398,-3.0398,-3.0398,-3.0398,-3.0398,-3.0398,-3.0398,-3.039,-3.0348,-2.9732,-2.9145,-2.9061,-2.8184,-2.7537,-2.7797,-2.7641,-2.7116,-5.1544,-5.079,-4.9436,-4.8682,-4.8275,-4.6864,-4.6071,-4.58,0.0,0.0,0.0,-4.5838,-4.5938,-4.5986,-4.6047,-4.6033,-4.5896,-4.5222,-4.4812,-4.4637,-4.4098,-4.3825,-4.3838,-4.3987,-4.3968,-4.3792,-4.3247,-4.2747,-4.2299,-4.1792,-4.1013,-4.0058,-3.9298,-3.8519,-3.7584,-3.5772,-3.4233,-3.3005,-3.1856,-3.1174,-3.1057,-3.1037,-3.1018,-3.1037,-3.0039,-2.9143,-2.8446,-2.7589,-2.7121,-2.7121,-2.7141,-2.7472,-2.813,-2.7462,-2.7349,-2.7984,-2.7369,-2.7232,-2.7929,-2.7987,-2.8073,-2.8219,-2.8219,-2.8161,-2.8034,-2.7987,-2.7987,-2.7987,-2.815,-2.8169,-2.8034,-2.8296,-2.8606,-2.9031,-2.8702,-2.8722,-2.9166,-2.8838,-2.8586,-2.8528,-2.9166,-2.9496,-2.9544,-3.0074,-3.0477,-3.0421,-3.0398,-3.0398,-3.0333,-2.9813,-2.9429,-2.9544,-3.0063,-3.0398,-3.0398,-3.0398,-3.0398,-3.0398,-3.0398,-3.0398,-3.0398,-3.0398,-3.0398,-3.0398,-3.0398,-3.039,-3.0356,-2.9855,-2.9259,-2.9012,-2.7865,-2.693,-2.7248,-2.6947,-2.6354,-5.1022,-5.0887,-5.0654,-4.9726,-4.8372,-4.814,-4.7173,-4.5819,-4.58,-4.58,-4.58,-4.58,-4.5854,-4.591,-4.5986,-4.5648,-4.5021,-4.4935,-4.4501,0.0,-4.4423,-4.4715,-4.4754,-4.5475,-4.5436,-4.4793,-4.5319,-4.4481,-4.2591,-4.2942,-4.2468,-4.1071,-4.0799,-4.0273,-3.9298,-3.696,-3.5967,-3.6415,-3.4199,-3.2679,-3.1938,-3.1914,-3.1938,-3.1856,-3.0336,-2.9455,-2.9299,-2.8481,-2.8017,-2.8037,-2.7998,-2.8076,-2.8169,-2.8001,-2.7964,-2.8081,-2.7939,-2.7879,-2.7987,-2.7987,-2.8324,-2.9012,-2.9128,-2.8818,-2.8064,-2.7987,-2.7987,-2.8034,-2.8683,-2.8799,-2.8227,-2.9321,-2.9631,-2.8595,-2.9418,-3.0017,-2.9437,-2.9824,-3.0114,-3.0095,-3.0269,-3.0279,-3.0258,-3.0342,-3.0417,-3.039,-3.0398,-3.0398,-3.0379,-3.0314,-3.0206,-3.0225,-3.0302,-3.0398,-3.0398,-3.0398,-3.0398,-3.0398,-3.0398,-3.0398,-3.0398,-3.0398,-3.0398,-3.0398,-3.0398,-3.041,-3.039,-3.0333,-2.9621,-2.8623,-2.7892,-2.7296,-2.6362,-2.5916,-2.5865,-5.1331,-5.0867,-5.0442,-4.9533,-4.8333,-4.7386,-4.6535,-4.5819,-4.5722,-4.5742,-4.5766,-4.5722,-4.5765,-4.5905,-4.5861,-4.5708,-4.5454,-4.5472,-4.5285,-4.4997,-4.537,-4.5553,-4.5631,-4.602,-4.5748,-4.4988,-4.5787,-4.5105,-4.3234,-4.3877,-4.3429,-4.1792,-4.0857,-4.0195,-3.9688,-3.7675,-3.659,-3.6454,-3.4004,-3.2737,-3.2791,-3.1875,-3.1388,-3.1369,-3.0589,-2.9981,-2.9513,-2.9124,-2.8675,-2.8208,-2.8188,-2.8398,-2.887,-2.8404,-2.8501,-2.9353,-2.8988,-2.8915,-2.9399,-2.9399,-2.9573,-2.9979,-3.0017,-2.9843,-2.9457,-2.9418,-2.9399,-2.9418,-2.9805,-2.9843,-2.9457,-3.0133,-3.0269,-2.9495,-3.0153,-3.0424,-3.0133,-3.0308,-3.0569,-3.054,-3.052,-3.0481,-3.0449,-3.0428,-3.0406,-3.039,-3.0398,-3.0398,-3.0398,-3.0398,-3.0398,-3.0398,-3.0398,-3.0398,-3.0398,-3.0398,-3.0398,-3.0398,-3.0398,-3.0398,-3.0398,-3.0398,-3.0398,-3.0398,-3.0398,-3.0398,-3.0379,-3.0006,-2.9563,-2.9448,-2.7967,-2.7083,-2.6708,-2.6448,-2.6262,-5.1505,-5.0848,-5.0229,-4.9378,-4.8275,-4.6762,-4.5988,-4.578,-4.5703,-4.5684,-4.5728,-4.561,-4.5659,-4.578,-4.5718,-4.5789,-4.5922,-4.5966,-4.6017,-4.6047,-4.6057,-4.6098,-4.6137,-4.6157,-4.5709,-4.5085,-4.5787,-4.5397,-4.413,-4.4773,-4.452,-4.3137,-4.1695,-4.0935,-4.0916,-3.902,-3.7831,-3.7194,-3.4447,-3.3103,-3.3322,-3.1895,-3.1096,-3.1096,-3.0896,-3.0468,-2.9844,-2.9786,-2.9494,-2.8836,-2.8792,-2.9095,-2.9691,-2.9097,-2.9252,-3.0377,-2.9967,-2.9882,-3.052,-3.0617,-3.0617,-3.0617,-3.0617,-3.0617,-3.0617,-3.0772,-3.0772,-3.0636,-3.0559,-3.0578,-3.052,-3.0578,-3.0617,-3.0617,-3.0617,-3.0598,-3.0598,-3.0617,-3.0569,-3.0501,-3.0491,-3.0471,-3.0409,-3.0386,-3.0394,-3.039,-3.0398,-3.0398,-3.0398,-3.0398,-3.0398,-3.0398,-3.0398,-3.0398,-3.0398,-3.0398,-3.0398,-3.0398,-3.0398,-3.0398,-3.0398,-3.0398,-3.0398,-3.0398,-3.0398,-3.0263,-3.0121,-2.9813,-2.9544,-2.9467,-2.8159,-2.7159,-2.7276,-2.7441,-2.7161,-5.0983,-5.0906,-5.077,-4.9861,-4.8314,-4.7342,-4.651,-4.5838,-4.578,-4.572,-4.5605,-4.5473,-4.5419,-4.5475,-4.5626,-4.5684,-4.5747,-4.5922,-4.5964,-4.5914,-4.5907,-4.5942,-4.5994,-4.602,-4.5631,-4.5078,-4.576,-4.5643,-4.4689,-4.5533,-4.5942,-4.5748,-4.489,-4.4286,-4.4072,-4.1909,-4.1013,-4.1598,-3.7623,-3.4837,-3.3439,-3.2484,-3.1977,-3.1977,-3.1232,-3.076,-3.0721,-3.0662,-3.0643,-3.0565,-3.0526,-3.0555,-3.0547,-3.0477,-3.0501,-3.0591,-3.0509,-3.054,-3.0598,-3.0617,-3.0617,-3.0617,-3.0636,-3.0656,-3.0675,-3.1294,-3.1371,-3.0868,-3.0656,-3.0675,-3.0617,-3.0617,-3.0617,-3.0617,-3.0617,-3.0617,-3.0617,-3.0617,-3.0569,-3.052,-3.05,-3.0469,-3.0417,-3.0471,-3.0448,-3.041,-3.0513,-3.0494,-3.0398,-3.0398,-3.0398,-3.0398,-3.0398,-3.0398,-3.0398,-3.0398,-3.0398,-3.0398,-3.0398,-3.0398,-3.0398,-3.0398,-3.0398,-3.0398,-3.0398,-3.0179,-2.9717,-2.964,-2.966,-2.8698,-2.7948,-2.7497,-2.7132,-2.774,-2.8309,-5.1354,-5.0855,-5.0387,-4.9204,-4.7676,-4.7245,-4.6607,-4.5819,-4.5626,-4.5522,-4.5468,-4.523,-4.5199,-4.54,-4.54,-4.5456,-4.5526,-4.561,-4.5638,-4.5654,-4.5698,-4.5738,-4.577,-4.5809,-4.542,-4.4819,-4.5619,-4.5365,-4.4295,-4.446,-4.4929,-4.5299,-4.4559,-4.4384,-4.4695,-4.2857,-4.1766,-4.152,-3.937,-3.7389,-3.5655,-3.3824,-3.2869,-3.283,-3.2499,-3.2323,-3.2323,-3.2343,-3.2109,-3.1622,-3.1548,-3.1248,-3.0737,-3.0676,-3.0618,-3.0606,-3.0607,-3.0617,-3.0617,-3.0617,-3.0617,-3.0617,-3.1043,-3.1313,-3.1352,-3.2077,-3.2406,-3.2106,-3.1623,-3.1139,-3.0733,-3.0617,-3.0617,-3.0617,-3.0617,-3.0617,-3.0617,-3.0617,-3.0559,-3.05,-3.049,-3.0458,-3.0502,-3.0852,-3.091,-3.0648,-3.0782,-3.0968,-3.0533,-3.0398,-3.0398,-3.0398,-3.0398,-3.0398,-3.0398,-3.0398,-3.0398,-3.0398,-3.0398,-3.0398,-3.0398,-3.0398,-3.0398,-3.0398,-3.0398,-3.0083,-2.9275,-2.9256,-2.9217,-2.8179,-2.7371,-2.6986,-2.665,-2.7576,-2.8261,-5.1493,-5.0858,-5.0252,-4.903,-4.7482,-4.7458,-4.682,-4.5838,-4.5587,-4.5491,-4.5419,-4.5156,-4.5163,-4.5361,-4.5258,-4.5258,-4.5341,-4.5381,-4.54,-4.5418,-4.5475,-4.5507,-4.553,-4.563,-4.5409,-4.5079,-4.5673,-4.5386,-4.4268,-4.425,-4.4656,-4.5066,-4.4618,-4.4637,-4.5027,-4.3734,-4.2604,-4.1792,-4.0734,-3.9312,-3.7525,-3.5519,-3.4213,-3.3765,-3.3512,-3.338,-3.338,-3.338,-3.3103,-3.2484,-3.2394,-3.1949,-3.1125,-3.1002,-3.0953,-3.0946,-3.1178,-3.1294,-3.1294,-3.1294,-3.1294,-3.1333,-3.1855,-3.2154,-3.23,-3.2957,-3.3305,-3.3024,-3.2725,-3.2222,-3.1429,-3.1081,-3.1023,-3.1217,-3.0965,-3.0656,-3.0907,-3.0791,-3.0579,-3.0519,-3.049,-3.0593,-3.0806,-3.1275,-3.1468,-3.1333,-3.1468,-3.1545,-3.0891,-3.0602,-3.0398,-3.0398,-3.0398,-3.0398,-3.0398,-3.0398,-3.0398,-3.0398,-3.0398,-3.0398,-3.0398,-3.0398,-3.0398,-3.0398,-3.0398,-2.9967,-2.9044,-2.8813,-2.914,-2.8352,-2.7582,-2.7016,-2.7083,-2.7749,-2.8435,-5.0924,-5.0899,-5.0871,-4.9842,-4.8333,-4.8333,-4.7366,-4.5896,-4.5819,-4.5722,-4.5592,-4.5433,-4.5395,-4.54,-4.5258,-4.5213,-4.5216,-4.5341,-4.5322,-4.5243,-4.5246,-4.5265,-4.5319,-4.5514,-4.5668,-4.5698,-4.5897,-4.5977,-4.5928,-4.6001,-4.6098,-4.6098,-4.5962,-4.602,-4.5942,-4.5144,-4.4318,-4.3247,-4.187,-4.0214,-3.8597,-3.7506,-3.6201,-3.4739,-3.3843,-3.3517,-3.3478,-3.3419,-3.34,-3.3356,-3.3225,-3.2804,-3.2038,-3.1875,-3.1805,-3.1826,-3.2483,-3.2928,-3.2889,-3.285,-3.287,-3.2908,-3.2957,-3.3044,-3.3082,-3.3847,-3.4021,-3.3256,-3.3866,-3.3828,-3.3063,-3.2242,-3.2068,-3.2618,-3.1526,-3.1159,-3.1681,-3.1217,-3.0637,-3.0635,-3.073,-3.1025,-3.1564,-3.166,-3.2083,-3.2275,-3.2102,-3.1641,-3.1333,-3.0814,-3.0456,-3.0398,-3.0398,-3.0398,-3.0398,-3.0398,-3.0398,-3.0398,-3.0398,-3.0398,-3.0398,-3.0398,-3.0398,-3.0398,-3.0398,-2.991,-2.8832,-2.8659,-2.9217,-2.8901,-2.8151,-2.7738,-2.7527,-2.8472,-2.9062,-5.1026,-5.0146,-5.0677,-4.9939,-4.8527,-4.8987,-4.8232,-4.6665,-4.6549,-4.6158,-4.5642,-4.5468,-4.5399,-4.5419,-4.5341,-4.5279,-4.5213,-4.5237,-4.5237,-4.5194,-4.5186,-4.5274,-4.5403,-4.5418,-4.5515,-4.5689,-4.5744,-4.5908,-4.6138,-4.6189,-4.6196,-4.6196,-4.6196,-4.6196,-4.6137,-4.5884,-4.5046,-4.3682,-4.2942,-4.1623,-3.9513,-3.9026,-3.8032,-3.6356,-3.5441,-3.4993,-3.4993,-3.5012,-3.4753,-3.4205,-3.3589,-3.3106,-3.2807,-3.2696,-3.2668,-3.2667,-3.2928,-3.3102,-3.3102,-3.3102,-3.3102,-3.314,-3.3634,-3.3944,-3.4079,-3.4698,-3.5085,-3.4891,-3.4988,-3.5027,-3.4601,-3.3499,-3.2754,-3.2908,-3.258,-3.2242,-3.2512,-3.2367,-3.2183,-3.2111,-3.2077,-3.2184,-3.2442,-3.2929,-3.2968,-3.2314,-3.2295,-3.1987,-3.1102,-3.0552,-3.0398,-3.0398,-3.0398,-3.0398,-3.0398,-3.0398,-3.0398,-3.0398,-3.0398,-3.0398,-3.0398,-3.0398,-3.0398,-3.0398,-3.0398,-3.0102,-2.9121,-2.8382,-2.8989,-2.8884,-2.8191,-2.799,-2.7894,-2.8714,-2.9139,-5.1275,-5.0201,-5.0658,-5.0113,-4.8952,-4.9436,-4.8871,-4.7555,-4.7414,-4.6911,-4.6181,-4.5935,-4.577,-4.5603,-4.5782,-4.563,-4.5298,-4.5277,-4.5258,-4.5277,-4.5227,-4.5274,-4.5433,-4.5369,-4.5438,-4.5603,-4.565,-4.5808,-4.5958,-4.6008,-4.6056,-4.6138,-4.6111,-4.6138,-4.6174,-4.6189,-4.5358,-4.3936,-4.3611,-4.2364,-4.0136,-3.9805,-3.8967,-3.7409,-3.661,-3.6162,-3.5908,-3.5889,-3.5644,-3.5029,-3.4365,-3.3891,-3.3616,-3.3538,-3.3538,-3.3538,-3.3808,-3.3944,-3.3944,-3.3924,-3.3963,-3.3963,-3.4447,-3.4833,-3.4872,-3.5375,-3.5646,-3.5704,-3.5704,-3.5704,-3.5491,-3.4621,-3.3963,-3.3828,-3.343,-3.3247,-3.346,-3.3256,-3.3051,-3.2918,-3.2813,-3.2961,-3.3314,-3.3833,-3.3757,-3.2949,-3.3045,-3.2333,-3.1506,-3.0686,-3.0398,-3.0398,-3.0398,-3.0398,-3.0398,-3.0398,-3.0398,-3.0398,-3.0398,-3.0398,-3.0398,-3.0398,-3.0398,-3.0398,-3.0275,-3.0044,-2.9478,-2.8604,-2.8403,-2.8539,-2.825,-2.8029,-2.8319,-2.885,-2.9236,-5.1592,-5.089,-5.0906,-5.0461,-4.9765,-4.9769,-4.9247,-4.8488,-4.8324,-4.7763,-4.6936,-4.6853,-4.6322,-4.61,-4.6494,-4.6317,-4.5649,-4.5573,-4.5477,-4.5361,-4.5246,-4.5265,-4.54,-4.5365,-4.5445,-4.5629,-4.5746,-4.5783,-4.5777,-4.5742,-4.5764,-4.5956,-4.5936,-4.5968,-4.6113,-4.6018,-4.526,-4.3948,-4.3546,-4.2299,-4.0156,-3.9896,-3.913,-3.7598,-3.7325,-3.6935,-3.6078,-3.5942,-3.5872,-3.5801,-3.564,-3.529,-3.4419,-3.436,-3.4389,-3.4505,-3.5143,-3.5568,-3.5588,-3.5491,-3.5414,-3.5433,-3.5607,-3.5568,-3.5549,-3.5646,-3.5704,-3.5704,-3.5781,-3.5781,-3.5723,-3.5607,-3.551,-3.551,-3.4272,-3.377,-3.4079,-3.368,-3.3134,-3.3184,-3.3243,-3.3353,-3.3949,-3.4314,-3.443,-3.4545,-3.3872,-3.2872,-3.2333,-3.1333,-3.059,-3.0475,-3.0475,-3.0448,-3.0436,-3.0417,-3.0398,-3.0398,-3.0398,-3.0398,-3.0398,-3.0398,-3.0398,-3.0398,-3.0402,-3.019,-3.0083,-2.9336,-2.928,-2.9252,-2.8723,-2.8512,-2.9043,-2.9545,-2.9477,-5.1095,-5.0897,-5.0909,-5.077,-5.0538,-5.0523,-5.0059,-4.9247,-4.8686,-4.7893,-4.7081,-4.6419,-4.6336,-4.667,-4.6935,-4.6866,-4.6568,-4.6446,-4.6033,-4.5395,-4.5227,-4.5285,-4.538,-4.5314,-4.5298,-4.5379,-4.5524,-4.5591,-4.5587,-4.5587,-4.5694,-4.5822,-4.5835,-4.5902,-4.6008,-4.5496,-4.4623,-4.3639,-4.298,-4.1988,-4.0758,-4.0579,-3.998,-3.9027,-3.8871,-3.8435,-3.758,-3.6501,-3.5917,-3.5862,-3.5238,-3.4758,-3.4583,-3.4969,-3.5259,-3.5317,-3.551,-3.5704,-3.5704,-3.5704,-3.5704,-3.5704,-3.5704,-3.5704,-3.5704,-3.5704,-3.5723,-3.58,-3.6168,-3.6361,-3.5916,-3.6226,-3.6303,-3.5781,-3.522,-3.4891,-3.5104,-3.4944,-3.482,-3.4725,-3.4706,-3.4834,-3.4988,-3.5064,-3.4949,-3.4699,-3.4103,-3.3487,-3.2295,-3.1756,-3.1314,-3.1275,-3.0968,-3.0602,-3.0698,-3.0602,-3.0398,-3.0398,-3.0398,-3.0398,-3.0398,-3.0398,-3.0398,-3.039,-3.0402,-3.0356,-3.0267,-3.0175,-3.0023,-3.0074,-2.9805,-2.9864,-3.0115,-3.0124,-2.9989,-5.144,-5.0916,-5.0909,-5.0906,-5.0906,-5.0906,-5.0619,-5.0043,-4.9235,-4.8555,-4.7971,-4.7173,-4.6844,-4.7197,-4.767,-4.7526,-4.7017,-4.7375,-4.7044,-4.6008,-4.5356,-4.5419,-4.5688,-4.5438,-4.5246,-4.5204,-4.5342,-4.54,-4.5455,-4.5399,-4.5451,-4.5684,-4.5699,-4.5756,-4.5859,-4.5454,-4.4731,-4.3607,-4.3014,-4.2179,-4.1196,-4.0906,-4.0499,-3.9742,-3.9597,-3.915,-3.8315,-3.7284,-3.6615,-3.6172,-3.5418,-3.4952,-3.496,-3.5414,-3.5704,-3.5704,-3.5704,-3.5704,-3.5704,-3.5704,-3.5704,-3.5704,-3.5704,-3.5878,-3.5994,-3.5955,-3.5858,-3.6613,-3.6767,-3.6845,-3.6767,-3.7038,-3.7116,-3.669,-3.6013,-3.5762,-3.5681,-3.5647,-3.5553,-3.5419,-3.5405,-3.5488,-3.5507,-3.5488,-3.5315,-3.4776,-3.4391,-3.3795,-3.2564,-3.2199,-3.1948,-3.1641,-3.1198,-3.1006,-3.1044,-3.0814,-3.0436,-3.0398,-3.0398,-3.0398,-3.0398,-3.0398,-3.0398,-3.039,-3.0383,-3.0406,-3.0329,-3.0381,-3.0335,-3.051,-3.054,-3.0472,-3.0385,-3.0472,-3.0385,-5.2453,-5.1041,-5.0925,-5.0906,-5.0906,-5.0906,-5.0867,-5.0716,-4.9869,-4.9459,-4.9354,-4.8217,-4.7715,-4.7588,-4.8439,-4.8161,-4.7203,-4.8111,-4.8257,-4.7248,-4.6256,-4.591,-4.6433,-4.5993,-4.5627,-4.5375,-4.5335,-4.5333,-4.5302,-4.5109,-4.5135,-4.5509,-4.5543,-4.5558,-4.5675,-4.584,-4.5034,-4.385,-4.3433,-4.2461,-4.1092,-4.0898,-4.0558,-3.9801,-3.9733,-3.9423,-3.8792,-3.8404,-3.786,-3.7017,-3.6162,-3.5715,-3.5684,-3.5704,-3.5704,-3.5704,-3.5704,-3.5704,-3.5704,-3.5704,-3.5704,-3.5704,-3.5858,-3.6071,-3.6671,-3.6477,-3.6632,-3.7715,-3.756,-3.7444,-3.7928,-3.8218,-3.8179,-3.7986,-3.6748,-3.5944,-3.5651,-3.5616,-3.5591,-3.5515,-3.5495,-3.5507,-3.5507,-3.5507,-3.5468,-3.5315,-3.4795,-3.4045,-3.3333,-3.2795,-3.2141,-3.1775,-3.1545,-3.1295,-3.1295,-3.0756,-3.0417,-3.0398,-3.0398,-3.041,-3.0398,-3.0398,-3.0398,-3.039,-3.0394,-3.0386,-3.0409,-3.046,-3.0481,-3.0491,-3.052,-3.053,-3.0559,-3.0598,-3.0617,-5.2227,-5.1815,-5.1177,-5.0906,-5.0906,-5.0906,-5.0906,-5.0697,-4.9386,-4.9189,-4.9161,-4.741,-4.7197,-4.8029,-4.8268,-4.8123,-4.7953,-4.8512,-4.8834,-4.8376,-4.7371,-4.6963,-4.7124,-4.6966,-4.6512,-4.6006,-4.5878,-4.5618,-4.5057,-4.4962,-4.5042,-4.53,-4.54,-4.5493,-4.5607,-4.5297,-4.486,-4.4219,-4.3044,-4.2377,-4.1806,-4.1145,-4.0734,-4.0548,-4.0463,-4.0347,-4.0064,-3.9511,-3.8435,-3.7061,-3.674,-3.6284,-3.5762,-3.5704,-3.5704,-3.5704,-3.5704,-3.5704,-3.5704,-3.5704,-3.5704,-3.5762,-3.6226,-3.6787,-3.7232,-3.7444,-3.7735,-3.8276,-3.845,-3.8586,-3.845,-3.8818,-3.8856,-3.8199,-3.7309,-3.6427,-3.5883,-3.5616,-3.556,-3.5515,-3.5534,-3.5488,-3.5507,-3.5507,-3.5507,-3.5468,-3.5218,-3.4757,-3.3968,-3.3789,-3.3308,-3.2526,-3.2122,-3.1718,-3.1333,-3.0775,-3.0436,-3.0398,-3.041,-3.039,-3.039,-3.039,-3.041,-3.039,-3.0406,-3.0409,-3.0439,-3.046,-3.0471,-3.0501,-3.053,-3.0569,-3.0588,-3.0617,-3.0617,-5.3056,-5.2666,-5.1815,-5.1447,-5.1389,-5.1061,-5.0906,-5.0658,-4.956,-4.9204,-4.9195,-4.7758,-4.7236,-4.7835,-4.7966,-4.8047,-4.8162,-4.8621,-4.9028,-4.9358,-4.8751,-4.8093,-4.758,-4.7397,-4.7117,-4.6708,-4.6354,-4.5992,-4.5523,-4.5152,-4.5038,-4.5279,-4.5361,-4.5456,-4.5594,-4.5356,-4.4962,-4.4563,-4.3583,-4.2866,-4.2059,-4.1589,-4.1132,-4.0906,-4.079,-4.079,-4.0694,-4.0307,-3.9243,-3.7793,-3.7096,-3.6535,-3.582,-3.5704,-3.5704,-3.5704,-3.5704,-3.5704,-3.5704,-3.5704,-3.5878,-3.6187,-3.6709,-3.7367,-3.8005,-3.8315,-3.8315,-3.9301,-3.9475,-3.9398,-3.9456,-3.9765,-3.9591,-3.8914,-3.8295,-3.7626,-3.6783,-3.6412,-3.6163,-3.5991,-3.5734,-3.5501,-3.5488,-3.5488,-3.5507,-3.5488,-3.5482,-3.4943,-3.4366,-3.4501,-3.4186,-3.3115,-3.248,-3.2095,-3.1383,-3.0729,-3.0491,-3.0441,-3.0595,-3.0556,-3.0529,-3.051,-3.0414,-3.0425,-3.0428,-3.043,-3.046,-3.0481,-3.052,-3.0559,-3.0569,-3.0617,-3.0656,-3.0791,-3.0752,-5.4329,-5.3575,-5.2685,-5.2279,-5.2047,-5.137,-5.1041,-5.0755,-4.9966,-4.9707,-4.9596,-4.8832,-4.8024,-4.741,-4.816,-4.8183,-4.8315,-4.8865,-4.9434,-4.9828,-4.9708,-4.9072,-4.8041,-4.7988,-4.781,-4.7507,-4.6784,-4.6448,-4.6117,-4.5399,-4.5179,-4.5319,-4.54,-4.5494,-4.5596,-4.5665,-4.5394,-4.491,-4.4523,-4.3614,-4.2505,-4.199,-4.1506,-4.0887,-4.079,-4.079,-4.079,-4.0636,-3.9978,-3.8392,-3.7502,-3.6826,-3.6129,-3.5994,-3.5974,-3.6129,-3.6226,-3.6187,-3.6052,-3.6226,-3.6284,-3.6845,-3.7096,-3.7831,-3.9069,-3.9108,-3.9243,-4.0365,-4.0036,-4.0068,-4.0384,-4.0655,-4.028,-3.9661,-3.9514,-3.9088,-3.8516,-3.7634,-3.6979,-3.6781,-3.6068,-3.5701,-3.5501,-3.5488,-3.5488,-3.5488,-3.5482,-3.5207,-3.4912,-3.5002,-3.4212,-3.2947,-3.2562,-3.2415,-3.1549,-3.0675,-3.056,-3.0513,-3.0783,-3.086,-3.0775,-3.0709,-3.0535,-3.0449,-3.0449,-3.0471,-3.0481,-3.052,-3.0569,-3.0598,-3.0598,-3.0675,-3.0772,-3.1004,-3.1081,-5.4697,-5.4445,-5.3575,-5.284,-5.2221,-5.2005,-5.1525,-5.0848,-5.0078,-5.0059,-5.0171,-4.9049,-4.8701,-4.9053,-4.8926,-4.9085,-4.9142,-4.9656,-5.0176,-5.0106,-4.9986,-4.9792,-4.9311,-4.9227,-4.8935,-4.8499,-4.8261,-4.7498,-4.6518,-4.6087,-4.5661,-4.5333,-4.5438,-4.5475,-4.5613,-4.5723,-4.5761,-4.5452,-4.4954,-4.4142,-4.315,-4.2357,-4.1661,-4.0887,-4.079,-4.079,-4.079,-4.079,-4.0268,-3.9301,-3.8431,-3.7793,-3.7444,-3.6961,-3.6942,-3.7328,-3.7541,-3.7599,-3.7618,-3.7502,-3.7522,-3.7444,-3.8276,-3.9359,-4.0307,-4.0307,-4.0326,-4.0771,-4.0616,-4.0539,-4.0713,-4.0184,-4.0145,-4.021,-3.9932,-3.9758,-3.9862,-3.8851,-3.7745,-3.7114,-3.6704,-3.6293,-3.5637,-3.5528,-3.5515,-3.5501,-3.5457,-3.5387,-3.54,-3.5412,-3.4506,-3.3299,-3.3222,-3.3106,-3.2174,-3.1441,-3.1317,-3.1221,-3.1356,-3.1463,-3.1397,-3.1165,-3.1069,-3.0799,-3.0479,-3.0519,-3.0598,-3.0501,-3.054,-3.0569,-3.0656,-3.0888,-3.1081,-3.1275,-3.1603,-5.5374,-5.5277,-5.4445,-5.3614,-5.2801,-5.2353,-5.1715,-5.0945,-5.0484,-5.0271,-5.0155,-4.9324,-4.9073,-4.9073,-4.8941,-4.9041,-4.9637,-5.0221,-5.0445,-5.0306,-5.012,-5.0058,-5.002,-4.9944,-4.9633,-4.9227,-4.8818,-4.8131,-4.7504,-4.6716,-4.6183,-4.5956,-4.5706,-4.5599,-4.5677,-4.5752,-4.58,-4.5722,-4.5394,-4.4755,-4.3924,-4.3053,-4.1932,-4.1042,-4.079,-4.079,-4.079,-4.079,-4.0539,-4.0017,-3.9282,-3.8605,-3.8237,-3.7773,-3.7812,-3.8083,-3.8218,-3.8218,-3.8199,-3.8218,-3.8237,-3.8392,-3.9127,-3.9862,-4.0539,-4.079,-4.1023,-4.1158,-4.1042,-4.079,-4.079,-4.05,-4.0442,-4.0539,-4.0404,-4.0326,-4.0462,-3.9598,-3.8665,-3.8015,-3.7372,-3.6768,-3.6241,-3.5804,-3.5522,-3.5509,-3.5554,-3.547,-3.547,-3.5405,-3.5013,-3.428,-3.4183,-3.3778,-3.2875,-3.2353,-3.2257,-3.2218,-3.2295,-3.2364,-3.2366,-3.2046,-3.1718,-3.1351,-3.0954,-3.0752,-3.0791,-3.0665,-3.053,-3.0588,-3.0752,-3.112,-3.1449,-3.1681,-3.2116,-5.6012,-5.5954,-5.5258,-5.4484,-5.3633,-5.2779,-5.2063,-5.1409,-5.0983,-5.0619,-5.0136,-4.9966,-4.9575,-4.8999,-4.8877,-4.9203,-4.9837,-5.0331,-5.0586,-5.0464,-5.0288,-5.0221,-5.0187,-5.0081,-5.0,-4.9891,-4.9378,-4.896,-4.8452,-4.7624,-4.7026,-4.6796,-4.6213,-4.5857,-4.5849,-4.58,-4.58,-4.5761,-4.5703,-4.5278,-4.4601,-4.3788,-4.2725,-4.139,-4.0848,-4.081,-4.079,-4.079,-4.0771,-4.0752,-4.0075,-3.9359,-3.8818,-3.8431,-3.8528,-3.8624,-3.8818,-3.8895,-3.8934,-3.8837,-3.905,-3.9681,-3.9739,-4.0133,-4.079,-4.1139,-4.1506,-4.1661,-4.1622,-4.11,-4.0984,-4.0752,-4.0732,-4.079,-4.079,-4.079,-4.0674,-4.0113,-3.9663,-3.9116,-3.8092,-3.723,-3.6575,-3.608,-3.5779,-3.5528,-3.556,-3.5584,-3.5553,-3.5488,-3.5172,-3.5048,-3.4925,-3.448,-3.3603,-3.3255,-3.3177,-3.3023,-3.31,-3.3265,-3.3295,-3.3102,-3.2705,-3.1922,-3.1536,-3.1265,-3.0917,-3.0666,-3.0588,-3.0617,-3.0965,-3.1449,-3.1797,-3.2068,-3.2745,-5.6012,-5.5993,-5.5877,-5.5335,-5.4503,-5.3633,-5.3108,-5.2814,-5.1428,-5.1254,-5.1563,-5.1022,-5.0542,-5.0387,-5.0445,-5.0561,-5.0604,-5.0696,-5.0701,-5.0625,-5.0481,-5.0378,-5.0361,-5.0302,-5.0298,-5.0272,-4.9973,-4.9671,-4.9305,-4.8811,-4.801,-4.7159,-4.6711,-4.6429,-4.6003,-4.58,-4.58,-4.58,-4.58,-4.5394,-4.4852,-4.4349,-4.3498,-4.1932,-4.1274,-4.1003,-4.0906,-4.0848,-4.079,-4.079,-4.0655,-4.0481,-4.0152,-3.9611,-3.9688,-3.9997,-4.0113,-4.0036,-4.0191,-4.0288,-4.0384,-4.0558,-4.0674,-4.1003,-4.1583,-4.1835,-4.2202,-4.2531,-4.2357,-4.1835,-4.1796,-4.1313,-4.0868,-4.0829,-4.081,-4.081,-4.0752,-4.0578,-4.021,-3.9663,-3.8639,-3.7692,-3.7057,-3.6356,-3.5777,-3.5572,-3.5584,-3.5608,-3.5577,-3.562,-3.5546,-3.5519,-3.5538,-3.4997,-3.4331,-3.4195,-3.4049,-3.3721,-3.3779,-3.4146,-3.4195,-3.4176,-3.3731,-3.288,-3.2068,-3.1574,-3.1217,-3.0791,-3.0733,-3.083,-3.1313,-3.1826,-3.2493,-3.3093,-3.3944,-5.6012,-5.6012,-5.6012,-5.5548,-5.4735,-5.3865,-5.3243,-5.2663,-5.147,-5.1122,-5.1312,-5.1099,-5.0906,-5.0906,-5.0906,-5.0906,-5.0874,-5.0841,-5.0808,-5.0771,-5.0642,-5.0548,-5.0519,-5.0471,-5.049,-5.051,-5.045,-5.0312,-4.9951,-4.9452,-4.8949,-4.8359,-4.7561,-4.68,-4.6404,-4.6013,-4.5858,-4.5819,-4.578,-4.5645,-4.5181,-4.4871,-4.3846,-4.286,-4.1951,-4.1699,-4.1893,-4.1061,-4.1042,-4.1255,-4.1023,-4.0848,-4.0752,-4.081,-4.0752,-4.0829,-4.0848,-4.1042,-4.1332,-4.1429,-4.1583,-4.2048,-4.2067,-4.226,-4.255,-4.2725,-4.2937,-4.315,-4.3614,-4.315,-4.2725,-4.1854,-4.1506,-4.1351,-4.1081,-4.0829,-4.079,-4.079,-4.05,-4.0017,-3.8934,-3.8078,-3.7583,-3.6786,-3.5898,-3.562,-3.562,-3.562,-3.562,-3.5662,-3.5704,-3.5704,-3.5684,-3.5452,-3.4969,-3.4891,-3.4795,-3.4524,-3.4408,-3.4775,-3.4969,-3.4891,-3.4427,-3.3692,-3.2938,-3.2203,-3.1487,-3.1101,-3.1081,-3.112,-3.1642,-3.23,-3.3344,-3.4234,-3.4891,-5.6012,-5.6012,-5.6012,-5.5625,-5.4948,-5.3923,-5.3243,-5.2566,-5.1432,-5.1045,-5.1138,-5.0983,-5.0906,-5.0906,-5.0906,-5.0906,-5.0906,-5.0909,-5.089,-5.0871,-5.0797,-5.0739,-5.0697,-5.0619,-5.0604,-5.0726,-5.0733,-5.0738,-5.0545,-5.0102,-4.9785,-4.9215,-4.8121,-4.7328,-4.6999,-4.6438,-4.609,-4.5819,-4.58,-4.58,-4.5606,-4.5007,-4.4311,-4.3576,-4.2725,-4.2589,-4.2879,-4.2144,-4.1661,-4.1699,-4.1429,-4.1003,-4.0926,-4.139,-4.1506,-4.1158,-4.1197,-4.1661,-4.2028,-4.226,-4.2512,-4.2937,-4.3208,-4.3363,-4.3653,-4.375,-4.3904,-4.3904,-4.3788,-4.3904,-4.3131,-4.2299,-4.1796,-4.1564,-4.1119,-4.079,-4.079,-4.079,-4.079,-4.0133,-3.9127,-3.8477,-3.7982,-3.7119,-3.6192,-3.5662,-3.5643,-3.5643,-3.5643,-3.5673,-3.5704,-3.5704,-3.5704,-3.5704,-3.553,-3.5472,-3.5375,-3.524,-3.5162,-3.5336,-3.5491,-3.5549,-3.4988,-3.4427,-3.3847,-3.3093,-3.2242,-3.1584,-3.1623,-3.1777,-3.2087,-3.2745,-3.377,-3.4524,-3.5143,-5.6012,-5.6012,-5.5993,-5.5954,-5.5606,-5.4155,-5.3901,-5.4036,-5.1873,-5.137,-5.1792,-5.1235,-5.0909,-5.0909,-5.089,-5.089,-5.0906,-5.0906,-5.0906,-5.0887,-5.0887,-5.0867,-5.0887,-5.0887,-5.0793,-5.0851,-5.0874,-5.0893,-5.0819,-5.0665,-5.0314,-4.9765,-4.9378,-4.8701,-4.7502,-4.696,-4.6535,-4.5974,-4.5819,-4.58,-4.5684,-4.5065,-4.4659,-4.4272,-4.3672,-4.3305,-4.3498,-4.2995,-4.2647,-4.2048,-4.1932,-4.1487,-4.0984,-4.0848,-4.1351,-4.1874,-4.2492,-4.3034,-4.3053,-4.2879,-4.2957,-4.3208,-4.3305,-4.3711,-4.4059,-4.4736,-4.5065,-4.5452,-4.4485,-4.3614,-4.3169,-4.197,-4.1255,-4.1042,-4.1003,-4.0829,-4.079,-4.079,-4.079,-4.0636,-3.9765,-3.9011,-3.838,-3.7433,-3.6524,-3.6052,-3.5684,-3.5723,-3.5684,-3.5704,-3.5704,-3.5704,-3.5704,-3.5704,-3.5704,-3.5704,-3.5704,-3.5704,-3.5704,-3.5704,-3.5704,-3.5704,-3.5704,-3.5143,-3.4524,-3.4021,-3.3402,-3.2841,-3.2454,-3.2512,-3.2919,-3.3499,-3.4214,-3.4853,-3.5414,-5.6012,-5.5973,-5.5509,-5.5606,-5.576,-5.4213,-5.371,-5.3572,-5.1854,-5.1099,-5.1354,-5.1109,-5.0899,-5.0897,-5.0913,-5.0893,-5.0909,-5.089,-5.0906,-5.0906,-5.0906,-5.0906,-5.0906,-5.0906,-5.0906,-5.0906,-5.0906,-5.089,-5.0906,-5.0887,-5.0674,-5.0384,-4.9939,-4.9417,-4.8295,-4.754,-4.6999,-4.6496,-4.6129,-4.5819,-4.5722,-4.549,-4.5258,-4.522,-4.4446,-4.433,-4.4388,-4.3653,-4.3208,-4.2647,-4.2357,-4.1603,-4.1139,-4.1255,-4.1874,-4.2705,-4.3556,-4.375,-4.3343,-4.2918,-4.3034,-4.3247,-4.3343,-4.346,-4.3982,-4.4601,-4.4871,-4.4349,-4.4678,-4.4272,-4.3498,-4.2686,-4.2067,-4.1603,-4.11,-4.0868,-4.0829,-4.081,-4.0771,-4.0616,-4.0423,-3.9707,-3.903,-3.8334,-3.7386,-3.6535,-3.6187,-3.6091,-3.5916,-3.5704,-3.5704,-3.5704,-3.5704,-3.5704,-3.5704,-3.5704,-3.5704,-3.5704,-3.5704,-3.5704,-3.5704,-3.5704,-3.5704,-3.5472,-3.4795,-3.4447,-3.4292,-3.3712,-3.2957,-3.3286,-3.3789,-3.4311,-3.4814,-3.5143,-3.5626,-5.518,-5.5335,-5.4967,-5.5026,-5.5238,-5.3788,-5.3169,-5.2995,-5.1583,-5.0906,-5.0893,-5.0902,-5.0887,-5.0883,-5.0883,-5.088,-5.0909,-5.0909,-5.0909,-5.089,-5.0906,-5.0906,-5.0906,-5.0906,-5.0906,-5.0906,-5.0906,-5.0906,-5.0906,-5.0906,-5.0906,-5.0887,-5.0364,-4.9881,-4.9378,-4.8546,-4.7734,-4.6941,-4.6206,-4.5838,-4.578,-4.58,-4.5761,-4.5587,-4.5316,-4.5181,-4.5471,-4.4775,-4.402,-4.3518,-4.3169,-4.2531,-4.1874,-4.2106,-4.2763,-4.3401,-4.402,-4.3982,-4.375,-4.3556,-4.3382,-4.3614,-4.3653,-4.3788,-4.3788,-4.4175,-4.4349,-4.3924,-4.4272,-4.4272,-4.3885,-4.344,-4.2686,-4.2028,-4.1487,-4.1139,-4.0848,-4.0829,-4.079,-4.0732,-4.0597,-4.0462,-3.9843,-3.9301,-3.8373,-3.7212,-3.6729,-3.6497,-3.6168,-3.582,-3.5839,-3.5897,-3.6149,-3.6033,-3.5742,-3.5723,-3.5723,-3.5704,-3.5704,-3.5704,-3.5704,-3.5704,-3.5704,-3.5356,-3.5007,-3.4756,-3.4543,-3.3982,-3.3538,-3.4176,-3.4756,-3.5007,-3.5375,-3.5607,-3.5762,-5.2956,-5.373,-5.4465,-5.4387,-5.373,-5.2705,-5.2318,-5.2437,-5.1354,-5.0909,-5.0893,-5.0887,-5.0871,-5.0831,-5.0829,-5.0846,-5.0899,-5.0899,-5.0913,-5.0909,-5.0906,-5.0906,-5.0906,-5.0906,-5.0906,-5.0906,-5.0906,-5.0906,-5.0906,-5.0906,-5.0906,-5.0867,-5.0693,-5.0287,-4.9881,-4.9339,-4.8256,-4.7328,-4.6361,-4.5916,-4.5838,-4.58,-4.58,-4.58,-4.5742,-4.5742,-4.578,-4.5452,-4.4968,-4.4407,-4.4136,-4.3653,-4.2899,-4.2899,-4.3421,-4.404,-4.3943,-4.4078,-4.4291,-4.4562,-4.522,-4.5278,-4.4813,-4.4117,-4.4059,-4.3634,-4.3769,-4.4214,-4.4349,-4.4194,-4.402,-4.3808,-4.315,-4.226,-4.168,-4.1351,-4.1042,-4.081,-4.079,-4.079,-4.0732,-4.0597,-4.0558,-4.0017,-3.9166,-3.8025,-3.6884,-3.6613,-3.6323,-3.6033,-3.6091,-3.6245,-3.6632,-3.6497,-3.5878,-3.582,-3.5936,-3.582,-3.5704,-3.5704,-3.5704,-3.5704,-3.5704,-3.5626,-3.5356,-3.5085,-3.4833,-3.4543,-3.4563,-3.524,-3.5626,-3.5549,-3.553,-3.5646,-3.5781,-5.2566,-5.2047,-5.342,-5.4116,-5.4175,-5.2782,-5.2511,-5.2705,-5.1544,-5.0893,-5.0844,-5.085,-5.0795,-5.0757,-5.0738,-5.0775,-5.0846,-5.088,-5.088,-5.0913,-5.0909,-5.089,-5.0906,-5.0906,-5.0906,-5.0906,-5.0906,-5.0906,-5.0906,-5.0906,-5.0906,-5.0906,-5.0906,-5.079,-5.0422,-4.9842,-4.872,-4.756,-4.6762,-4.6394,-4.5838,-4.58,-4.58,-4.58,-4.58,-4.58,-4.58,-4.58,-4.5316,-4.4852,-4.4659,-4.4175,-4.3653,-4.3498,-4.3885,-4.4543,-4.4233,-4.4562,-4.4833,-4.4794,-4.4253,-4.4233,-4.3943,-4.3866,-4.404,-4.3885,-4.3827,-4.4078,-4.4446,-4.4581,-4.3711,-4.3904,-4.3692,-4.255,-4.1912,-4.1699,-4.1274,-4.1061,-4.0829,-4.0829,-4.081,-4.0752,-4.0752,-4.0713,-3.9785,-3.8818,-3.7677,-3.6748,-3.6574,-3.6535,-3.6729,-3.6903,-3.729,-3.7193,-3.6613,-3.64,-3.6245,-3.5994,-3.5762,-3.5704,-3.5704,-3.5704,-3.5704,-3.5704,-3.5704,-3.5452,-3.5278,-3.524,-3.5298,-3.5336,-3.551,-3.5684,-3.5684,-3.5704,-3.5833,-5.2024,-5.1099,-5.2221,-5.3053,-5.3459,-5.2608,-5.2395,-5.2453,-5.1447,-5.0874,-5.0827,-5.0795,-5.0759,-5.072,-5.0702,-5.072,-5.0775,-5.0829,-5.0863,-5.0897,-5.0893,-5.089,-5.0906,-5.0906,-5.0906,-5.0906,-5.0906,-5.0906,-5.0906,-5.0906,-5.0906,-5.0906,-5.0906,-5.0887,-5.0693,-5.0055,-4.9064,-4.814,-4.7207,-4.6897,-4.6245,-4.5916,-4.58,-4.58,-4.58,-4.58,-4.58,-4.578,-4.5587,-4.522,-4.4968,-4.4678,-4.4311,-4.4136,-4.4407,-4.4717,-4.5007,-4.5258,-4.5278,-4.491,-4.4059,-4.4465,-4.402,-4.3885,-4.3846,-4.4078,-4.3808,-4.404,-4.4775,-4.5026,-4.3904,-4.4581,-4.4446,-4.3479,-4.3227,-4.2918,-4.1874,-4.1371,-4.1061,-4.0868,-4.0848,-4.081,-4.0829,-4.079,-4.021,-3.9282,-3.8276,-3.7522,-3.7328,-3.7406,-3.7677,-3.7851,-3.8083,-3.7831,-3.7464,-3.7058,-3.6651,-3.6323,-3.6071,-3.5762,-3.5704,-3.5723,-3.5723,-3.5704,-3.5704,-3.5704,-3.5626,-3.5491,-3.524,-3.5007,-3.5317,-3.5704,-3.5704,-3.5734,-3.5922,-5.0983,-5.0906,-5.1041,-5.1119,-5.1351,-5.1873,-5.1796,-5.1354,-5.0929,-5.0774,-5.0739,-5.0718,-5.0644,-5.0605,-5.0587,-5.0702,-5.072,-5.0775,-5.0846,-5.088,-5.0893,-5.089,-5.0906,-5.0906,-5.0906,-5.0906,-5.0906,-5.0906,-5.0906,-5.0906,-5.0906,-5.0906,-5.0906,-5.0906,-5.0828,-5.0113,-4.9687,-4.9378,-4.7923,-4.742,-4.6806,-4.6264,-4.6051,-4.58,-4.58,-4.58,-4.58,-4.58,-4.5684,-4.5587,-4.5548,-4.5452,-4.5374,-4.5374,-4.549,-4.5587,-4.5664,-4.5742,-4.5761,-4.5684,-4.551,-4.5316,-4.4775,-4.4581,-4.4407,-4.4156,-4.402,-4.4543,-4.4871,-4.522,-4.5336,-4.5587,-4.5007,-4.4504,-4.4175,-4.3498,-4.2415,-4.168,-4.139,-4.1042,-4.0906,-4.0829,-4.0848,-4.0752,-4.0384,-3.9669,-3.876,-3.8257,-3.8025,-3.8199,-3.847,-3.8702,-3.8876,-3.8721,-3.8334,-3.7541,-3.7058,-3.6729,-3.6439,-3.6168,-3.5878,-3.58,-3.5781,-3.5723,-3.5704,-3.5704,-3.5704,-3.5684,-3.5452,-3.5298,-3.5452,-3.5704,-3.5704,-3.5794,-3.6008,-5.0906,-5.0964,-5.1525,-5.1428,-5.1003,-5.1215,-5.1451,-5.1509,-5.0658,-5.0078,-5.0039,-4.9963,-4.9931,-5.0028,-5.049,-5.0702,-5.0702,-5.0775,-5.0829,-5.0846,-5.0874,-5.089,-5.0906,-5.0906,-5.0906,-5.0906,-5.0906,-5.0906,-5.0906,-5.0906,-5.0906,-5.0906,-5.0906,-5.0906,-5.0867,-5.0519,-5.0306,-4.9745,-4.8991,-4.8357,-4.725,-4.6786,-4.6361,-4.5896,-4.5858,-4.58,-4.58,-4.58,-4.58,-4.58,-4.58,-4.58,-4.58,-4.58,-4.58,-4.58,-4.58,-4.58,-4.58,-4.5761,-4.578,-4.5684,-4.5548,-4.5316,-4.5297,-4.5162,-4.52,-4.5239,-4.5278,-4.5529,-4.5703,-4.5742,-4.5316,-4.4717,-4.4214,-4.344,-4.2589,-4.2125,-4.1738,-4.1332,-4.1081,-4.1371,-4.1487,-4.1274,-4.0887,-4.0346,-3.9514,-3.8818,-3.8489,-3.8856,-3.9185,-3.9456,-3.9611,-3.9553,-3.9243,-3.8489,-3.7967,-3.7696,-3.7193,-3.669,-3.64,-3.6013,-3.5781,-3.5704,-3.5704,-3.5704,-3.5704,-3.5704,-3.5704,-3.5684,-3.5704,-3.5723,-3.5723,-3.5873,-3.6145,-5.0906,-5.0983,-5.1505,-5.1428,-5.1003,-5.1215,-5.1548,-5.1509,-5.0314,-4.9653,-4.9633,-4.9553,-4.9523,-4.9776,-5.0279,-5.0683,-5.0721,-5.0776,-5.0812,-5.081,-5.0858,-5.089,-5.0906,-5.0906,-5.0906,-5.0906,-5.0906,-5.0906,-5.0906,-5.0906,-5.0906,-5.0906,-5.0906,-5.0906,-5.0887,-5.079,-5.0654,-5.0136,-4.9672,-4.9131,-4.8179,-4.7463,-4.6806,-4.6361,-4.6051,-4.58,-4.58,-4.58,-4.58,-4.58,-4.58,-4.58,-4.58,-4.58,-4.58,-4.58,-4.58,-4.58,-4.58,-4.58,-4.58,-4.578,-4.58,-4.58,-4.58,-4.5645,-4.5664,-4.5722,-4.58,-4.58,-4.578,-4.58,-4.5568,-4.4968,-4.4717,-4.3962,-4.2995,-4.2531,-4.2202,-4.1777,-4.1622,-4.1912,-4.2048,-4.1816,-4.1506,-4.0906,-4.0288,-3.9649,-3.9088,-3.9475,-3.9835,-4.0017,-4.021,-4.0152,-3.9939,-3.9468,-3.8992,-3.8682,-3.7928,-3.7096,-3.6613,-3.6187,-3.5936,-3.5704,-3.5704,-3.5704,-3.5704,-3.5704,-3.5723,-3.5723,-3.5723,-3.5723,-3.5734,-3.6057,-3.6448,-5.0906,-5.0906,-5.0906,-5.0906,-5.0983,-5.1428,-5.1428,-5.0774,-4.9927,-4.9482,-4.9409,-4.9244,-4.9213,-4.9526,-5.024,-5.0606,-5.0702,-5.0776,-5.0812,-5.0827,-5.0858,-5.089,-5.0906,-5.0906,-5.0906,-5.0906,-5.0906,-5.0906,-5.0906,-5.0906,-5.0906,-5.0906,-5.0906,-5.0906,-5.0906,-5.0887,-5.0828,-5.0542,-5.0213,-4.9711,-4.9049,-4.814,-4.7444,-4.6902,-4.6399,-4.6013,-4.5877,-4.58,-4.58,-4.58,-4.58,-4.58,-4.58,-4.58,-4.58,-4.58,-4.58,-4.58,-4.58,-4.58,-4.58,-4.58,-4.58,-4.58,-4.58,-4.58,-4.58,-4.58,-4.58,-4.58,-4.58,-4.58,-4.578,-4.5626,-4.5645,-4.4736,-4.3576,-4.3034,-4.2725,-4.2473,-4.2357,-4.2415,-4.2338,-4.2164,-4.2009,-4.11,-4.0578,-4.05,-4.0075,-4.0172,-4.0442,-4.0481,-4.0636,-4.0694,-4.0442,-4.0068,-3.9901,-3.9533,-3.8141,-3.7251,-3.6787,-3.6361,-3.5936,-3.5704,-3.5704,-3.5704,-3.5704,-3.5742,-3.5781,-3.582,-3.6102,-3.614,-3.6276,-3.6607,-3.6914,-5.0906,-5.0906,-5.0906,-5.0577,-5.0035,-4.9656,-4.9676,-4.9811,-4.8543,-4.7847,-4.7812,-4.7747,-4.8176,-4.8621,-4.9413,-5.0106,-5.0529,-5.0758,-5.0812,-5.0827,-5.0877,-5.089,-5.0906,-5.0906,-5.0906,-5.0906,-5.0906,-5.0906,-5.0906,-5.0906,-5.0906,-5.0906,-5.0906,-5.0906,-5.0906,-5.0906,-5.0906,-5.0832,-5.0561,-5.0233,-4.9861,-4.9068,-4.8217,-4.7347,-4.6864,-4.638,-4.5935,-4.5819,-4.58,-4.58,-4.58,-4.58,-4.58,-4.58,-4.58,-4.58,-4.58,-4.58,-4.58,-4.58,-4.58,-4.58,-4.58,-4.58,-4.58,-4.58,-4.58,-4.58,-4.58,-4.58,-4.58,-4.58,-4.58,-4.58,-4.5722,-4.5065,-4.4059,-4.3711,-4.3382,-4.2995,-4.2899,-4.3131,-4.3015,-4.2763,-4.2473,-4.1409,-4.079,-4.079,-4.079,-4.079,-4.079,-4.079,-4.079,-4.079,-4.079,-4.05,-4.0481,-4.021,-3.874,-3.7638,-3.7386,-3.6903,-3.6091,-3.5762,-3.5839,-3.5781,-3.5704,-3.5878,-3.6353,-3.6577,-3.6828,-3.6809,-3.6878,-3.7347,-3.75,-5.0913,-5.0835,-5.0491,-4.9892,-4.9061,-4.8211,-4.8172,-4.8381,-4.753,-4.709,-4.7063,-4.702,-4.7409,-4.8257,-4.9105,-4.9875,-5.0664,-5.0776,-5.0812,-5.0827,-5.0877,-5.089,-5.0906,-5.0906,-5.0906,-5.0906,-5.0906,-5.0906,-5.0906,-5.0906,-5.0906,-5.0906,-5.0906,-5.0906,-5.0906,-5.0906,-5.0906,-5.0906,-5.0809,-5.0596,-5.0268,-4.9842,-4.8798,-4.7889,-4.7424,-4.6651,-4.5974,-4.5838,-4.58,-4.58,-4.58,-4.58,-4.58,-4.58,-4.58,-4.58,-4.58,-4.58,-4.58,-4.58,-4.58,-4.58,-4.58,-4.58,-4.58,-4.58,-4.58,-4.58,-4.58,-4.58,-4.58,-4.58,-4.58,-4.58,-4.551,-4.52,-4.4794,-4.4446,-4.4001,-4.3556,-4.3614,-4.3943,-4.3885,-4.3576,-4.2802,-4.1467,-4.079,-4.079,-4.079,-4.079,-4.079,-4.079,-4.079,-4.079,-4.079,-4.079,-4.0732,-4.0288,-3.905,-3.8179,-3.7967,-3.7154,-3.6091,-3.5916,-3.6033,-3.611,-3.6314,-3.677,-3.7207,-3.7439,-3.7751,-3.7947,-3.816,-3.8533,-3.8496,-5.0728,-5.0552,-4.9691,-4.8861,-4.8128,-4.7287,-4.6916,-4.6912,-4.6907,-4.6931,-4.6854,-4.6808,-4.716,-4.7893,-4.874,-4.9625,-5.0298,-5.0641,-5.0829,-5.081,-5.0877,-5.0906,-5.0906,-5.0906,-5.0906,-5.0906,-5.0906,-5.0906,-5.0906,-5.0906,-5.0906,-5.0906,-5.0906,-5.0906,-5.0906,-5.0906,-5.0906,-5.0906,-5.0906,-5.079,-5.0654,-5.0132,-4.9378,-4.8546,-4.7734,-4.6883,-4.6187,-4.5877,-4.58,-4.58,-4.58,-4.58,-4.58,-4.58,-4.58,-4.58,-4.58,-4.58,-4.58,-4.58,-4.58,-4.58,-4.58,-4.58,-4.58,-4.58,-4.58,-4.58,-4.58,-4.58,-4.58,-4.58,-4.58,-4.58,-4.5645,-4.522,-4.4755,-4.4581,-4.4523,-4.4272,-4.4639,-4.4833,-4.4136,-4.375,-4.3169,-4.1661,-4.1255,-4.1313,-4.0945,-4.0945,-4.0926,-4.0906,-4.079,-4.079,-4.079,-4.079,-4.079,-4.021,-3.9204,-3.874,-3.8566,-3.7425,-3.6033,-3.6245,-3.6593,-3.6914,-3.7196,-3.7575,-3.7973,-3.8431,-3.8762,-3.9131,-3.9434,-3.9687,-3.9434,-4.9478,-4.8842,-4.7973,-4.7475,-4.7221,-4.6372,-4.602,-4.6024,-4.6034,-4.6075,-4.602,-4.6075,-4.6521,-4.745,-4.8142,-4.8969,-4.9796,-5.0275,-5.0752,-5.0767,-5.0797,-5.0813,-5.0906,-5.0906,-5.0906,-5.0906,-5.0906,-5.0906,-5.0906,-5.0906,-5.0906,-5.0906,-5.0906,-5.0906,-5.0906,-5.0887,-5.0793,-5.0887,-5.0755,-5.0813,-5.0828,-5.0693,-5.021,-4.9359,-4.8488,-4.756,-4.6806,-4.6071,-4.5916,-4.58,-4.58,-4.58,-4.58,-4.58,-4.58,-4.58,-4.58,-4.58,-4.58,-4.58,-4.58,-4.58,-4.58,-4.58,-4.58,-4.58,-4.58,-4.58,-4.58,-4.58,-4.58,-4.58,-4.58,-4.58,-4.578,-4.5239,-4.4717,-4.4813,-4.4929,-4.5239,-4.5626,-4.52,-4.4485,-4.3866,-4.3227,-4.2899,-4.2783,-4.2531,-4.1661,-4.1351,-4.1293,-4.1216,-4.0848,-4.079,-4.079,-4.079,-4.079,-4.052,-3.9688,-3.9359,-3.9088,-3.8063,-3.6961,-3.7019,-3.7232,-3.7688,-3.8028,-3.8175,-3.8623,-3.9267,-3.9609,-3.9902,-4.0293,-4.0586,-4.0234,-4.8656,-4.8155,-4.7309,-4.6731,-4.6326,-4.5844,-4.5671,-4.5654,-4.5659,-4.5661,-4.5642,-4.5767,-4.6323,-4.716,-4.7621,-4.8388,-4.9253,-4.9539,-4.9881,-5.0146,-5.041,-5.0639,-5.0716,-5.0774,-5.0906,-5.0906,-5.0906,-5.0906,-5.0906,-5.0906,-5.0906,-5.0906,-5.0906,-5.0906,-5.0867,-5.0658,-5.0619,-5.0867,-5.0619,-5.0619,-5.0832,-5.0828,-5.048,-4.9707,-4.8856,-4.8005,-4.7115,-4.6303,-4.5916,-4.58,-4.58,-4.58,-4.58,-4.58,-4.58,-4.58,-4.58,-4.58,-4.58,-4.58,-4.58,-4.58,-4.58,-4.58,-4.58,-4.58,-4.58,-4.58,-4.58,-4.58,-4.58,-4.58,-4.58,-4.58,-4.58,-4.551,-4.5316,-4.5336,-4.5413,-4.5548,-4.5664,-4.5355,-4.4755,-4.4388,-4.3769,-4.3169,-4.3247,-4.3285,-4.2492,-4.197,-4.1854,-4.1525,-4.1177,-4.0868,-4.079,-4.079,-4.079,-4.0442,-4.0094,-3.9398,-3.8856,-3.8489,-3.8044,-3.7967,-3.8152,-3.8706,-3.8988,-3.9148,-3.9607,-4.0306,-4.0488,-4.0625,-4.0976,-4.1191,-4.084,-4.8025,-4.791,-4.7085,-4.6317,-4.5663,-4.5603,-4.5603,-4.5603,-4.5586,-4.5622,-4.564,-4.5684,-4.6667,-4.7155,-4.7405,-4.8193,-4.8709,-4.8784,-4.901,-4.9312,-4.9502,-4.9734,-5.0078,-5.0407,-5.0407,-5.0619,-5.0793,-5.0867,-5.0906,-5.0906,-5.0906,-5.0906,-5.0906,-5.0906,-5.0677,-5.0407,-5.031,-5.0619,-5.0581,-5.0445,-5.0639,-5.0906,-5.05,-4.9803,-4.8914,-4.8101,-4.7347,-4.6477,-4.5993,-4.5896,-4.5916,-4.58,-4.58,-4.58,-4.58,-4.58,-4.58,-4.58,-4.58,-4.58,-4.58,-4.58,-4.58,-4.58,-4.58,-4.58,-4.58,-4.58,-4.58,-4.58,-4.58,-4.58,-4.58,-4.58,-4.578,-4.578,-4.5742,-4.5722,-4.5761,-4.58,-4.5626,-4.5374,-4.5162,-4.4813,-4.4349,-4.373,-4.3498,-4.3401,-4.3285,-4.3015,-4.2821,-4.2164,-4.1506,-4.1235,-4.0906,-4.079,-4.079,-4.0674,-4.0268,-3.9379,-3.8798,-3.903,-3.903,-3.8752,-3.9023,-3.9646,-4.0042,-4.0257,-4.0791,-4.1055,-4.0996,-4.0937,-4.1016,-4.1191,-4.1191,-4.7144,-4.7085,-4.622,-4.572,-4.5605,-4.5586,-4.5586,-4.5586,-4.5603,-4.5637,-4.5668,-4.5684,-4.6012,-4.6249,-4.6912,-4.7503,-4.7774,-4.789,-4.8269,-4.8628,-4.8647,-4.8767,-4.9077,-4.9575,-4.9482,-4.9927,-5.0561,-5.0887,-5.0906,-5.0906,-5.0906,-5.0906,-5.0906,-5.0906,-5.0887,-5.0619,-5.0523,-5.0697,-5.0697,-5.06,-5.0735,-5.0906,-5.0867,-5.0132,-4.9204,-4.903,-4.845,-4.6883,-4.6573,-4.6419,-4.6187,-4.5896,-4.58,-4.58,-4.58,-4.58,-4.58,-4.58,-4.58,-4.58,-4.58,-4.58,-4.58,-4.58,-4.58,-4.58,-4.58,-4.58,-4.58,-4.58,-4.58,-4.58,-4.58,-4.58,-4.58,-4.58,-4.578,-4.578,-4.58,-4.58,-4.5742,-4.5645,-4.5606,-4.5336,-4.5123,-4.4736,-4.4813,-4.462,-4.3672,-4.3653,-4.3672,-4.2744,-4.1816,-4.1351,-4.0945,-4.0829,-4.079,-4.0713,-4.0578,-3.9939,-3.9765,-4.0184,-4.0106,-3.9652,-3.9968,-4.0595,-4.0955,-4.0918,-4.1016,-4.1133,-4.1152,-4.1152,-4.1191,-4.1191,-4.1191]}]]